<?xml version="1.0" encoding="UTF-8" standalone="no" ?>
<gpx xmlns="http://www.topografix.com/GPX/1/1" xmlns:xsi="http://www.w3.org/2001/XMLSchema-instance" xsi:schemaLocation="http://www.topografix.com/GPX/1/1 http://www.topografix.com/GPX/1/1/gpx.xsd" version="1.1" creator="VisuGPX - https://www.visugpx.com">
  <metadata>
    <name>La regordane - Langogne &gt; Cheylard l\'Evèque</name>
    <desc><![CDATA[1ère étape]]></desc>
  </metadata>
  <trk>
    <name><![CDATA[La regordane - Langogne > Cheylard l\'Evèque_1]]></name>
    <trkseg>
      <trkpt lat="44.71734" lon="3.85613">
        <ele>906.191589</ele>
        <time>2013-05-08T09:21:33Z</time>
      </trkpt>
      <trkpt lat="44.71734" lon="3.85613">
        <ele>906.191589</ele>
        <time>2013-05-08T09:21:34Z</time>
      </trkpt>
      <trkpt lat="44.71732" lon="3.85625">
        <ele>908</ele>
        <time>2013-05-08T09:27:45Z</time>
      </trkpt>
      <trkpt lat="44.71728" lon="3.85611">
        <ele>907.3</ele>
        <time>2013-05-08T09:29:19Z</time>
      </trkpt>
      <trkpt lat="44.71732" lon="3.85608">
        <ele>907.6</ele>
        <time>2013-05-08T09:31:08Z</time>
      </trkpt>
      <trkpt lat="44.71723" lon="3.85599">
        <ele>908</ele>
        <time>2013-05-08T09:32:14Z</time>
      </trkpt>
      <trkpt lat="44.71709" lon="3.85595">
        <ele>908.3</ele>
        <time>2013-05-08T09:32:32Z</time>
      </trkpt>
      <trkpt lat="44.71701" lon="3.85596">
        <ele>908.2</ele>
        <time>2013-05-08T09:32:40Z</time>
      </trkpt>
      <trkpt lat="44.71694" lon="3.85604">
        <ele>908.5</ele>
        <time>2013-05-08T09:32:52Z</time>
      </trkpt>
      <trkpt lat="44.71686" lon="3.856">
        <ele>908.4</ele>
        <time>2013-05-08T09:33:01Z</time>
      </trkpt>
      <trkpt lat="44.71677" lon="3.85599">
        <ele>908.4</ele>
        <time>2013-05-08T09:33:11Z</time>
      </trkpt>
      <trkpt lat="44.71669" lon="3.85599">
        <ele>908.6</ele>
        <time>2013-05-08T09:33:18Z</time>
      </trkpt>
      <trkpt lat="44.71668" lon="3.856">
        <ele>908.6</ele>
        <time>2013-05-08T09:33:19Z</time>
      </trkpt>
      <trkpt lat="44.71653" lon="3.85601">
        <ele>908.8</ele>
        <time>2013-05-08T09:33:32Z</time>
      </trkpt>
      <trkpt lat="44.71644" lon="3.85602">
        <ele>909.1</ele>
        <time>2013-05-08T09:33:40Z</time>
      </trkpt>
      <trkpt lat="44.71636" lon="3.85606">
        <ele>909.4</ele>
        <time>2013-05-08T09:33:48Z</time>
      </trkpt>
      <trkpt lat="44.71629" lon="3.8561">
        <ele>909.5</ele>
        <time>2013-05-08T09:33:56Z</time>
      </trkpt>
      <trkpt lat="44.7162" lon="3.85611">
        <ele>909.7</ele>
        <time>2013-05-08T09:34:04Z</time>
      </trkpt>
      <trkpt lat="44.71611" lon="3.85613">
        <ele>909.7</ele>
        <time>2013-05-08T09:34:12Z</time>
      </trkpt>
      <trkpt lat="44.71603" lon="3.85617">
        <ele>909.7</ele>
        <time>2013-05-08T09:34:20Z</time>
      </trkpt>
      <trkpt lat="44.71602" lon="3.85617">
        <ele>909.8</ele>
        <time>2013-05-08T09:34:21Z</time>
      </trkpt>
      <trkpt lat="44.71587" lon="3.85622">
        <ele>909.8</ele>
        <time>2013-05-08T09:34:36Z</time>
      </trkpt>
      <trkpt lat="44.71578" lon="3.85624">
        <ele>909.9</ele>
        <time>2013-05-08T09:34:44Z</time>
      </trkpt>
      <trkpt lat="44.71569" lon="3.85625">
        <ele>909.9</ele>
        <time>2013-05-08T09:34:51Z</time>
      </trkpt>
      <trkpt lat="44.71561" lon="3.85626">
        <ele>910</ele>
        <time>2013-05-08T09:35:00Z</time>
      </trkpt>
      <trkpt lat="44.71552" lon="3.85628">
        <ele>910.4</ele>
        <time>2013-05-08T09:35:09Z</time>
      </trkpt>
      <trkpt lat="44.71544" lon="3.8563">
        <ele>910.4</ele>
        <time>2013-05-08T09:35:24Z</time>
      </trkpt>
      <trkpt lat="44.71542" lon="3.8563">
        <ele>910.4</ele>
        <time>2013-05-08T09:35:25Z</time>
      </trkpt>
      <trkpt lat="44.71527" lon="3.85631">
        <ele>910.8</ele>
        <time>2013-05-08T09:35:40Z</time>
      </trkpt>
      <trkpt lat="44.71519" lon="3.85629">
        <ele>911.2</ele>
        <time>2013-05-08T09:35:47Z</time>
      </trkpt>
      <trkpt lat="44.71512" lon="3.8563">
        <ele>911.4</ele>
        <time>2013-05-08T09:35:53Z</time>
      </trkpt>
      <trkpt lat="44.71504" lon="3.85633">
        <ele>911.5</ele>
        <time>2013-05-08T09:35:59Z</time>
      </trkpt>
      <trkpt lat="44.71496" lon="3.85634">
        <ele>911.5</ele>
        <time>2013-05-08T09:36:05Z</time>
      </trkpt>
      <trkpt lat="44.71488" lon="3.85634">
        <ele>911.4</ele>
        <time>2013-05-08T09:36:13Z</time>
      </trkpt>
      <trkpt lat="44.71479" lon="3.85636">
        <ele>911.4</ele>
        <time>2013-05-08T09:36:20Z</time>
      </trkpt>
      <trkpt lat="44.7147" lon="3.85637">
        <ele>911.3</ele>
        <time>2013-05-08T09:36:28Z</time>
      </trkpt>
      <trkpt lat="44.71469" lon="3.85638">
        <ele>911.3</ele>
        <time>2013-05-08T09:36:29Z</time>
      </trkpt>
      <trkpt lat="44.71455" lon="3.85642">
        <ele>911.2</ele>
        <time>2013-05-08T09:36:40Z</time>
      </trkpt>
      <trkpt lat="44.71447" lon="3.85643">
        <ele>911.3</ele>
        <time>2013-05-08T09:36:47Z</time>
      </trkpt>
      <trkpt lat="44.71439" lon="3.85645">
        <ele>911.3</ele>
        <time>2013-05-08T09:36:54Z</time>
      </trkpt>
      <trkpt lat="44.7143" lon="3.85648">
        <ele>911.4</ele>
        <time>2013-05-08T09:37:02Z</time>
      </trkpt>
      <trkpt lat="44.71423" lon="3.85651">
        <ele>911.4</ele>
        <time>2013-05-08T09:37:08Z</time>
      </trkpt>
      <trkpt lat="44.71414" lon="3.85653">
        <ele>911.5</ele>
        <time>2013-05-08T09:37:15Z</time>
      </trkpt>
      <trkpt lat="44.71407" lon="3.85655">
        <ele>911.5</ele>
        <time>2013-05-08T09:37:22Z</time>
      </trkpt>
      <trkpt lat="44.71398" lon="3.85657">
        <ele>911.5</ele>
        <time>2013-05-08T09:37:29Z</time>
      </trkpt>
      <trkpt lat="44.71397" lon="3.85657">
        <ele>911.5</ele>
        <time>2013-05-08T09:37:30Z</time>
      </trkpt>
      <trkpt lat="44.71382" lon="3.85657">
        <ele>911.3</ele>
        <time>2013-05-08T09:37:44Z</time>
      </trkpt>
      <trkpt lat="44.71374" lon="3.85656">
        <ele>911.3</ele>
        <time>2013-05-08T09:37:51Z</time>
      </trkpt>
      <trkpt lat="44.71365" lon="3.85657">
        <ele>911.4</ele>
        <time>2013-05-08T09:37:57Z</time>
      </trkpt>
      <trkpt lat="44.71357" lon="3.85655">
        <ele>911.7</ele>
        <time>2013-05-08T09:38:05Z</time>
      </trkpt>
      <trkpt lat="44.71349" lon="3.85656">
        <ele>912</ele>
        <time>2013-05-08T09:38:12Z</time>
      </trkpt>
      <trkpt lat="44.71341" lon="3.85658">
        <ele>912</ele>
        <time>2013-05-08T09:38:17Z</time>
      </trkpt>
      <trkpt lat="44.71333" lon="3.85659">
        <ele>912.1</ele>
        <time>2013-05-08T09:38:23Z</time>
      </trkpt>
      <trkpt lat="44.71325" lon="3.85659">
        <ele>912</ele>
        <time>2013-05-08T09:38:30Z</time>
      </trkpt>
      <trkpt lat="44.71324" lon="3.85659">
        <ele>912</ele>
        <time>2013-05-08T09:38:31Z</time>
      </trkpt>
      <trkpt lat="44.71309" lon="3.85658">
        <ele>912.2</ele>
        <time>2013-05-08T09:38:44Z</time>
      </trkpt>
      <trkpt lat="44.713" lon="3.85659">
        <ele>912.2</ele>
        <time>2013-05-08T09:38:52Z</time>
      </trkpt>
      <trkpt lat="44.71292" lon="3.85661">
        <ele>912.5</ele>
        <time>2013-05-08T09:38:59Z</time>
      </trkpt>
      <trkpt lat="44.71284" lon="3.85663">
        <ele>912.9</ele>
        <time>2013-05-08T09:39:05Z</time>
      </trkpt>
      <trkpt lat="44.71276" lon="3.85665">
        <ele>913.1</ele>
        <time>2013-05-08T09:39:12Z</time>
      </trkpt>
      <trkpt lat="44.71267" lon="3.85662">
        <ele>913.5</ele>
        <time>2013-05-08T09:39:20Z</time>
      </trkpt>
      <trkpt lat="44.71258" lon="3.85663">
        <ele>913.5</ele>
        <time>2013-05-08T09:39:26Z</time>
      </trkpt>
      <trkpt lat="44.7125" lon="3.85662">
        <ele>913.9</ele>
        <time>2013-05-08T09:39:34Z</time>
      </trkpt>
      <trkpt lat="44.71249" lon="3.85662">
        <ele>914</ele>
        <time>2013-05-08T09:39:35Z</time>
      </trkpt>
      <trkpt lat="44.71233" lon="3.85662">
        <ele>914.1</ele>
        <time>2013-05-08T09:39:48Z</time>
      </trkpt>
      <trkpt lat="44.71224" lon="3.85663">
        <ele>914.4</ele>
        <time>2013-05-08T09:39:55Z</time>
      </trkpt>
      <trkpt lat="44.71216" lon="3.85661">
        <ele>914.5</ele>
        <time>2013-05-08T09:40:02Z</time>
      </trkpt>
      <trkpt lat="44.71208" lon="3.8566">
        <ele>915</ele>
        <time>2013-05-08T09:40:09Z</time>
      </trkpt>
      <trkpt lat="44.71199" lon="3.85657">
        <ele>916.2</ele>
        <time>2013-05-08T09:40:16Z</time>
      </trkpt>
      <trkpt lat="44.71191" lon="3.85655">
        <ele>916.6</ele>
        <time>2013-05-08T09:40:23Z</time>
      </trkpt>
      <trkpt lat="44.71183" lon="3.85652">
        <ele>917.4</ele>
        <time>2013-05-08T09:40:29Z</time>
      </trkpt>
      <trkpt lat="44.71176" lon="3.85649">
        <ele>918.3</ele>
        <time>2013-05-08T09:40:35Z</time>
      </trkpt>
      <trkpt lat="44.71174" lon="3.85648">
        <ele>918.4</ele>
        <time>2013-05-08T09:40:36Z</time>
      </trkpt>
      <trkpt lat="44.71158" lon="3.85646">
        <ele>919.2</ele>
        <time>2013-05-08T09:40:49Z</time>
      </trkpt>
      <trkpt lat="44.71151" lon="3.85644">
        <ele>919.5</ele>
        <time>2013-05-08T09:40:55Z</time>
      </trkpt>
      <trkpt lat="44.71142" lon="3.85645">
        <ele>919.7</ele>
        <time>2013-05-08T09:41:02Z</time>
      </trkpt>
      <trkpt lat="44.71133" lon="3.85645">
        <ele>920.3</ele>
        <time>2013-05-08T09:41:09Z</time>
      </trkpt>
      <trkpt lat="44.71125" lon="3.85645">
        <ele>921</ele>
        <time>2013-05-08T09:41:17Z</time>
      </trkpt>
      <trkpt lat="44.71116" lon="3.85645">
        <ele>921.6</ele>
        <time>2013-05-08T09:41:24Z</time>
      </trkpt>
      <trkpt lat="44.71108" lon="3.85643">
        <ele>922</ele>
        <time>2013-05-08T09:41:31Z</time>
      </trkpt>
      <trkpt lat="44.711" lon="3.85642">
        <ele>921.9</ele>
        <time>2013-05-08T09:41:38Z</time>
      </trkpt>
      <trkpt lat="44.71099" lon="3.85642">
        <ele>921.9</ele>
        <time>2013-05-08T09:41:39Z</time>
      </trkpt>
      <trkpt lat="44.71084" lon="3.85638">
        <ele>921.8</ele>
        <time>2013-05-08T09:41:51Z</time>
      </trkpt>
      <trkpt lat="44.71076" lon="3.85639">
        <ele>921.8</ele>
        <time>2013-05-08T09:41:56Z</time>
      </trkpt>
      <trkpt lat="44.71067" lon="3.8564">
        <ele>922</ele>
        <time>2013-05-08T09:42:03Z</time>
      </trkpt>
      <trkpt lat="44.71059" lon="3.85637">
        <ele>921.9</ele>
        <time>2013-05-08T09:42:11Z</time>
      </trkpt>
      <trkpt lat="44.7105" lon="3.85636">
        <ele>921.8</ele>
        <time>2013-05-08T09:42:18Z</time>
      </trkpt>
      <trkpt lat="44.71042" lon="3.85636">
        <ele>922.2</ele>
        <time>2013-05-08T09:42:24Z</time>
      </trkpt>
      <trkpt lat="44.71034" lon="3.85637">
        <ele>922.5</ele>
        <time>2013-05-08T09:42:30Z</time>
      </trkpt>
      <trkpt lat="44.71025" lon="3.85638">
        <ele>922.9</ele>
        <time>2013-05-08T09:42:37Z</time>
      </trkpt>
      <trkpt lat="44.71017" lon="3.8564">
        <ele>923.1</ele>
        <time>2013-05-08T09:42:45Z</time>
      </trkpt>
      <trkpt lat="44.71016" lon="3.8564">
        <ele>923</ele>
        <time>2013-05-08T09:42:46Z</time>
      </trkpt>
      <trkpt lat="44.71001" lon="3.85641">
        <ele>921.9</ele>
        <time>2013-05-08T09:42:58Z</time>
      </trkpt>
      <trkpt lat="44.70993" lon="3.85642">
        <ele>921.9</ele>
        <time>2013-05-08T09:43:05Z</time>
      </trkpt>
      <trkpt lat="44.70985" lon="3.85643">
        <ele>921.4</ele>
        <time>2013-05-08T09:43:11Z</time>
      </trkpt>
      <trkpt lat="44.70977" lon="3.85644">
        <ele>920.7</ele>
        <time>2013-05-08T09:43:19Z</time>
      </trkpt>
      <trkpt lat="44.70968" lon="3.85645">
        <ele>920.9</ele>
        <time>2013-05-08T09:43:26Z</time>
      </trkpt>
      <trkpt lat="44.70961" lon="3.85647">
        <ele>920.9</ele>
        <time>2013-05-08T09:43:32Z</time>
      </trkpt>
      <trkpt lat="44.70952" lon="3.85649">
        <ele>920.9</ele>
        <time>2013-05-08T09:43:40Z</time>
      </trkpt>
      <trkpt lat="44.70943" lon="3.85651">
        <ele>920.7</ele>
        <time>2013-05-08T09:43:46Z</time>
      </trkpt>
      <trkpt lat="44.70941" lon="3.85652">
        <ele>920.5</ele>
        <time>2013-05-08T09:43:47Z</time>
      </trkpt>
      <trkpt lat="44.70928" lon="3.85659">
        <ele>920.3</ele>
        <time>2013-05-08T09:43:57Z</time>
      </trkpt>
      <trkpt lat="44.70919" lon="3.8566">
        <ele>920.3</ele>
        <time>2013-05-08T09:44:04Z</time>
      </trkpt>
      <trkpt lat="44.70911" lon="3.85661">
        <ele>920.6</ele>
        <time>2013-05-08T09:44:12Z</time>
      </trkpt>
      <trkpt lat="44.70903" lon="3.85663">
        <ele>920.3</ele>
        <time>2013-05-08T09:44:18Z</time>
      </trkpt>
      <trkpt lat="44.70894" lon="3.85666">
        <ele>920.3</ele>
        <time>2013-05-08T09:44:25Z</time>
      </trkpt>
      <trkpt lat="44.70886" lon="3.85668">
        <ele>920.4</ele>
        <time>2013-05-08T09:44:33Z</time>
      </trkpt>
      <trkpt lat="44.70878" lon="3.85669">
        <ele>920.9</ele>
        <time>2013-05-08T09:44:42Z</time>
      </trkpt>
      <trkpt lat="44.70869" lon="3.85672">
        <ele>921.2</ele>
        <time>2013-05-08T09:44:48Z</time>
      </trkpt>
      <trkpt lat="44.70868" lon="3.85672">
        <ele>921.3</ele>
        <time>2013-05-08T09:44:49Z</time>
      </trkpt>
      <trkpt lat="44.70853" lon="3.85676">
        <ele>922.9</ele>
        <time>2013-05-08T09:45:00Z</time>
      </trkpt>
      <trkpt lat="44.70846" lon="3.85679">
        <ele>924.1</ele>
        <time>2013-05-08T09:45:06Z</time>
      </trkpt>
      <trkpt lat="44.70838" lon="3.85679">
        <ele>924.6</ele>
        <time>2013-05-08T09:45:13Z</time>
      </trkpt>
      <trkpt lat="44.7083" lon="3.85679">
        <ele>925.8</ele>
        <time>2013-05-08T09:45:21Z</time>
      </trkpt>
      <trkpt lat="44.70821" lon="3.85681">
        <ele>926.8</ele>
        <time>2013-05-08T09:45:27Z</time>
      </trkpt>
      <trkpt lat="44.70813" lon="3.85685">
        <ele>927.8</ele>
        <time>2013-05-08T09:45:33Z</time>
      </trkpt>
      <trkpt lat="44.70804" lon="3.85686">
        <ele>928.4</ele>
        <time>2013-05-08T09:45:41Z</time>
      </trkpt>
      <trkpt lat="44.70796" lon="3.85688">
        <ele>929.3</ele>
        <time>2013-05-08T09:45:48Z</time>
      </trkpt>
      <trkpt lat="44.70795" lon="3.85689">
        <ele>929.4</ele>
        <time>2013-05-08T09:45:49Z</time>
      </trkpt>
      <trkpt lat="44.70787" lon="3.8569">
        <ele>931.9</ele>
        <time>2013-05-08T09:46:54Z</time>
      </trkpt>
      <trkpt lat="44.70771" lon="3.85692">
        <ele>931.6</ele>
        <time>2013-05-08T09:47:32Z</time>
      </trkpt>
      <trkpt lat="44.70763" lon="3.85694">
        <ele>931.3</ele>
        <time>2013-05-08T09:47:37Z</time>
      </trkpt>
      <trkpt lat="44.70755" lon="3.85695">
        <ele>931.1</ele>
        <time>2013-05-08T09:47:43Z</time>
      </trkpt>
      <trkpt lat="44.70747" lon="3.85695">
        <ele>931</ele>
        <time>2013-05-08T09:47:49Z</time>
      </trkpt>
      <trkpt lat="44.70738" lon="3.85695">
        <ele>931.2</ele>
        <time>2013-05-08T09:47:55Z</time>
      </trkpt>
      <trkpt lat="44.70738" lon="3.85695">
        <ele>931.3</ele>
        <time>2013-05-08T09:47:56Z</time>
      </trkpt>
      <trkpt lat="44.70722" lon="3.85693">
        <ele>931.7</ele>
        <time>2013-05-08T09:48:07Z</time>
      </trkpt>
      <trkpt lat="44.70714" lon="3.85692">
        <ele>932.1</ele>
        <time>2013-05-08T09:48:13Z</time>
      </trkpt>
      <trkpt lat="44.70706" lon="3.85692">
        <ele>932.3</ele>
        <time>2013-05-08T09:48:19Z</time>
      </trkpt>
      <trkpt lat="44.70699" lon="3.85689">
        <ele>932.9</ele>
        <time>2013-05-08T09:48:26Z</time>
      </trkpt>
      <trkpt lat="44.7069" lon="3.85686">
        <ele>933.3</ele>
        <time>2013-05-08T09:48:32Z</time>
      </trkpt>
      <trkpt lat="44.70683" lon="3.85685">
        <ele>933.4</ele>
        <time>2013-05-08T09:48:37Z</time>
      </trkpt>
      <trkpt lat="44.70674" lon="3.85683">
        <ele>933.3</ele>
        <time>2013-05-08T09:48:44Z</time>
      </trkpt>
      <trkpt lat="44.70666" lon="3.85682">
        <ele>933.1</ele>
        <time>2013-05-08T09:48:51Z</time>
      </trkpt>
      <trkpt lat="44.70658" lon="3.85677">
        <ele>933.3</ele>
        <time>2013-05-08T09:48:58Z</time>
      </trkpt>
      <trkpt lat="44.70656" lon="3.85677">
        <ele>933.4</ele>
        <time>2013-05-08T09:48:59Z</time>
      </trkpt>
      <trkpt lat="44.70642" lon="3.85668">
        <ele>932.8</ele>
        <time>2013-05-08T09:49:11Z</time>
      </trkpt>
      <trkpt lat="44.70636" lon="3.8566">
        <ele>932.4</ele>
        <time>2013-05-08T09:49:19Z</time>
      </trkpt>
      <trkpt lat="44.70629" lon="3.85654">
        <ele>932.2</ele>
        <time>2013-05-08T09:49:25Z</time>
      </trkpt>
      <trkpt lat="44.70621" lon="3.85651">
        <ele>932.1</ele>
        <time>2013-05-08T09:49:31Z</time>
      </trkpt>
      <trkpt lat="44.70613" lon="3.85648">
        <ele>931.6</ele>
        <time>2013-05-08T09:49:36Z</time>
      </trkpt>
      <trkpt lat="44.70605" lon="3.85646">
        <ele>931.5</ele>
        <time>2013-05-08T09:49:41Z</time>
      </trkpt>
      <trkpt lat="44.70596" lon="3.85645">
        <ele>930.8</ele>
        <time>2013-05-08T09:49:47Z</time>
      </trkpt>
      <trkpt lat="44.70588" lon="3.85646">
        <ele>929.8</ele>
        <time>2013-05-08T09:49:53Z</time>
      </trkpt>
      <trkpt lat="44.7058" lon="3.85647">
        <ele>928.3</ele>
        <time>2013-05-08T09:50:00Z</time>
      </trkpt>
      <trkpt lat="44.70579" lon="3.85647">
        <ele>928.1</ele>
        <time>2013-05-08T09:50:01Z</time>
      </trkpt>
      <trkpt lat="44.70564" lon="3.85652">
        <ele>926.3</ele>
        <time>2013-05-08T09:50:12Z</time>
      </trkpt>
      <trkpt lat="44.70556" lon="3.85653">
        <ele>924.9</ele>
        <time>2013-05-08T09:50:19Z</time>
      </trkpt>
      <trkpt lat="44.70549" lon="3.85656">
        <ele>924.1</ele>
        <time>2013-05-08T09:50:24Z</time>
      </trkpt>
      <trkpt lat="44.7054" lon="3.85659">
        <ele>922.8</ele>
        <time>2013-05-08T09:50:32Z</time>
      </trkpt>
      <trkpt lat="44.70533" lon="3.85661">
        <ele>921.9</ele>
        <time>2013-05-08T09:50:37Z</time>
      </trkpt>
      <trkpt lat="44.70525" lon="3.85664">
        <ele>921</ele>
        <time>2013-05-08T09:50:42Z</time>
      </trkpt>
      <trkpt lat="44.70517" lon="3.85666">
        <ele>919.6</ele>
        <time>2013-05-08T09:50:48Z</time>
      </trkpt>
      <trkpt lat="44.70508" lon="3.85666">
        <ele>918.7</ele>
        <time>2013-05-08T09:50:57Z</time>
      </trkpt>
      <trkpt lat="44.705" lon="3.85669">
        <ele>917.6</ele>
        <time>2013-05-08T09:51:04Z</time>
      </trkpt>
      <trkpt lat="44.70499" lon="3.85669">
        <ele>917.4</ele>
        <time>2013-05-08T09:51:05Z</time>
      </trkpt>
      <trkpt lat="44.70483" lon="3.85672">
        <ele>916.1</ele>
        <time>2013-05-08T09:51:21Z</time>
      </trkpt>
      <trkpt lat="44.70475" lon="3.85675">
        <ele>915.6</ele>
        <time>2013-05-08T09:51:27Z</time>
      </trkpt>
      <trkpt lat="44.70467" lon="3.85673">
        <ele>915.8</ele>
        <time>2013-05-08T09:51:37Z</time>
      </trkpt>
      <trkpt lat="44.70459" lon="3.85677">
        <ele>915.6</ele>
        <time>2013-05-08T09:51:44Z</time>
      </trkpt>
      <trkpt lat="44.70451" lon="3.85676">
        <ele>915.5</ele>
        <time>2013-05-08T09:51:51Z</time>
      </trkpt>
      <trkpt lat="44.70442" lon="3.85675">
        <ele>915.5</ele>
        <time>2013-05-08T09:51:59Z</time>
      </trkpt>
      <trkpt lat="44.70434" lon="3.85672">
        <ele>916.4</ele>
        <time>2013-05-08T09:52:07Z</time>
      </trkpt>
      <trkpt lat="44.70433" lon="3.85672">
        <ele>916.5</ele>
        <time>2013-05-08T09:52:08Z</time>
      </trkpt>
      <trkpt lat="44.70417" lon="3.85674">
        <ele>916.4</ele>
        <time>2013-05-08T09:52:24Z</time>
      </trkpt>
      <trkpt lat="44.70409" lon="3.85675">
        <ele>916.6</ele>
        <time>2013-05-08T09:52:32Z</time>
      </trkpt>
      <trkpt lat="44.704" lon="3.85676">
        <ele>917</ele>
        <time>2013-05-08T09:52:41Z</time>
      </trkpt>
      <trkpt lat="44.70392" lon="3.85672">
        <ele>917.3</ele>
        <time>2013-05-08T09:52:49Z</time>
      </trkpt>
      <trkpt lat="44.70384" lon="3.85669">
        <ele>918.1</ele>
        <time>2013-05-08T09:52:58Z</time>
      </trkpt>
      <trkpt lat="44.70376" lon="3.85672">
        <ele>918.5</ele>
        <time>2013-05-08T09:53:08Z</time>
      </trkpt>
      <trkpt lat="44.70375" lon="3.85673">
        <ele>918.5</ele>
        <time>2013-05-08T09:53:09Z</time>
      </trkpt>
      <trkpt lat="44.7036" lon="3.85677">
        <ele>919.8</ele>
        <time>2013-05-08T09:53:24Z</time>
      </trkpt>
      <trkpt lat="44.70351" lon="3.8568">
        <ele>920.3</ele>
        <time>2013-05-08T09:53:32Z</time>
      </trkpt>
      <trkpt lat="44.70342" lon="3.85683">
        <ele>920.8</ele>
        <time>2013-05-08T09:53:41Z</time>
      </trkpt>
      <trkpt lat="44.70334" lon="3.85686">
        <ele>921.3</ele>
        <time>2013-05-08T09:53:49Z</time>
      </trkpt>
      <trkpt lat="44.70325" lon="3.85688">
        <ele>921.7</ele>
        <time>2013-05-08T09:53:57Z</time>
      </trkpt>
      <trkpt lat="44.70316" lon="3.8569">
        <ele>922</ele>
        <time>2013-05-08T09:54:05Z</time>
      </trkpt>
      <trkpt lat="44.70308" lon="3.85692">
        <ele>922.3</ele>
        <time>2013-05-08T09:54:14Z</time>
      </trkpt>
      <trkpt lat="44.70307" lon="3.85692">
        <ele>922.3</ele>
        <time>2013-05-08T09:54:15Z</time>
      </trkpt>
      <trkpt lat="44.70292" lon="3.85696">
        <ele>923.3</ele>
        <time>2013-05-08T09:54:30Z</time>
      </trkpt>
      <trkpt lat="44.70283" lon="3.85701">
        <ele>924</ele>
        <time>2013-05-08T09:54:39Z</time>
      </trkpt>
      <trkpt lat="44.70275" lon="3.85704">
        <ele>924.8</ele>
        <time>2013-05-08T09:54:47Z</time>
      </trkpt>
      <trkpt lat="44.70267" lon="3.85707">
        <ele>925.3</ele>
        <time>2013-05-08T09:54:54Z</time>
      </trkpt>
      <trkpt lat="44.70259" lon="3.85711">
        <ele>926.2</ele>
        <time>2013-05-08T09:55:02Z</time>
      </trkpt>
      <trkpt lat="44.70251" lon="3.85715">
        <ele>926.5</ele>
        <time>2013-05-08T09:55:10Z</time>
      </trkpt>
      <trkpt lat="44.70244" lon="3.85721">
        <ele>926.9</ele>
        <time>2013-05-08T09:55:18Z</time>
      </trkpt>
      <trkpt lat="44.70243" lon="3.85722">
        <ele>926.9</ele>
        <time>2013-05-08T09:55:19Z</time>
      </trkpt>
      <trkpt lat="44.70226" lon="3.85724">
        <ele>928</ele>
        <time>2013-05-08T09:55:37Z</time>
      </trkpt>
      <trkpt lat="44.70219" lon="3.85727">
        <ele>928.8</ele>
        <time>2013-05-08T09:55:45Z</time>
      </trkpt>
      <trkpt lat="44.70211" lon="3.85732">
        <ele>929.5</ele>
        <time>2013-05-08T09:55:53Z</time>
      </trkpt>
      <trkpt lat="44.70203" lon="3.85735">
        <ele>930.1</ele>
        <time>2013-05-08T09:56:00Z</time>
      </trkpt>
      <trkpt lat="44.70195" lon="3.85739">
        <ele>930.6</ele>
        <time>2013-05-08T09:56:07Z</time>
      </trkpt>
      <trkpt lat="44.70186" lon="3.85741">
        <ele>931.4</ele>
        <time>2013-05-08T09:56:16Z</time>
      </trkpt>
      <trkpt lat="44.70179" lon="3.85745">
        <ele>932</ele>
        <time>2013-05-08T09:56:23Z</time>
      </trkpt>
      <trkpt lat="44.70178" lon="3.85746">
        <ele>932.1</ele>
        <time>2013-05-08T09:56:24Z</time>
      </trkpt>
      <trkpt lat="44.70162" lon="3.85748">
        <ele>933.2</ele>
        <time>2013-05-08T09:56:38Z</time>
      </trkpt>
      <trkpt lat="44.70154" lon="3.85751">
        <ele>934.1</ele>
        <time>2013-05-08T09:56:45Z</time>
      </trkpt>
      <trkpt lat="44.70146" lon="3.85753">
        <ele>935</ele>
        <time>2013-05-08T09:56:52Z</time>
      </trkpt>
      <trkpt lat="44.70138" lon="3.85755">
        <ele>935.8</ele>
        <time>2013-05-08T09:56:59Z</time>
      </trkpt>
      <trkpt lat="44.70129" lon="3.85759">
        <ele>936.4</ele>
        <time>2013-05-08T09:57:06Z</time>
      </trkpt>
      <trkpt lat="44.70121" lon="3.85762">
        <ele>937.5</ele>
        <time>2013-05-08T09:57:13Z</time>
      </trkpt>
      <trkpt lat="44.70113" lon="3.85765">
        <ele>937.7</ele>
        <time>2013-05-08T09:57:18Z</time>
      </trkpt>
      <trkpt lat="44.70106" lon="3.85769">
        <ele>938.1</ele>
        <time>2013-05-08T09:57:23Z</time>
      </trkpt>
      <trkpt lat="44.70097" lon="3.8577">
        <ele>939</ele>
        <time>2013-05-08T09:57:30Z</time>
      </trkpt>
      <trkpt lat="44.70096" lon="3.8577">
        <ele>939.1</ele>
        <time>2013-05-08T09:57:31Z</time>
      </trkpt>
      <trkpt lat="44.70081" lon="3.85775">
        <ele>940.6</ele>
        <time>2013-05-08T09:57:42Z</time>
      </trkpt>
      <trkpt lat="44.70072" lon="3.85777">
        <ele>941.7</ele>
        <time>2013-05-08T09:57:50Z</time>
      </trkpt>
      <trkpt lat="44.70064" lon="3.85776">
        <ele>943.2</ele>
        <time>2013-05-08T09:57:56Z</time>
      </trkpt>
      <trkpt lat="44.70056" lon="3.8578">
        <ele>944.4</ele>
        <time>2013-05-08T09:58:03Z</time>
      </trkpt>
      <trkpt lat="44.70048" lon="3.85784">
        <ele>947.5</ele>
        <time>2013-05-08T09:58:15Z</time>
      </trkpt>
      <trkpt lat="44.7004" lon="3.85784">
        <ele>948.5</ele>
        <time>2013-05-08T09:58:22Z</time>
      </trkpt>
      <trkpt lat="44.70032" lon="3.85787">
        <ele>949.2</ele>
        <time>2013-05-08T09:58:28Z</time>
      </trkpt>
      <trkpt lat="44.70024" lon="3.85789">
        <ele>949.8</ele>
        <time>2013-05-08T09:58:34Z</time>
      </trkpt>
      <trkpt lat="44.70023" lon="3.85789">
        <ele>950</ele>
        <time>2013-05-08T09:58:35Z</time>
      </trkpt>
      <trkpt lat="44.70008" lon="3.85792">
        <ele>951.5</ele>
        <time>2013-05-08T09:58:47Z</time>
      </trkpt>
      <trkpt lat="44.69999" lon="3.85795">
        <ele>951.9</ele>
        <time>2013-05-08T09:58:54Z</time>
      </trkpt>
      <trkpt lat="44.69991" lon="3.85797">
        <ele>952.3</ele>
        <time>2013-05-08T09:59:00Z</time>
      </trkpt>
      <trkpt lat="44.69982" lon="3.85798">
        <ele>952.8</ele>
        <time>2013-05-08T09:59:07Z</time>
      </trkpt>
      <trkpt lat="44.69974" lon="3.858">
        <ele>953.5</ele>
        <time>2013-05-08T09:59:15Z</time>
      </trkpt>
      <trkpt lat="44.69965" lon="3.85803">
        <ele>953.7</ele>
        <time>2013-05-08T09:59:22Z</time>
      </trkpt>
      <trkpt lat="44.69957" lon="3.85804">
        <ele>953.3</ele>
        <time>2013-05-08T09:59:28Z</time>
      </trkpt>
      <trkpt lat="44.69949" lon="3.85806">
        <ele>953</ele>
        <time>2013-05-08T09:59:34Z</time>
      </trkpt>
      <trkpt lat="44.6994" lon="3.85807">
        <ele>953.2</ele>
        <time>2013-05-08T09:59:41Z</time>
      </trkpt>
      <trkpt lat="44.69939" lon="3.85807">
        <ele>953.2</ele>
        <time>2013-05-08T09:59:42Z</time>
      </trkpt>
      <trkpt lat="44.69924" lon="3.85812">
        <ele>953.6</ele>
        <time>2013-05-08T09:59:55Z</time>
      </trkpt>
      <trkpt lat="44.69916" lon="3.85809">
        <ele>953.5</ele>
        <time>2013-05-08T10:00:15Z</time>
      </trkpt>
      <trkpt lat="44.69911" lon="3.858">
        <ele>953.3</ele>
        <time>2013-05-08T10:00:22Z</time>
      </trkpt>
      <trkpt lat="44.69903" lon="3.85793">
        <ele>953.6</ele>
        <time>2013-05-08T10:00:29Z</time>
      </trkpt>
      <trkpt lat="44.69897" lon="3.85787">
        <ele>954</ele>
        <time>2013-05-08T10:00:36Z</time>
      </trkpt>
      <trkpt lat="44.69891" lon="3.8578">
        <ele>954.4</ele>
        <time>2013-05-08T10:00:43Z</time>
      </trkpt>
      <trkpt lat="44.6989" lon="3.85778">
        <ele>954.5</ele>
        <time>2013-05-08T10:00:44Z</time>
      </trkpt>
      <trkpt lat="44.6988" lon="3.85761">
        <ele>955.2</ele>
        <time>2013-05-08T10:00:57Z</time>
      </trkpt>
      <trkpt lat="44.69875" lon="3.85752">
        <ele>955.4</ele>
        <time>2013-05-08T10:01:03Z</time>
      </trkpt>
      <trkpt lat="44.6987" lon="3.85742">
        <ele>956</ele>
        <time>2013-05-08T10:01:10Z</time>
      </trkpt>
      <trkpt lat="44.69866" lon="3.85732">
        <ele>956.7</ele>
        <time>2013-05-08T10:01:17Z</time>
      </trkpt>
      <trkpt lat="44.69861" lon="3.85723">
        <ele>957.4</ele>
        <time>2013-05-08T10:01:23Z</time>
      </trkpt>
      <trkpt lat="44.69855" lon="3.85715">
        <ele>958.6</ele>
        <time>2013-05-08T10:01:30Z</time>
      </trkpt>
      <trkpt lat="44.69849" lon="3.85707">
        <ele>959.6</ele>
        <time>2013-05-08T10:01:37Z</time>
      </trkpt>
      <trkpt lat="44.69844" lon="3.85697">
        <ele>961</ele>
        <time>2013-05-08T10:01:45Z</time>
      </trkpt>
      <trkpt lat="44.69843" lon="3.85696">
        <ele>961.3</ele>
        <time>2013-05-08T10:01:46Z</time>
      </trkpt>
      <trkpt lat="44.69832" lon="3.85682">
        <ele>963</ele>
        <time>2013-05-08T10:01:59Z</time>
      </trkpt>
      <trkpt lat="44.69826" lon="3.85674">
        <ele>963.7</ele>
        <time>2013-05-08T10:02:06Z</time>
      </trkpt>
      <trkpt lat="44.6982" lon="3.85667">
        <ele>964.4</ele>
        <time>2013-05-08T10:02:12Z</time>
      </trkpt>
      <trkpt lat="44.69815" lon="3.85658">
        <ele>964.9</ele>
        <time>2013-05-08T10:02:19Z</time>
      </trkpt>
      <trkpt lat="44.69809" lon="3.8565">
        <ele>965.8</ele>
        <time>2013-05-08T10:02:26Z</time>
      </trkpt>
      <trkpt lat="44.69803" lon="3.85643">
        <ele>966.9</ele>
        <time>2013-05-08T10:02:32Z</time>
      </trkpt>
      <trkpt lat="44.69798" lon="3.85635">
        <ele>967.6</ele>
        <time>2013-05-08T10:02:38Z</time>
      </trkpt>
      <trkpt lat="44.69792" lon="3.85627">
        <ele>968.4</ele>
        <time>2013-05-08T10:02:45Z</time>
      </trkpt>
      <trkpt lat="44.69785" lon="3.8562">
        <ele>969</ele>
        <time>2013-05-08T10:02:52Z</time>
      </trkpt>
      <trkpt lat="44.69784" lon="3.85619">
        <ele>969.1</ele>
        <time>2013-05-08T10:02:53Z</time>
      </trkpt>
      <trkpt lat="44.69773" lon="3.85604">
        <ele>971</ele>
        <time>2013-05-08T10:03:07Z</time>
      </trkpt>
      <trkpt lat="44.69767" lon="3.85597">
        <ele>971.9</ele>
        <time>2013-05-08T10:03:14Z</time>
      </trkpt>
      <trkpt lat="44.69761" lon="3.85588">
        <ele>972.8</ele>
        <time>2013-05-08T10:03:21Z</time>
      </trkpt>
      <trkpt lat="44.69757" lon="3.85578">
        <ele>973.7</ele>
        <time>2013-05-08T10:03:28Z</time>
      </trkpt>
      <trkpt lat="44.69752" lon="3.85569">
        <ele>974.5</ele>
        <time>2013-05-08T10:03:34Z</time>
      </trkpt>
      <trkpt lat="44.6975" lon="3.85558">
        <ele>975.1</ele>
        <time>2013-05-08T10:03:41Z</time>
      </trkpt>
      <trkpt lat="44.69746" lon="3.85547">
        <ele>975.4</ele>
        <time>2013-05-08T10:03:48Z</time>
      </trkpt>
      <trkpt lat="44.69743" lon="3.85536">
        <ele>975.7</ele>
        <time>2013-05-08T10:03:55Z</time>
      </trkpt>
      <trkpt lat="44.69743" lon="3.85535">
        <ele>975.8</ele>
        <time>2013-05-08T10:03:56Z</time>
      </trkpt>
      <trkpt lat="44.69738" lon="3.85514">
        <ele>977.1</ele>
        <time>2013-05-08T10:04:09Z</time>
      </trkpt>
      <trkpt lat="44.69734" lon="3.85503">
        <ele>978.4</ele>
        <time>2013-05-08T10:04:17Z</time>
      </trkpt>
      <trkpt lat="44.69729" lon="3.85492">
        <ele>980</ele>
        <time>2013-05-08T10:04:26Z</time>
      </trkpt>
      <trkpt lat="44.69726" lon="3.85482">
        <ele>981.8</ele>
        <time>2013-05-08T10:04:35Z</time>
      </trkpt>
      <trkpt lat="44.69722" lon="3.85471">
        <ele>983.5</ele>
        <time>2013-05-08T10:04:42Z</time>
      </trkpt>
      <trkpt lat="44.69717" lon="3.8546">
        <ele>984.9</ele>
        <time>2013-05-08T10:04:50Z</time>
      </trkpt>
      <trkpt lat="44.69714" lon="3.8545">
        <ele>985.8</ele>
        <time>2013-05-08T10:04:59Z</time>
      </trkpt>
      <trkpt lat="44.69713" lon="3.85449">
        <ele>985.9</ele>
        <time>2013-05-08T10:05:00Z</time>
      </trkpt>
      <trkpt lat="44.69705" lon="3.85429">
        <ele>987.7</ele>
        <time>2013-05-08T10:05:11Z</time>
      </trkpt>
      <trkpt lat="44.697" lon="3.8542">
        <ele>988.6</ele>
        <time>2013-05-08T10:05:18Z</time>
      </trkpt>
      <trkpt lat="44.69694" lon="3.85412">
        <ele>989.6</ele>
        <time>2013-05-08T10:05:26Z</time>
      </trkpt>
      <trkpt lat="44.6969" lon="3.85403">
        <ele>989.8</ele>
        <time>2013-05-08T10:05:32Z</time>
      </trkpt>
      <trkpt lat="44.69686" lon="3.85393">
        <ele>989.6</ele>
        <time>2013-05-08T10:05:38Z</time>
      </trkpt>
      <trkpt lat="44.69679" lon="3.85386">
        <ele>989.1</ele>
        <time>2013-05-08T10:06:18Z</time>
      </trkpt>
      <trkpt lat="44.69679" lon="3.85386">
        <ele>989.1</ele>
        <time>2013-05-08T10:06:19Z</time>
      </trkpt>
      <trkpt lat="44.69667" lon="3.8537">
        <ele>989.1</ele>
        <time>2013-05-08T10:06:34Z</time>
      </trkpt>
      <trkpt lat="44.69661" lon="3.85362">
        <ele>989</ele>
        <time>2013-05-08T10:06:40Z</time>
      </trkpt>
      <trkpt lat="44.69654" lon="3.85356">
        <ele>989.2</ele>
        <time>2013-05-08T10:06:46Z</time>
      </trkpt>
      <trkpt lat="44.69647" lon="3.85349">
        <ele>989.2</ele>
        <time>2013-05-08T10:06:54Z</time>
      </trkpt>
      <trkpt lat="44.69642" lon="3.85339">
        <ele>989</ele>
        <time>2013-05-08T10:07:01Z</time>
      </trkpt>
      <trkpt lat="44.69638" lon="3.85328">
        <ele>989.2</ele>
        <time>2013-05-08T10:07:08Z</time>
      </trkpt>
      <trkpt lat="44.69634" lon="3.85318">
        <ele>990</ele>
        <time>2013-05-08T10:08:01Z</time>
      </trkpt>
      <trkpt lat="44.69634" lon="3.85317">
        <ele>990</ele>
        <time>2013-05-08T10:08:02Z</time>
      </trkpt>
      <trkpt lat="44.69636" lon="3.8533">
        <ele>989.1</ele>
        <time>2013-05-08T10:14:56Z</time>
      </trkpt>
      <trkpt lat="44.69641" lon="3.8532">
        <ele>989.3</ele>
        <time>2013-05-08T10:15:47Z</time>
      </trkpt>
      <trkpt lat="44.69645" lon="3.85309">
        <ele>989.4</ele>
        <time>2013-05-08T10:15:54Z</time>
      </trkpt>
      <trkpt lat="44.69651" lon="3.853">
        <ele>989.3</ele>
        <time>2013-05-08T10:16:02Z</time>
      </trkpt>
      <trkpt lat="44.69652" lon="3.85299">
        <ele>989.3</ele>
        <time>2013-05-08T10:16:03Z</time>
      </trkpt>
      <trkpt lat="44.69662" lon="3.85283">
        <ele>989.4</ele>
        <time>2013-05-08T10:16:16Z</time>
      </trkpt>
      <trkpt lat="44.69667" lon="3.85273">
        <ele>989.6</ele>
        <time>2013-05-08T10:16:22Z</time>
      </trkpt>
      <trkpt lat="44.6967" lon="3.85262">
        <ele>989.9</ele>
        <time>2013-05-08T10:16:29Z</time>
      </trkpt>
      <trkpt lat="44.69674" lon="3.85252">
        <ele>990</ele>
        <time>2013-05-08T10:16:37Z</time>
      </trkpt>
      <trkpt lat="44.69678" lon="3.8524">
        <ele>990</ele>
        <time>2013-05-08T10:16:44Z</time>
      </trkpt>
      <trkpt lat="44.69681" lon="3.8523">
        <ele>989.7</ele>
        <time>2013-05-08T10:16:51Z</time>
      </trkpt>
      <trkpt lat="44.69685" lon="3.85219">
        <ele>989.5</ele>
        <time>2013-05-08T10:16:57Z</time>
      </trkpt>
      <trkpt lat="44.69691" lon="3.85211">
        <ele>989.5</ele>
        <time>2013-05-08T10:17:03Z</time>
      </trkpt>
      <trkpt lat="44.69692" lon="3.8521">
        <ele>989.5</ele>
        <time>2013-05-08T10:17:04Z</time>
      </trkpt>
      <trkpt lat="44.69705" lon="3.85199">
        <ele>989.2</ele>
        <time>2013-05-08T10:17:16Z</time>
      </trkpt>
      <trkpt lat="44.69713" lon="3.85193">
        <ele>989.1</ele>
        <time>2013-05-08T10:17:22Z</time>
      </trkpt>
      <trkpt lat="44.6972" lon="3.85191">
        <ele>989</ele>
        <time>2013-05-08T10:17:27Z</time>
      </trkpt>
      <trkpt lat="44.69727" lon="3.85184">
        <ele>988.8</ele>
        <time>2013-05-08T10:17:33Z</time>
      </trkpt>
      <trkpt lat="44.69734" lon="3.85176">
        <ele>988.7</ele>
        <time>2013-05-08T10:17:39Z</time>
      </trkpt>
      <trkpt lat="44.69741" lon="3.85168">
        <ele>988.4</ele>
        <time>2013-05-08T10:17:46Z</time>
      </trkpt>
      <trkpt lat="44.69749" lon="3.85163">
        <ele>988</ele>
        <time>2013-05-08T10:17:52Z</time>
      </trkpt>
      <trkpt lat="44.69756" lon="3.85155">
        <ele>987.1</ele>
        <time>2013-05-08T10:17:59Z</time>
      </trkpt>
      <trkpt lat="44.69763" lon="3.8515">
        <ele>986.1</ele>
        <time>2013-05-08T10:18:07Z</time>
      </trkpt>
      <trkpt lat="44.69765" lon="3.8515">
        <ele>986</ele>
        <time>2013-05-08T10:18:08Z</time>
      </trkpt>
      <trkpt lat="44.69779" lon="3.85145">
        <ele>985</ele>
        <time>2013-05-08T10:18:20Z</time>
      </trkpt>
      <trkpt lat="44.69787" lon="3.85144">
        <ele>984.7</ele>
        <time>2013-05-08T10:18:26Z</time>
      </trkpt>
      <trkpt lat="44.69794" lon="3.85137">
        <ele>985.2</ele>
        <time>2013-05-08T10:18:32Z</time>
      </trkpt>
      <trkpt lat="44.69798" lon="3.85128">
        <ele>984.7</ele>
        <time>2013-05-08T10:18:38Z</time>
      </trkpt>
      <trkpt lat="44.69804" lon="3.85121">
        <ele>984.7</ele>
        <time>2013-05-08T10:18:44Z</time>
      </trkpt>
      <trkpt lat="44.69808" lon="3.85111">
        <ele>984.9</ele>
        <time>2013-05-08T10:18:50Z</time>
      </trkpt>
      <trkpt lat="44.6981" lon="3.85099">
        <ele>985.6</ele>
        <time>2013-05-08T10:18:56Z</time>
      </trkpt>
      <trkpt lat="44.69812" lon="3.85088">
        <ele>986.3</ele>
        <time>2013-05-08T10:19:02Z</time>
      </trkpt>
      <trkpt lat="44.69815" lon="3.85077">
        <ele>986.6</ele>
        <time>2013-05-08T10:19:09Z</time>
      </trkpt>
      <trkpt lat="44.69815" lon="3.85075">
        <ele>986.7</ele>
        <time>2013-05-08T10:19:10Z</time>
      </trkpt>
      <trkpt lat="44.69817" lon="3.85054">
        <ele>987.2</ele>
        <time>2013-05-08T10:19:22Z</time>
      </trkpt>
      <trkpt lat="44.69816" lon="3.85042">
        <ele>987.6</ele>
        <time>2013-05-08T10:19:28Z</time>
      </trkpt>
      <trkpt lat="44.69817" lon="3.8503">
        <ele>988.6</ele>
        <time>2013-05-08T10:19:34Z</time>
      </trkpt>
      <trkpt lat="44.6982" lon="3.85019">
        <ele>989.5</ele>
        <time>2013-05-08T10:19:42Z</time>
      </trkpt>
      <trkpt lat="44.69823" lon="3.85009">
        <ele>989.9</ele>
        <time>2013-05-08T10:19:48Z</time>
      </trkpt>
      <trkpt lat="44.69827" lon="3.85">
        <ele>990.1</ele>
        <time>2013-05-08T10:19:54Z</time>
      </trkpt>
      <trkpt lat="44.69832" lon="3.8499">
        <ele>990.6</ele>
        <time>2013-05-08T10:20:01Z</time>
      </trkpt>
      <trkpt lat="44.69836" lon="3.8498">
        <ele>991.4</ele>
        <time>2013-05-08T10:20:08Z</time>
      </trkpt>
      <trkpt lat="44.69841" lon="3.84969">
        <ele>991.9</ele>
        <time>2013-05-08T10:20:15Z</time>
      </trkpt>
      <trkpt lat="44.69841" lon="3.84967">
        <ele>991.9</ele>
        <time>2013-05-08T10:20:16Z</time>
      </trkpt>
      <trkpt lat="44.69847" lon="3.84947">
        <ele>991.9</ele>
        <time>2013-05-08T10:20:27Z</time>
      </trkpt>
      <trkpt lat="44.6985" lon="3.84937">
        <ele>992.1</ele>
        <time>2013-05-08T10:20:32Z</time>
      </trkpt>
      <trkpt lat="44.69853" lon="3.84927">
        <ele>992.3</ele>
        <time>2013-05-08T10:20:39Z</time>
      </trkpt>
      <trkpt lat="44.69855" lon="3.84915">
        <ele>993</ele>
        <time>2013-05-08T10:20:46Z</time>
      </trkpt>
      <trkpt lat="44.69858" lon="3.84903">
        <ele>993.7</ele>
        <time>2013-05-08T10:20:54Z</time>
      </trkpt>
      <trkpt lat="44.69858" lon="3.84892">
        <ele>994.2</ele>
        <time>2013-05-08T10:21:00Z</time>
      </trkpt>
      <trkpt lat="44.69861" lon="3.84881">
        <ele>994.4</ele>
        <time>2013-05-08T10:21:06Z</time>
      </trkpt>
      <trkpt lat="44.69862" lon="3.8487">
        <ele>994.4</ele>
        <time>2013-05-08T10:21:11Z</time>
      </trkpt>
      <trkpt lat="44.69864" lon="3.84859">
        <ele>993.9</ele>
        <time>2013-05-08T10:21:17Z</time>
      </trkpt>
      <trkpt lat="44.69864" lon="3.84857">
        <ele>993.6</ele>
        <time>2013-05-08T10:21:18Z</time>
      </trkpt>
      <trkpt lat="44.69868" lon="3.84836">
        <ele>990.2</ele>
        <time>2013-05-08T10:21:36Z</time>
      </trkpt>
      <trkpt lat="44.69871" lon="3.84825">
        <ele>990</ele>
        <time>2013-05-08T10:21:43Z</time>
      </trkpt>
      <trkpt lat="44.69872" lon="3.84814">
        <ele>989.8</ele>
        <time>2013-05-08T10:21:48Z</time>
      </trkpt>
      <trkpt lat="44.69875" lon="3.84803">
        <ele>989.5</ele>
        <time>2013-05-08T10:21:54Z</time>
      </trkpt>
      <trkpt lat="44.69876" lon="3.84792">
        <ele>989.2</ele>
        <time>2013-05-08T10:22:01Z</time>
      </trkpt>
      <trkpt lat="44.69878" lon="3.8478">
        <ele>989.1</ele>
        <time>2013-05-08T10:22:07Z</time>
      </trkpt>
      <trkpt lat="44.6988" lon="3.84768">
        <ele>987.2</ele>
        <time>2013-05-08T10:22:32Z</time>
      </trkpt>
      <trkpt lat="44.6988" lon="3.84767">
        <ele>987.1</ele>
        <time>2013-05-08T10:22:33Z</time>
      </trkpt>
      <trkpt lat="44.69882" lon="3.84745">
        <ele>986.3</ele>
        <time>2013-05-08T10:22:45Z</time>
      </trkpt>
      <trkpt lat="44.69883" lon="3.84734">
        <ele>985.9</ele>
        <time>2013-05-08T10:22:51Z</time>
      </trkpt>
      <trkpt lat="44.69883" lon="3.84723">
        <ele>985.6</ele>
        <time>2013-05-08T10:22:57Z</time>
      </trkpt>
      <trkpt lat="44.69883" lon="3.84711">
        <ele>985.4</ele>
        <time>2013-05-08T10:23:04Z</time>
      </trkpt>
      <trkpt lat="44.69883" lon="3.84701">
        <ele>985</ele>
        <time>2013-05-08T10:23:09Z</time>
      </trkpt>
      <trkpt lat="44.69883" lon="3.8469">
        <ele>984.6</ele>
        <time>2013-05-08T10:23:15Z</time>
      </trkpt>
      <trkpt lat="44.69882" lon="3.84678">
        <ele>984.3</ele>
        <time>2013-05-08T10:23:22Z</time>
      </trkpt>
      <trkpt lat="44.69882" lon="3.84666">
        <ele>983.8</ele>
        <time>2013-05-08T10:23:33Z</time>
      </trkpt>
      <trkpt lat="44.69882" lon="3.84664">
        <ele>983.6</ele>
        <time>2013-05-08T10:23:34Z</time>
      </trkpt>
      <trkpt lat="44.69879" lon="3.84643">
        <ele>980.6</ele>
        <time>2013-05-08T10:23:55Z</time>
      </trkpt>
      <trkpt lat="44.69875" lon="3.84632">
        <ele>978.3</ele>
        <time>2013-05-08T10:24:23Z</time>
      </trkpt>
      <trkpt lat="44.69873" lon="3.84621">
        <ele>977.6</ele>
        <time>2013-05-08T10:24:32Z</time>
      </trkpt>
      <trkpt lat="44.69871" lon="3.84609">
        <ele>977</ele>
        <time>2013-05-08T10:24:39Z</time>
      </trkpt>
      <trkpt lat="44.6987" lon="3.84608">
        <ele>976.9</ele>
        <time>2013-05-08T10:24:40Z</time>
      </trkpt>
      <trkpt lat="44.69867" lon="3.84586">
        <ele>976</ele>
        <time>2013-05-08T10:24:54Z</time>
      </trkpt>
      <trkpt lat="44.6987" lon="3.84573">
        <ele>975.8</ele>
        <time>2013-05-08T10:25:03Z</time>
      </trkpt>
      <trkpt lat="44.69873" lon="3.84562">
        <ele>975.3</ele>
        <time>2013-05-08T10:25:11Z</time>
      </trkpt>
      <trkpt lat="44.69876" lon="3.8455">
        <ele>975</ele>
        <time>2013-05-08T10:25:18Z</time>
      </trkpt>
      <trkpt lat="44.69881" lon="3.84541">
        <ele>974.8</ele>
        <time>2013-05-08T10:25:26Z</time>
      </trkpt>
      <trkpt lat="44.69885" lon="3.8453">
        <ele>974.4</ele>
        <time>2013-05-08T10:25:34Z</time>
      </trkpt>
      <trkpt lat="44.69889" lon="3.8452">
        <ele>973.6</ele>
        <time>2013-05-08T10:25:40Z</time>
      </trkpt>
      <trkpt lat="44.6989" lon="3.84519">
        <ele>973.6</ele>
        <time>2013-05-08T10:25:41Z</time>
      </trkpt>
      <trkpt lat="44.69897" lon="3.84499">
        <ele>972.7</ele>
        <time>2013-05-08T10:25:55Z</time>
      </trkpt>
      <trkpt lat="44.69902" lon="3.84488">
        <ele>972.4</ele>
        <time>2013-05-08T10:26:02Z</time>
      </trkpt>
      <trkpt lat="44.69905" lon="3.84477">
        <ele>972.1</ele>
        <time>2013-05-08T10:26:10Z</time>
      </trkpt>
      <trkpt lat="44.69903" lon="3.84465">
        <ele>971</ele>
        <time>2013-05-08T10:26:26Z</time>
      </trkpt>
      <trkpt lat="44.69906" lon="3.84454">
        <ele>970.8</ele>
        <time>2013-05-08T10:26:33Z</time>
      </trkpt>
      <trkpt lat="44.69905" lon="3.84442">
        <ele>970.9</ele>
        <time>2013-05-08T10:26:49Z</time>
      </trkpt>
      <trkpt lat="44.69905" lon="3.8444">
        <ele>970.9</ele>
        <time>2013-05-08T10:26:50Z</time>
      </trkpt>
      <trkpt lat="44.69913" lon="3.84421">
        <ele>970.4</ele>
        <time>2013-05-08T10:27:02Z</time>
      </trkpt>
      <trkpt lat="44.69918" lon="3.8441">
        <ele>969.7</ele>
        <time>2013-05-08T10:27:11Z</time>
      </trkpt>
      <trkpt lat="44.69922" lon="3.84399">
        <ele>969.4</ele>
        <time>2013-05-08T10:27:25Z</time>
      </trkpt>
      <trkpt lat="44.69926" lon="3.84388">
        <ele>969.6</ele>
        <time>2013-05-08T10:27:33Z</time>
      </trkpt>
      <trkpt lat="44.69929" lon="3.84377">
        <ele>969.5</ele>
        <time>2013-05-08T10:27:40Z</time>
      </trkpt>
      <trkpt lat="44.69934" lon="3.84367">
        <ele>969.1</ele>
        <time>2013-05-08T10:27:47Z</time>
      </trkpt>
      <trkpt lat="44.69938" lon="3.84358">
        <ele>968.9</ele>
        <time>2013-05-08T10:27:52Z</time>
      </trkpt>
      <trkpt lat="44.69938" lon="3.84356">
        <ele>968.9</ele>
        <time>2013-05-08T10:27:53Z</time>
      </trkpt>
      <trkpt lat="44.69943" lon="3.84336">
        <ele>969</ele>
        <time>2013-05-08T10:28:05Z</time>
      </trkpt>
      <trkpt lat="44.69945" lon="3.84324">
        <ele>969.3</ele>
        <time>2013-05-08T10:28:12Z</time>
      </trkpt>
      <trkpt lat="44.69946" lon="3.84312">
        <ele>969.7</ele>
        <time>2013-05-08T10:28:18Z</time>
      </trkpt>
      <trkpt lat="44.69947" lon="3.843">
        <ele>970.3</ele>
        <time>2013-05-08T10:28:25Z</time>
      </trkpt>
      <trkpt lat="44.69948" lon="3.84287">
        <ele>971.3</ele>
        <time>2013-05-08T10:28:32Z</time>
      </trkpt>
      <trkpt lat="44.69948" lon="3.84276">
        <ele>972.1</ele>
        <time>2013-05-08T10:28:39Z</time>
      </trkpt>
      <trkpt lat="44.69946" lon="3.84264">
        <ele>972.4</ele>
        <time>2013-05-08T10:28:44Z</time>
      </trkpt>
      <trkpt lat="44.69942" lon="3.84255">
        <ele>972.5</ele>
        <time>2013-05-08T10:28:49Z</time>
      </trkpt>
      <trkpt lat="44.6994" lon="3.84243">
        <ele>972.2</ele>
        <time>2013-05-08T10:28:56Z</time>
      </trkpt>
      <trkpt lat="44.6994" lon="3.84241">
        <ele>972.2</ele>
        <time>2013-05-08T10:28:57Z</time>
      </trkpt>
      <trkpt lat="44.69942" lon="3.84218">
        <ele>973.8</ele>
        <time>2013-05-08T10:29:11Z</time>
      </trkpt>
      <trkpt lat="44.6994" lon="3.84206">
        <ele>972.8</ele>
        <time>2013-05-08T10:29:41Z</time>
      </trkpt>
      <trkpt lat="44.69942" lon="3.84194">
        <ele>973</ele>
        <time>2013-05-08T10:29:47Z</time>
      </trkpt>
      <trkpt lat="44.69945" lon="3.84185">
        <ele>973</ele>
        <time>2013-05-08T10:29:53Z</time>
      </trkpt>
      <trkpt lat="44.69951" lon="3.84175">
        <ele>972.8</ele>
        <time>2013-05-08T10:29:59Z</time>
      </trkpt>
      <trkpt lat="44.69951" lon="3.84174">
        <ele>972.8</ele>
        <time>2013-05-08T10:30:00Z</time>
      </trkpt>
      <trkpt lat="44.69961" lon="3.84158">
        <ele>972.1</ele>
        <time>2013-05-08T10:30:12Z</time>
      </trkpt>
      <trkpt lat="44.69964" lon="3.84146">
        <ele>972.2</ele>
        <time>2013-05-08T10:30:21Z</time>
      </trkpt>
      <trkpt lat="44.69964" lon="3.84135">
        <ele>972.2</ele>
        <time>2013-05-08T10:30:29Z</time>
      </trkpt>
      <trkpt lat="44.69959" lon="3.84125">
        <ele>972.3</ele>
        <time>2013-05-08T10:30:35Z</time>
      </trkpt>
      <trkpt lat="44.69955" lon="3.84114">
        <ele>971.9</ele>
        <time>2013-05-08T10:30:47Z</time>
      </trkpt>
      <trkpt lat="44.69951" lon="3.84104">
        <ele>971.6</ele>
        <time>2013-05-08T10:30:54Z</time>
      </trkpt>
      <trkpt lat="44.69944" lon="3.84097">
        <ele>971.9</ele>
        <time>2013-05-08T10:30:59Z</time>
      </trkpt>
      <trkpt lat="44.69939" lon="3.84089">
        <ele>971.8</ele>
        <time>2013-05-08T10:31:05Z</time>
      </trkpt>
      <trkpt lat="44.69938" lon="3.84088">
        <ele>971.7</ele>
        <time>2013-05-08T10:31:06Z</time>
      </trkpt>
      <trkpt lat="44.69927" lon="3.84074">
        <ele>970.9</ele>
        <time>2013-05-08T10:31:19Z</time>
      </trkpt>
      <trkpt lat="44.69919" lon="3.84071">
        <ele>969.7</ele>
        <time>2013-05-08T10:31:26Z</time>
      </trkpt>
      <trkpt lat="44.6991" lon="3.84069">
        <ele>968.5</ele>
        <time>2013-05-08T10:31:32Z</time>
      </trkpt>
      <trkpt lat="44.69901" lon="3.84068">
        <ele>967.4</ele>
        <time>2013-05-08T10:31:39Z</time>
      </trkpt>
      <trkpt lat="44.69893" lon="3.84065">
        <ele>967.4</ele>
        <time>2013-05-08T10:31:47Z</time>
      </trkpt>
      <trkpt lat="44.69885" lon="3.84064">
        <ele>966.7</ele>
        <time>2013-05-08T10:31:53Z</time>
      </trkpt>
      <trkpt lat="44.69877" lon="3.84061">
        <ele>964.4</ele>
        <time>2013-05-08T10:32:00Z</time>
      </trkpt>
      <trkpt lat="44.69868" lon="3.84058">
        <ele>963.2</ele>
        <time>2013-05-08T10:32:07Z</time>
      </trkpt>
      <trkpt lat="44.69867" lon="3.84058">
        <ele>963</ele>
        <time>2013-05-08T10:32:08Z</time>
      </trkpt>
      <trkpt lat="44.69852" lon="3.84052">
        <ele>960.8</ele>
        <time>2013-05-08T10:32:21Z</time>
      </trkpt>
      <trkpt lat="44.69845" lon="3.84045">
        <ele>959.7</ele>
        <time>2013-05-08T10:32:27Z</time>
      </trkpt>
      <trkpt lat="44.69841" lon="3.84036">
        <ele>959.1</ele>
        <time>2013-05-08T10:32:34Z</time>
      </trkpt>
      <trkpt lat="44.69835" lon="3.84028">
        <ele>957.8</ele>
        <time>2013-05-08T10:32:41Z</time>
      </trkpt>
      <trkpt lat="44.69829" lon="3.84021">
        <ele>956.4</ele>
        <time>2013-05-08T10:32:48Z</time>
      </trkpt>
      <trkpt lat="44.69825" lon="3.84011">
        <ele>955.6</ele>
        <time>2013-05-08T10:32:56Z</time>
      </trkpt>
      <trkpt lat="44.6982" lon="3.84">
        <ele>954.7</ele>
        <time>2013-05-08T10:33:03Z</time>
      </trkpt>
      <trkpt lat="44.69817" lon="3.8399">
        <ele>954</ele>
        <time>2013-05-08T10:33:13Z</time>
      </trkpt>
      <trkpt lat="44.69817" lon="3.83989">
        <ele>954.1</ele>
        <time>2013-05-08T10:33:14Z</time>
      </trkpt>
      <trkpt lat="44.69805" lon="3.83973">
        <ele>952.4</ele>
        <time>2013-05-08T10:33:31Z</time>
      </trkpt>
      <trkpt lat="44.69798" lon="3.83964">
        <ele>951.3</ele>
        <time>2013-05-08T10:33:40Z</time>
      </trkpt>
      <trkpt lat="44.69791" lon="3.83958">
        <ele>950.3</ele>
        <time>2013-05-08T10:33:47Z</time>
      </trkpt>
      <trkpt lat="44.69785" lon="3.83951">
        <ele>949.3</ele>
        <time>2013-05-08T10:33:53Z</time>
      </trkpt>
      <trkpt lat="44.69778" lon="3.83943">
        <ele>948.4</ele>
        <time>2013-05-08T10:33:59Z</time>
      </trkpt>
      <trkpt lat="44.69772" lon="3.83934">
        <ele>948</ele>
        <time>2013-05-08T10:34:04Z</time>
      </trkpt>
      <trkpt lat="44.69768" lon="3.83925">
        <ele>947</ele>
        <time>2013-05-08T10:34:13Z</time>
      </trkpt>
      <trkpt lat="44.69762" lon="3.83916">
        <ele>946.2</ele>
        <time>2013-05-08T10:34:19Z</time>
      </trkpt>
      <trkpt lat="44.69761" lon="3.83915">
        <ele>946</ele>
        <time>2013-05-08T10:34:20Z</time>
      </trkpt>
      <trkpt lat="44.69753" lon="3.83896">
        <ele>945.2</ele>
        <time>2013-05-08T10:34:32Z</time>
      </trkpt>
      <trkpt lat="44.69747" lon="3.8389">
        <ele>944.3</ele>
        <time>2013-05-08T10:34:37Z</time>
      </trkpt>
      <trkpt lat="44.6974" lon="3.83882">
        <ele>943.1</ele>
        <time>2013-05-08T10:34:43Z</time>
      </trkpt>
      <trkpt lat="44.69734" lon="3.83873">
        <ele>940.4</ele>
        <time>2013-05-08T10:34:55Z</time>
      </trkpt>
      <trkpt lat="44.69728" lon="3.83866">
        <ele>939.2</ele>
        <time>2013-05-08T10:35:04Z</time>
      </trkpt>
      <trkpt lat="44.69724" lon="3.83855">
        <ele>938.1</ele>
        <time>2013-05-08T10:35:14Z</time>
      </trkpt>
      <trkpt lat="44.6972" lon="3.83845">
        <ele>936.8</ele>
        <time>2013-05-08T10:35:24Z</time>
      </trkpt>
      <trkpt lat="44.6972" lon="3.83844">
        <ele>936.7</ele>
        <time>2013-05-08T10:35:25Z</time>
      </trkpt>
      <trkpt lat="44.6971" lon="3.83826">
        <ele>934.4</ele>
        <time>2013-05-08T10:35:41Z</time>
      </trkpt>
      <trkpt lat="44.69707" lon="3.83815">
        <ele>933.2</ele>
        <time>2013-05-08T10:35:49Z</time>
      </trkpt>
      <trkpt lat="44.69712" lon="3.83806">
        <ele>932.1</ele>
        <time>2013-05-08T10:35:59Z</time>
      </trkpt>
      <trkpt lat="44.69717" lon="3.83795">
        <ele>931.3</ele>
        <time>2013-05-08T10:36:09Z</time>
      </trkpt>
      <trkpt lat="44.69713" lon="3.83785">
        <ele>930.7</ele>
        <time>2013-05-08T10:36:15Z</time>
      </trkpt>
      <trkpt lat="44.69708" lon="3.83776">
        <ele>928.4</ele>
        <time>2013-05-08T10:36:27Z</time>
      </trkpt>
      <trkpt lat="44.69707" lon="3.83776">
        <ele>928.2</ele>
        <time>2013-05-08T10:36:28Z</time>
      </trkpt>
      <trkpt lat="44.69692" lon="3.8377">
        <ele>925.1</ele>
        <time>2013-05-08T10:36:40Z</time>
      </trkpt>
      <trkpt lat="44.69683" lon="3.83767">
        <ele>923.8</ele>
        <time>2013-05-08T10:36:47Z</time>
      </trkpt>
      <trkpt lat="44.69676" lon="3.8377">
        <ele>922</ele>
        <time>2013-05-08T10:36:55Z</time>
      </trkpt>
      <trkpt lat="44.69668" lon="3.83764">
        <ele>920.1</ele>
        <time>2013-05-08T10:37:02Z</time>
      </trkpt>
      <trkpt lat="44.69663" lon="3.83754">
        <ele>918.4</ele>
        <time>2013-05-08T10:37:11Z</time>
      </trkpt>
      <trkpt lat="44.6966" lon="3.83742">
        <ele>916.4</ele>
        <time>2013-05-08T10:37:21Z</time>
      </trkpt>
      <trkpt lat="44.6966" lon="3.8373">
        <ele>914.3</ele>
        <time>2013-05-08T10:37:48Z</time>
      </trkpt>
      <trkpt lat="44.6966" lon="3.83729">
        <ele>914.3</ele>
        <time>2013-05-08T10:37:49Z</time>
      </trkpt>
      <trkpt lat="44.69661" lon="3.83708">
        <ele>913.3</ele>
        <time>2013-05-08T10:38:11Z</time>
      </trkpt>
      <trkpt lat="44.69666" lon="3.83705">
        <ele>907.8</ele>
        <time>2013-05-08T10:44:12Z</time>
      </trkpt>
      <trkpt lat="44.69668" lon="3.83699">
        <ele>909.6</ele>
        <time>2013-05-08T10:44:13Z</time>
      </trkpt>
      <trkpt lat="44.6967" lon="3.83699">
        <ele>902.9</ele>
        <time>2013-05-08T10:51:42Z</time>
      </trkpt>
      <trkpt lat="44.69678" lon="3.83701">
        <ele>905.2</ele>
        <time>2013-05-08T10:51:43Z</time>
      </trkpt>
      <trkpt lat="44.69671" lon="3.83697">
        <ele>905</ele>
        <time>2013-05-08T10:52:30Z</time>
      </trkpt>
      <trkpt lat="44.69663" lon="3.83698">
        <ele>905.5</ele>
        <time>2013-05-08T10:52:41Z</time>
      </trkpt>
      <trkpt lat="44.69669" lon="3.83689">
        <ele>907.1</ele>
        <time>2013-05-08T10:54:28Z</time>
      </trkpt>
      <trkpt lat="44.69669" lon="3.83688">
        <ele>907.1</ele>
        <time>2013-05-08T10:54:29Z</time>
      </trkpt>
      <trkpt lat="44.69671" lon="3.83701">
        <ele>909</ele>
        <time>2013-05-08T10:57:07Z</time>
      </trkpt>
      <trkpt lat="44.69667" lon="3.83688">
        <ele>906</ele>
        <time>2013-05-08T10:58:46Z</time>
      </trkpt>
      <trkpt lat="44.69661" lon="3.83694">
        <ele>910</ele>
        <time>2013-05-08T11:03:56Z</time>
      </trkpt>
      <trkpt lat="44.69671" lon="3.83684">
        <ele>913</ele>
        <time>2013-05-08T11:13:41Z</time>
      </trkpt>
      <trkpt lat="44.6968" lon="3.83666">
        <ele>913.8</ele>
        <time>2013-05-08T11:13:58Z</time>
      </trkpt>
      <trkpt lat="44.69683" lon="3.83654">
        <ele>914.3</ele>
        <time>2013-05-08T11:14:06Z</time>
      </trkpt>
      <trkpt lat="44.69681" lon="3.83643">
        <ele>914.7</ele>
        <time>2013-05-08T11:14:19Z</time>
      </trkpt>
      <trkpt lat="44.69672" lon="3.83639">
        <ele>914.6</ele>
        <time>2013-05-08T11:14:31Z</time>
      </trkpt>
      <trkpt lat="44.69666" lon="3.83631">
        <ele>914.7</ele>
        <time>2013-05-08T11:14:44Z</time>
      </trkpt>
      <trkpt lat="44.69665" lon="3.8363">
        <ele>914.7</ele>
        <time>2013-05-08T11:14:45Z</time>
      </trkpt>
      <trkpt lat="44.69651" lon="3.83619">
        <ele>913.9</ele>
        <time>2013-05-08T11:15:03Z</time>
      </trkpt>
      <trkpt lat="44.69646" lon="3.8361">
        <ele>913.5</ele>
        <time>2013-05-08T11:15:13Z</time>
      </trkpt>
      <trkpt lat="44.6964" lon="3.83601">
        <ele>913.1</ele>
        <time>2013-05-08T11:15:20Z</time>
      </trkpt>
      <trkpt lat="44.69633" lon="3.83595">
        <ele>912.7</ele>
        <time>2013-05-08T11:15:28Z</time>
      </trkpt>
      <trkpt lat="44.69629" lon="3.83585">
        <ele>912.2</ele>
        <time>2013-05-08T11:15:35Z</time>
      </trkpt>
      <trkpt lat="44.69623" lon="3.83575">
        <ele>911.4</ele>
        <time>2013-05-08T11:15:42Z</time>
      </trkpt>
      <trkpt lat="44.69618" lon="3.83565">
        <ele>910.8</ele>
        <time>2013-05-08T11:15:53Z</time>
      </trkpt>
      <trkpt lat="44.69618" lon="3.83564">
        <ele>910.8</ele>
        <time>2013-05-08T11:15:54Z</time>
      </trkpt>
      <trkpt lat="44.69623" lon="3.83548">
        <ele>909.4</ele>
        <time>2013-05-08T11:16:22Z</time>
      </trkpt>
      <trkpt lat="44.69619" lon="3.83538">
        <ele>909.3</ele>
        <time>2013-05-08T11:16:29Z</time>
      </trkpt>
      <trkpt lat="44.69615" lon="3.83527">
        <ele>909.2</ele>
        <time>2013-05-08T11:16:39Z</time>
      </trkpt>
      <trkpt lat="44.69608" lon="3.83524">
        <ele>908.9</ele>
        <time>2013-05-08T11:16:48Z</time>
      </trkpt>
      <trkpt lat="44.69603" lon="3.83516">
        <ele>908.9</ele>
        <time>2013-05-08T11:16:54Z</time>
      </trkpt>
      <trkpt lat="44.69602" lon="3.83514">
        <ele>908.8</ele>
        <time>2013-05-08T11:16:55Z</time>
      </trkpt>
      <trkpt lat="44.69595" lon="3.83497">
        <ele>908.1</ele>
        <time>2013-05-08T11:17:02Z</time>
      </trkpt>
      <trkpt lat="44.69593" lon="3.83487">
        <ele>907.6</ele>
        <time>2013-05-08T11:17:08Z</time>
      </trkpt>
      <trkpt lat="44.69589" lon="3.83477">
        <ele>907.2</ele>
        <time>2013-05-08T11:17:13Z</time>
      </trkpt>
      <trkpt lat="44.69585" lon="3.83467">
        <ele>906.9</ele>
        <time>2013-05-08T11:17:19Z</time>
      </trkpt>
      <trkpt lat="44.69586" lon="3.83455">
        <ele>906.1</ele>
        <time>2013-05-08T11:17:33Z</time>
      </trkpt>
      <trkpt lat="44.69592" lon="3.83446">
        <ele>905.8</ele>
        <time>2013-05-08T11:17:39Z</time>
      </trkpt>
      <trkpt lat="44.69599" lon="3.83439">
        <ele>902.5</ele>
        <time>2013-05-08T11:18:10Z</time>
      </trkpt>
      <trkpt lat="44.696" lon="3.83439">
        <ele>902.5</ele>
        <time>2013-05-08T11:18:11Z</time>
      </trkpt>
      <trkpt lat="44.69615" lon="3.83434">
        <ele>901.7</ele>
        <time>2013-05-08T11:18:21Z</time>
      </trkpt>
      <trkpt lat="44.69622" lon="3.83432">
        <ele>900.7</ele>
        <time>2013-05-08T11:18:27Z</time>
      </trkpt>
      <trkpt lat="44.6963" lon="3.8343">
        <ele>899.9</ele>
        <time>2013-05-08T11:18:33Z</time>
      </trkpt>
      <trkpt lat="44.69639" lon="3.83428">
        <ele>898.9</ele>
        <time>2013-05-08T11:18:40Z</time>
      </trkpt>
      <trkpt lat="44.69647" lon="3.83425">
        <ele>898.4</ele>
        <time>2013-05-08T11:18:46Z</time>
      </trkpt>
      <trkpt lat="44.69655" lon="3.83425">
        <ele>898.2</ele>
        <time>2013-05-08T11:18:52Z</time>
      </trkpt>
      <trkpt lat="44.69664" lon="3.83422">
        <ele>898.2</ele>
        <time>2013-05-08T11:19:01Z</time>
      </trkpt>
      <trkpt lat="44.69672" lon="3.83424">
        <ele>898.8</ele>
        <time>2013-05-08T11:19:10Z</time>
      </trkpt>
      <trkpt lat="44.6968" lon="3.83425">
        <ele>901.9</ele>
        <time>2013-05-08T11:19:17Z</time>
      </trkpt>
      <trkpt lat="44.69681" lon="3.83426">
        <ele>902.3</ele>
        <time>2013-05-08T11:19:18Z</time>
      </trkpt>
      <trkpt lat="44.69697" lon="3.83428">
        <ele>909.6</ele>
        <time>2013-05-08T11:19:38Z</time>
      </trkpt>
      <trkpt lat="44.69705" lon="3.83427">
        <ele>912.5</ele>
        <time>2013-05-08T11:19:46Z</time>
      </trkpt>
      <trkpt lat="44.69714" lon="3.83428">
        <ele>915.7</ele>
        <time>2013-05-08T11:19:56Z</time>
      </trkpt>
      <trkpt lat="44.69721" lon="3.83431">
        <ele>917.1</ele>
        <time>2013-05-08T11:20:02Z</time>
      </trkpt>
      <trkpt lat="44.6973" lon="3.83435">
        <ele>919.3</ele>
        <time>2013-05-08T11:20:07Z</time>
      </trkpt>
      <trkpt lat="44.69738" lon="3.83439">
        <ele>921.4</ele>
        <time>2013-05-08T11:20:18Z</time>
      </trkpt>
      <trkpt lat="44.69738" lon="3.83439">
        <ele>921.6</ele>
        <time>2013-05-08T11:20:19Z</time>
      </trkpt>
      <trkpt lat="44.69753" lon="3.83449">
        <ele>927.2</ele>
        <time>2013-05-08T11:20:42Z</time>
      </trkpt>
      <trkpt lat="44.6976" lon="3.83456">
        <ele>929</ele>
        <time>2013-05-08T11:20:48Z</time>
      </trkpt>
      <trkpt lat="44.69768" lon="3.83461">
        <ele>930.6</ele>
        <time>2013-05-08T11:21:04Z</time>
      </trkpt>
      <trkpt lat="44.69776" lon="3.83462">
        <ele>931.5</ele>
        <time>2013-05-08T11:21:13Z</time>
      </trkpt>
      <trkpt lat="44.69779" lon="3.8345">
        <ele>933.3</ele>
        <time>2013-05-08T11:21:50Z</time>
      </trkpt>
      <trkpt lat="44.69779" lon="3.83449">
        <ele>933.3</ele>
        <time>2013-05-08T11:21:51Z</time>
      </trkpt>
      <trkpt lat="44.69774" lon="3.83428">
        <ele>933</ele>
        <time>2013-05-08T11:22:07Z</time>
      </trkpt>
      <trkpt lat="44.69774" lon="3.83416">
        <ele>933.7</ele>
        <time>2013-05-08T11:22:15Z</time>
      </trkpt>
      <trkpt lat="44.69773" lon="3.83404">
        <ele>934.3</ele>
        <time>2013-05-08T11:22:24Z</time>
      </trkpt>
      <trkpt lat="44.6977" lon="3.83392">
        <ele>935</ele>
        <time>2013-05-08T11:22:34Z</time>
      </trkpt>
      <trkpt lat="44.69768" lon="3.83381">
        <ele>935.9</ele>
        <time>2013-05-08T11:22:42Z</time>
      </trkpt>
      <trkpt lat="44.69765" lon="3.83369">
        <ele>936.4</ele>
        <time>2013-05-08T11:22:51Z</time>
      </trkpt>
      <trkpt lat="44.69765" lon="3.83368">
        <ele>936.4</ele>
        <time>2013-05-08T11:22:52Z</time>
      </trkpt>
      <trkpt lat="44.69756" lon="3.83348">
        <ele>937.7</ele>
        <time>2013-05-08T11:23:37Z</time>
      </trkpt>
      <trkpt lat="44.69752" lon="3.83338">
        <ele>938.1</ele>
        <time>2013-05-08T11:23:44Z</time>
      </trkpt>
      <trkpt lat="44.69748" lon="3.83327">
        <ele>938.2</ele>
        <time>2013-05-08T11:23:52Z</time>
      </trkpt>
      <trkpt lat="44.69748" lon="3.83326">
        <ele>938.3</ele>
        <time>2013-05-08T11:23:53Z</time>
      </trkpt>
      <trkpt lat="44.69743" lon="3.83304">
        <ele>939.5</ele>
        <time>2013-05-08T11:24:08Z</time>
      </trkpt>
      <trkpt lat="44.69737" lon="3.833">
        <ele>940.2</ele>
        <time>2013-05-08T11:24:34Z</time>
      </trkpt>
      <trkpt lat="44.69736" lon="3.83288">
        <ele>940.7</ele>
        <time>2013-05-08T11:24:39Z</time>
      </trkpt>
      <trkpt lat="44.69734" lon="3.83276">
        <ele>941.3</ele>
        <time>2013-05-08T11:24:47Z</time>
      </trkpt>
      <trkpt lat="44.69735" lon="3.83264">
        <ele>942.1</ele>
        <time>2013-05-08T11:24:56Z</time>
      </trkpt>
      <trkpt lat="44.69735" lon="3.83262">
        <ele>942.1</ele>
        <time>2013-05-08T11:24:57Z</time>
      </trkpt>
      <trkpt lat="44.69729" lon="3.83253">
        <ele>945.6</ele>
        <time>2013-05-08T11:26:36Z</time>
      </trkpt>
      <trkpt lat="44.69723" lon="3.83236">
        <ele>947.6</ele>
        <time>2013-05-08T11:27:16Z</time>
      </trkpt>
      <trkpt lat="44.69723" lon="3.83225">
        <ele>947.8</ele>
        <time>2013-05-08T11:27:20Z</time>
      </trkpt>
      <trkpt lat="44.69719" lon="3.83214">
        <ele>948.5</ele>
        <time>2013-05-08T11:27:26Z</time>
      </trkpt>
      <trkpt lat="44.69713" lon="3.83206">
        <ele>949.9</ele>
        <time>2013-05-08T11:27:34Z</time>
      </trkpt>
      <trkpt lat="44.69707" lon="3.83198">
        <ele>950.7</ele>
        <time>2013-05-08T11:27:42Z</time>
      </trkpt>
      <trkpt lat="44.69707" lon="3.83197">
        <ele>950.9</ele>
        <time>2013-05-08T11:27:43Z</time>
      </trkpt>
      <trkpt lat="44.69696" lon="3.83182">
        <ele>952.5</ele>
        <time>2013-05-08T11:27:56Z</time>
      </trkpt>
      <trkpt lat="44.6969" lon="3.83173">
        <ele>953.4</ele>
        <time>2013-05-08T11:28:04Z</time>
      </trkpt>
      <trkpt lat="44.69684" lon="3.83166">
        <ele>954.4</ele>
        <time>2013-05-08T11:28:11Z</time>
      </trkpt>
      <trkpt lat="44.69678" lon="3.83157">
        <ele>955.6</ele>
        <time>2013-05-08T11:28:21Z</time>
      </trkpt>
      <trkpt lat="44.69674" lon="3.83148">
        <ele>956.9</ele>
        <time>2013-05-08T11:28:29Z</time>
      </trkpt>
      <trkpt lat="44.69669" lon="3.83139">
        <ele>957.6</ele>
        <time>2013-05-08T11:28:36Z</time>
      </trkpt>
      <trkpt lat="44.69664" lon="3.83128">
        <ele>958</ele>
        <time>2013-05-08T11:28:44Z</time>
      </trkpt>
      <trkpt lat="44.69663" lon="3.83127">
        <ele>958.1</ele>
        <time>2013-05-08T11:28:45Z</time>
      </trkpt>
      <trkpt lat="44.69653" lon="3.8311">
        <ele>959.1</ele>
        <time>2013-05-08T11:29:03Z</time>
      </trkpt>
      <trkpt lat="44.69646" lon="3.83102">
        <ele>959.6</ele>
        <time>2013-05-08T11:29:11Z</time>
      </trkpt>
      <trkpt lat="44.69643" lon="3.83091">
        <ele>960.9</ele>
        <time>2013-05-08T11:29:34Z</time>
      </trkpt>
      <trkpt lat="44.6964" lon="3.83081">
        <ele>961.5</ele>
        <time>2013-05-08T11:29:39Z</time>
      </trkpt>
      <trkpt lat="44.69636" lon="3.83071">
        <ele>961.8</ele>
        <time>2013-05-08T11:29:44Z</time>
      </trkpt>
      <trkpt lat="44.69632" lon="3.8306">
        <ele>962.7</ele>
        <time>2013-05-08T11:29:56Z</time>
      </trkpt>
      <trkpt lat="44.69632" lon="3.83059">
        <ele>962.8</ele>
        <time>2013-05-08T11:29:57Z</time>
      </trkpt>
      <trkpt lat="44.69622" lon="3.83043">
        <ele>964</ele>
        <time>2013-05-08T11:30:12Z</time>
      </trkpt>
      <trkpt lat="44.69617" lon="3.83033">
        <ele>965.8</ele>
        <time>2013-05-08T11:30:20Z</time>
      </trkpt>
      <trkpt lat="44.69614" lon="3.83021">
        <ele>966.8</ele>
        <time>2013-05-08T11:30:29Z</time>
      </trkpt>
      <trkpt lat="44.69612" lon="3.83009">
        <ele>967.7</ele>
        <time>2013-05-08T11:30:38Z</time>
      </trkpt>
      <trkpt lat="44.69611" lon="3.82997">
        <ele>969</ele>
        <time>2013-05-08T11:30:48Z</time>
      </trkpt>
      <trkpt lat="44.69612" lon="3.82985">
        <ele>971.4</ele>
        <time>2013-05-08T11:31:10Z</time>
      </trkpt>
      <trkpt lat="44.69612" lon="3.82982">
        <ele>971.6</ele>
        <time>2013-05-08T11:31:11Z</time>
      </trkpt>
      <trkpt lat="44.69614" lon="3.82963">
        <ele>972.4</ele>
        <time>2013-05-08T11:31:22Z</time>
      </trkpt>
      <trkpt lat="44.69615" lon="3.82951">
        <ele>973.3</ele>
        <time>2013-05-08T11:31:31Z</time>
      </trkpt>
      <trkpt lat="44.69614" lon="3.8294">
        <ele>973.7</ele>
        <time>2013-05-08T11:31:37Z</time>
      </trkpt>
      <trkpt lat="44.69613" lon="3.8293">
        <ele>974.1</ele>
        <time>2013-05-08T11:31:43Z</time>
      </trkpt>
      <trkpt lat="44.69611" lon="3.82918">
        <ele>975</ele>
        <time>2013-05-08T11:31:51Z</time>
      </trkpt>
      <trkpt lat="44.69609" lon="3.82907">
        <ele>975.7</ele>
        <time>2013-05-08T11:31:58Z</time>
      </trkpt>
      <trkpt lat="44.69608" lon="3.82896">
        <ele>976.9</ele>
        <time>2013-05-08T11:32:05Z</time>
      </trkpt>
      <trkpt lat="44.69605" lon="3.82886">
        <ele>978</ele>
        <time>2013-05-08T11:32:12Z</time>
      </trkpt>
      <trkpt lat="44.69604" lon="3.82884">
        <ele>978.1</ele>
        <time>2013-05-08T11:32:13Z</time>
      </trkpt>
      <trkpt lat="44.69599" lon="3.82863">
        <ele>979.7</ele>
        <time>2013-05-08T11:32:29Z</time>
      </trkpt>
      <trkpt lat="44.69598" lon="3.82852">
        <ele>980.7</ele>
        <time>2013-05-08T11:32:39Z</time>
      </trkpt>
      <trkpt lat="44.69598" lon="3.82841">
        <ele>981.9</ele>
        <time>2013-05-08T11:32:46Z</time>
      </trkpt>
      <trkpt lat="44.69596" lon="3.82829">
        <ele>982.7</ele>
        <time>2013-05-08T11:32:56Z</time>
      </trkpt>
      <trkpt lat="44.69595" lon="3.82818">
        <ele>983.6</ele>
        <time>2013-05-08T11:33:06Z</time>
      </trkpt>
      <trkpt lat="44.69594" lon="3.82806">
        <ele>985</ele>
        <time>2013-05-08T11:33:12Z</time>
      </trkpt>
      <trkpt lat="44.69593" lon="3.82794">
        <ele>985.5</ele>
        <time>2013-05-08T11:33:20Z</time>
      </trkpt>
      <trkpt lat="44.69592" lon="3.82793">
        <ele>985.6</ele>
        <time>2013-05-08T11:33:21Z</time>
      </trkpt>
      <trkpt lat="44.69588" lon="3.82771">
        <ele>988.1</ele>
        <time>2013-05-08T11:33:41Z</time>
      </trkpt>
      <trkpt lat="44.69585" lon="3.82759">
        <ele>989.5</ele>
        <time>2013-05-08T11:33:50Z</time>
      </trkpt>
      <trkpt lat="44.69582" lon="3.82748">
        <ele>990.9</ele>
        <time>2013-05-08T11:34:19Z</time>
      </trkpt>
      <trkpt lat="44.69587" lon="3.82738">
        <ele>990.2</ele>
        <time>2013-05-08T11:34:26Z</time>
      </trkpt>
      <trkpt lat="44.69587" lon="3.82737">
        <ele>990.2</ele>
        <time>2013-05-08T11:34:27Z</time>
      </trkpt>
      <trkpt lat="44.69586" lon="3.82714">
        <ele>991</ele>
        <time>2013-05-08T11:34:42Z</time>
      </trkpt>
      <trkpt lat="44.69585" lon="3.82702">
        <ele>991.7</ele>
        <time>2013-05-08T11:34:56Z</time>
      </trkpt>
      <trkpt lat="44.69586" lon="3.82691">
        <ele>992.4</ele>
        <time>2013-05-08T11:35:07Z</time>
      </trkpt>
      <trkpt lat="44.69588" lon="3.82678">
        <ele>993</ele>
        <time>2013-05-08T11:35:16Z</time>
      </trkpt>
      <trkpt lat="44.69591" lon="3.82667">
        <ele>993.2</ele>
        <time>2013-05-08T11:35:20Z</time>
      </trkpt>
      <trkpt lat="44.69593" lon="3.82655">
        <ele>993.6</ele>
        <time>2013-05-08T11:35:26Z</time>
      </trkpt>
      <trkpt lat="44.69593" lon="3.82654">
        <ele>993.7</ele>
        <time>2013-05-08T11:35:27Z</time>
      </trkpt>
      <trkpt lat="44.69593" lon="3.82633">
        <ele>993.6</ele>
        <time>2013-05-08T11:35:40Z</time>
      </trkpt>
      <trkpt lat="44.69594" lon="3.82621">
        <ele>993.7</ele>
        <time>2013-05-08T11:35:45Z</time>
      </trkpt>
      <trkpt lat="44.69593" lon="3.82609">
        <ele>994.4</ele>
        <time>2013-05-08T11:35:51Z</time>
      </trkpt>
      <trkpt lat="44.69593" lon="3.82598">
        <ele>994.9</ele>
        <time>2013-05-08T11:35:59Z</time>
      </trkpt>
      <trkpt lat="44.6959" lon="3.82586">
        <ele>995.7</ele>
        <time>2013-05-08T11:36:09Z</time>
      </trkpt>
      <trkpt lat="44.69586" lon="3.82576">
        <ele>996.4</ele>
        <time>2013-05-08T11:36:19Z</time>
      </trkpt>
      <trkpt lat="44.69579" lon="3.82569">
        <ele>996.5</ele>
        <time>2013-05-08T11:36:33Z</time>
      </trkpt>
      <trkpt lat="44.69578" lon="3.82567">
        <ele>996.5</ele>
        <time>2013-05-08T11:36:34Z</time>
      </trkpt>
      <trkpt lat="44.69578" lon="3.82564">
        <ele>1002.5</ele>
        <time>2013-05-08T11:40:39Z</time>
      </trkpt>
      <trkpt lat="44.69578" lon="3.82564">
        <ele>1002.5</ele>
        <time>2013-05-08T11:40:40Z</time>
      </trkpt>
      <trkpt lat="44.69562" lon="3.82567">
        <ele>1003.4</ele>
        <time>2013-05-08T11:40:59Z</time>
      </trkpt>
      <trkpt lat="44.69554" lon="3.82562">
        <ele>1003.9</ele>
        <time>2013-05-08T11:41:21Z</time>
      </trkpt>
      <trkpt lat="44.69548" lon="3.82556">
        <ele>1003.7</ele>
        <time>2013-05-08T11:41:27Z</time>
      </trkpt>
      <trkpt lat="44.69539" lon="3.82558">
        <ele>1003.3</ele>
        <time>2013-05-08T11:41:56Z</time>
      </trkpt>
      <trkpt lat="44.69539" lon="3.8256">
        <ele>1003</ele>
        <time>2013-05-08T11:41:57Z</time>
      </trkpt>
      <trkpt lat="44.69537" lon="3.82541">
        <ele>1003.5</ele>
        <time>2013-05-08T11:42:33Z</time>
      </trkpt>
      <trkpt lat="44.69529" lon="3.82541">
        <ele>1003.9</ele>
        <time>2013-05-08T11:42:38Z</time>
      </trkpt>
      <trkpt lat="44.69521" lon="3.8254">
        <ele>1004.5</ele>
        <time>2013-05-08T11:42:43Z</time>
      </trkpt>
      <trkpt lat="44.69513" lon="3.82536">
        <ele>1004.7</ele>
        <time>2013-05-08T11:42:49Z</time>
      </trkpt>
      <trkpt lat="44.69505" lon="3.82532">
        <ele>1004.6</ele>
        <time>2013-05-08T11:42:55Z</time>
      </trkpt>
      <trkpt lat="44.69497" lon="3.82528">
        <ele>1004.9</ele>
        <time>2013-05-08T11:43:05Z</time>
      </trkpt>
      <trkpt lat="44.69496" lon="3.82528">
        <ele>1005</ele>
        <time>2013-05-08T11:43:06Z</time>
      </trkpt>
      <trkpt lat="44.69481" lon="3.82521">
        <ele>1004.9</ele>
        <time>2013-05-08T11:43:18Z</time>
      </trkpt>
      <trkpt lat="44.69473" lon="3.82517">
        <ele>1005.6</ele>
        <time>2013-05-08T11:43:28Z</time>
      </trkpt>
      <trkpt lat="44.69466" lon="3.8251">
        <ele>1005.7</ele>
        <time>2013-05-08T11:43:36Z</time>
      </trkpt>
      <trkpt lat="44.69458" lon="3.82504">
        <ele>1005.6</ele>
        <time>2013-05-08T11:43:46Z</time>
      </trkpt>
      <trkpt lat="44.69451" lon="3.82499">
        <ele>1005.1</ele>
        <time>2013-05-08T11:43:52Z</time>
      </trkpt>
      <trkpt lat="44.69444" lon="3.82492">
        <ele>1004.9</ele>
        <time>2013-05-08T11:43:57Z</time>
      </trkpt>
      <trkpt lat="44.69437" lon="3.82486">
        <ele>1004.5</ele>
        <time>2013-05-08T11:44:06Z</time>
      </trkpt>
      <trkpt lat="44.69436" lon="3.82485">
        <ele>1004.5</ele>
        <time>2013-05-08T11:44:07Z</time>
      </trkpt>
      <trkpt lat="44.69422" lon="3.82476">
        <ele>1004.2</ele>
        <time>2013-05-08T11:44:22Z</time>
      </trkpt>
      <trkpt lat="44.69415" lon="3.82474">
        <ele>1004</ele>
        <time>2013-05-08T11:44:28Z</time>
      </trkpt>
      <trkpt lat="44.69407" lon="3.82469">
        <ele>1004.3</ele>
        <time>2013-05-08T11:44:35Z</time>
      </trkpt>
      <trkpt lat="44.69399" lon="3.82466">
        <ele>1004.9</ele>
        <time>2013-05-08T11:44:42Z</time>
      </trkpt>
      <trkpt lat="44.69393" lon="3.82456">
        <ele>1004.2</ele>
        <time>2013-05-08T11:44:52Z</time>
      </trkpt>
      <trkpt lat="44.69388" lon="3.82447">
        <ele>1003.8</ele>
        <time>2013-05-08T11:44:59Z</time>
      </trkpt>
      <trkpt lat="44.69382" lon="3.82443">
        <ele>1003.1</ele>
        <time>2013-05-08T11:45:03Z</time>
      </trkpt>
      <trkpt lat="44.69375" lon="3.82438">
        <ele>1002.4</ele>
        <time>2013-05-08T11:45:08Z</time>
      </trkpt>
      <trkpt lat="44.69374" lon="3.82436">
        <ele>1002.2</ele>
        <time>2013-05-08T11:45:09Z</time>
      </trkpt>
      <trkpt lat="44.69365" lon="3.82419">
        <ele>1001.1</ele>
        <time>2013-05-08T11:45:21Z</time>
      </trkpt>
      <trkpt lat="44.69358" lon="3.8241">
        <ele>1000.1</ele>
        <time>2013-05-08T11:45:28Z</time>
      </trkpt>
      <trkpt lat="44.69354" lon="3.82399">
        <ele>999.1</ele>
        <time>2013-05-08T11:45:34Z</time>
      </trkpt>
      <trkpt lat="44.69348" lon="3.82393">
        <ele>998.1</ele>
        <time>2013-05-08T11:45:40Z</time>
      </trkpt>
      <trkpt lat="44.69343" lon="3.82384">
        <ele>997.1</ele>
        <time>2013-05-08T11:45:46Z</time>
      </trkpt>
      <trkpt lat="44.69338" lon="3.82376">
        <ele>995.7</ele>
        <time>2013-05-08T11:45:55Z</time>
      </trkpt>
      <trkpt lat="44.69332" lon="3.82366">
        <ele>994.6</ele>
        <time>2013-05-08T11:46:02Z</time>
      </trkpt>
      <trkpt lat="44.69327" lon="3.82358">
        <ele>994.1</ele>
        <time>2013-05-08T11:46:09Z</time>
      </trkpt>
      <trkpt lat="44.69325" lon="3.82357">
        <ele>994</ele>
        <time>2013-05-08T11:46:10Z</time>
      </trkpt>
      <trkpt lat="44.69315" lon="3.82341">
        <ele>991.7</ele>
        <time>2013-05-08T11:46:25Z</time>
      </trkpt>
      <trkpt lat="44.6931" lon="3.82332">
        <ele>990.9</ele>
        <time>2013-05-08T11:46:30Z</time>
      </trkpt>
      <trkpt lat="44.69307" lon="3.82321">
        <ele>990.2</ele>
        <time>2013-05-08T11:46:37Z</time>
      </trkpt>
      <trkpt lat="44.69303" lon="3.8231">
        <ele>989.5</ele>
        <time>2013-05-08T11:46:46Z</time>
      </trkpt>
      <trkpt lat="44.69297" lon="3.82302">
        <ele>989.1</ele>
        <time>2013-05-08T11:46:53Z</time>
      </trkpt>
      <trkpt lat="44.69294" lon="3.82291">
        <ele>988.6</ele>
        <time>2013-05-08T11:46:59Z</time>
      </trkpt>
      <trkpt lat="44.69289" lon="3.82282">
        <ele>987.7</ele>
        <time>2013-05-08T11:47:06Z</time>
      </trkpt>
      <trkpt lat="44.69283" lon="3.82272">
        <ele>986.9</ele>
        <time>2013-05-08T11:47:14Z</time>
      </trkpt>
      <trkpt lat="44.69282" lon="3.82271">
        <ele>986.8</ele>
        <time>2013-05-08T11:47:15Z</time>
      </trkpt>
      <trkpt lat="44.69271" lon="3.82257">
        <ele>988.9</ele>
        <time>2013-05-08T11:47:26Z</time>
      </trkpt>
      <trkpt lat="44.69266" lon="3.82255">
        <ele>989</ele>
        <time>2013-05-08T11:47:30Z</time>
      </trkpt>
      <trkpt lat="44.69258" lon="3.82252">
        <ele>990.9</ele>
        <time>2013-05-08T11:47:35Z</time>
      </trkpt>
      <trkpt lat="44.6925" lon="3.82251">
        <ele>992.4</ele>
        <time>2013-05-08T11:47:40Z</time>
      </trkpt>
      <trkpt lat="44.69242" lon="3.82251">
        <ele>992.8</ele>
        <time>2013-05-08T11:47:47Z</time>
      </trkpt>
      <trkpt lat="44.69235" lon="3.82251">
        <ele>992.9</ele>
        <time>2013-05-08T11:47:50Z</time>
      </trkpt>
      <trkpt lat="44.69226" lon="3.8225">
        <ele>994</ele>
        <time>2013-05-08T11:47:56Z</time>
      </trkpt>
      <trkpt lat="44.69218" lon="3.82248">
        <ele>994.8</ele>
        <time>2013-05-08T11:48:03Z</time>
      </trkpt>
      <trkpt lat="44.69209" lon="3.82244">
        <ele>995.5</ele>
        <time>2013-05-08T11:48:10Z</time>
      </trkpt>
      <trkpt lat="44.69201" lon="3.8224">
        <ele>996.4</ele>
        <time>2013-05-08T11:48:18Z</time>
      </trkpt>
      <trkpt lat="44.692" lon="3.8224">
        <ele>996.5</ele>
        <time>2013-05-08T11:48:19Z</time>
      </trkpt>
      <trkpt lat="44.69187" lon="3.82231">
        <ele>998.3</ele>
        <time>2013-05-08T11:48:35Z</time>
      </trkpt>
      <trkpt lat="44.69182" lon="3.82223">
        <ele>998.4</ele>
        <time>2013-05-08T11:48:43Z</time>
      </trkpt>
      <trkpt lat="44.69177" lon="3.82213">
        <ele>998.4</ele>
        <time>2013-05-08T11:48:51Z</time>
      </trkpt>
      <trkpt lat="44.69169" lon="3.82206">
        <ele>998.6</ele>
        <time>2013-05-08T11:49:01Z</time>
      </trkpt>
      <trkpt lat="44.69164" lon="3.82198">
        <ele>998.8</ele>
        <time>2013-05-08T11:49:07Z</time>
      </trkpt>
      <trkpt lat="44.6916" lon="3.82189">
        <ele>999.2</ele>
        <time>2013-05-08T11:49:13Z</time>
      </trkpt>
      <trkpt lat="44.69156" lon="3.82178">
        <ele>999.6</ele>
        <time>2013-05-08T11:49:20Z</time>
      </trkpt>
      <trkpt lat="44.69156" lon="3.82175">
        <ele>1000.2</ele>
        <time>2013-05-08T11:49:21Z</time>
      </trkpt>
      <trkpt lat="44.69148" lon="3.82159">
        <ele>1002.1</ele>
        <time>2013-05-08T11:49:35Z</time>
      </trkpt>
      <trkpt lat="44.69142" lon="3.82151">
        <ele>1004.7</ele>
        <time>2013-05-08T11:49:43Z</time>
      </trkpt>
      <trkpt lat="44.69137" lon="3.82142">
        <ele>1006.3</ele>
        <time>2013-05-08T11:49:52Z</time>
      </trkpt>
      <trkpt lat="44.69134" lon="3.82132">
        <ele>1006.8</ele>
        <time>2013-05-08T11:49:58Z</time>
      </trkpt>
      <trkpt lat="44.69129" lon="3.82122">
        <ele>1008.2</ele>
        <time>2013-05-08T11:50:05Z</time>
      </trkpt>
      <trkpt lat="44.69124" lon="3.82113">
        <ele>1009.7</ele>
        <time>2013-05-08T11:50:12Z</time>
      </trkpt>
      <trkpt lat="44.69118" lon="3.82104">
        <ele>1010.2</ele>
        <time>2013-05-08T11:50:20Z</time>
      </trkpt>
      <trkpt lat="44.69112" lon="3.82095">
        <ele>1010.5</ele>
        <time>2013-05-08T11:50:28Z</time>
      </trkpt>
      <trkpt lat="44.69111" lon="3.82094">
        <ele>1010.6</ele>
        <time>2013-05-08T11:50:29Z</time>
      </trkpt>
      <trkpt lat="44.69101" lon="3.82078">
        <ele>1012</ele>
        <time>2013-05-08T11:50:43Z</time>
      </trkpt>
      <trkpt lat="44.69099" lon="3.82067">
        <ele>1012.4</ele>
        <time>2013-05-08T11:50:51Z</time>
      </trkpt>
      <trkpt lat="44.69098" lon="3.82055">
        <ele>1012.6</ele>
        <time>2013-05-08T11:51:00Z</time>
      </trkpt>
      <trkpt lat="44.69094" lon="3.82044">
        <ele>1013.5</ele>
        <time>2013-05-08T11:51:09Z</time>
      </trkpt>
      <trkpt lat="44.69092" lon="3.82033">
        <ele>1013.8</ele>
        <time>2013-05-08T11:51:15Z</time>
      </trkpt>
      <trkpt lat="44.69091" lon="3.8202">
        <ele>1014.2</ele>
        <time>2013-05-08T11:51:21Z</time>
      </trkpt>
      <trkpt lat="44.69084" lon="3.82011">
        <ele>1014.6</ele>
        <time>2013-05-08T11:51:31Z</time>
      </trkpt>
      <trkpt lat="44.69084" lon="3.82011">
        <ele>1014.6</ele>
        <time>2013-05-08T11:51:32Z</time>
      </trkpt>
      <trkpt lat="44.69072" lon="3.81996">
        <ele>1014.7</ele>
        <time>2013-05-08T11:51:48Z</time>
      </trkpt>
      <trkpt lat="44.69066" lon="3.81988">
        <ele>1014.6</ele>
        <time>2013-05-08T11:51:56Z</time>
      </trkpt>
      <trkpt lat="44.69059" lon="3.81984">
        <ele>1014.5</ele>
        <time>2013-05-08T11:52:04Z</time>
      </trkpt>
      <trkpt lat="44.69052" lon="3.81979">
        <ele>1014.1</ele>
        <time>2013-05-08T11:52:10Z</time>
      </trkpt>
      <trkpt lat="44.69045" lon="3.81971">
        <ele>1014.2</ele>
        <time>2013-05-08T11:52:17Z</time>
      </trkpt>
      <trkpt lat="44.69037" lon="3.81968">
        <ele>1014.3</ele>
        <time>2013-05-08T11:52:23Z</time>
      </trkpt>
      <trkpt lat="44.69029" lon="3.81963">
        <ele>1014.6</ele>
        <time>2013-05-08T11:52:30Z</time>
      </trkpt>
      <trkpt lat="44.69021" lon="3.81959">
        <ele>1015</ele>
        <time>2013-05-08T11:52:39Z</time>
      </trkpt>
      <trkpt lat="44.6902" lon="3.81959">
        <ele>1015</ele>
        <time>2013-05-08T11:52:40Z</time>
      </trkpt>
      <trkpt lat="44.69005" lon="3.81951">
        <ele>1015.9</ele>
        <time>2013-05-08T11:52:55Z</time>
      </trkpt>
      <trkpt lat="44.68997" lon="3.81946">
        <ele>1016.6</ele>
        <time>2013-05-08T11:53:04Z</time>
      </trkpt>
      <trkpt lat="44.68989" lon="3.81941">
        <ele>1017.1</ele>
        <time>2013-05-08T11:53:14Z</time>
      </trkpt>
      <trkpt lat="44.68983" lon="3.81935">
        <ele>1017.3</ele>
        <time>2013-05-08T11:53:20Z</time>
      </trkpt>
      <trkpt lat="44.68975" lon="3.8193">
        <ele>1017.8</ele>
        <time>2013-05-08T11:53:28Z</time>
      </trkpt>
      <trkpt lat="44.68966" lon="3.81928">
        <ele>1019.3</ele>
        <time>2013-05-08T11:53:40Z</time>
      </trkpt>
      <trkpt lat="44.68966" lon="3.81928">
        <ele>1019.4</ele>
        <time>2013-05-08T11:53:41Z</time>
      </trkpt>
      <trkpt lat="44.68949" lon="3.81928">
        <ele>1021.3</ele>
        <time>2013-05-08T11:53:56Z</time>
      </trkpt>
      <trkpt lat="44.6894" lon="3.81929">
        <ele>1021.9</ele>
        <time>2013-05-08T11:54:03Z</time>
      </trkpt>
      <trkpt lat="44.68932" lon="3.81931">
        <ele>1022</ele>
        <time>2013-05-08T11:54:12Z</time>
      </trkpt>
      <trkpt lat="44.68924" lon="3.8193">
        <ele>1022.4</ele>
        <time>2013-05-08T11:54:18Z</time>
      </trkpt>
      <trkpt lat="44.68918" lon="3.81932">
        <ele>1022.9</ele>
        <time>2013-05-08T11:54:23Z</time>
      </trkpt>
      <trkpt lat="44.6891" lon="3.81935">
        <ele>1023.3</ele>
        <time>2013-05-08T11:54:28Z</time>
      </trkpt>
      <trkpt lat="44.68902" lon="3.81941">
        <ele>1024.2</ele>
        <time>2013-05-08T11:54:36Z</time>
      </trkpt>
      <trkpt lat="44.68894" lon="3.81945">
        <ele>1025.2</ele>
        <time>2013-05-08T11:54:44Z</time>
      </trkpt>
      <trkpt lat="44.68893" lon="3.81945">
        <ele>1025.3</ele>
        <time>2013-05-08T11:54:45Z</time>
      </trkpt>
      <trkpt lat="44.68877" lon="3.81948">
        <ele>1029</ele>
        <time>2013-05-08T11:55:06Z</time>
      </trkpt>
      <trkpt lat="44.68869" lon="3.8195">
        <ele>1029.7</ele>
        <time>2013-05-08T11:55:13Z</time>
      </trkpt>
      <trkpt lat="44.68861" lon="3.81954">
        <ele>1030.7</ele>
        <time>2013-05-08T11:55:20Z</time>
      </trkpt>
      <trkpt lat="44.68853" lon="3.81959">
        <ele>1031.9</ele>
        <time>2013-05-08T11:55:28Z</time>
      </trkpt>
      <trkpt lat="44.68846" lon="3.81962">
        <ele>1032.8</ele>
        <time>2013-05-08T11:55:33Z</time>
      </trkpt>
      <trkpt lat="44.68839" lon="3.81965">
        <ele>1033.7</ele>
        <time>2013-05-08T11:55:38Z</time>
      </trkpt>
      <trkpt lat="44.68831" lon="3.8197">
        <ele>1035.3</ele>
        <time>2013-05-08T11:55:44Z</time>
      </trkpt>
      <trkpt lat="44.68823" lon="3.81974">
        <ele>1036.5</ele>
        <time>2013-05-08T11:55:53Z</time>
      </trkpt>
      <trkpt lat="44.68822" lon="3.81975">
        <ele>1036.6</ele>
        <time>2013-05-08T11:55:54Z</time>
      </trkpt>
      <trkpt lat="44.68807" lon="3.81977">
        <ele>1038.1</ele>
        <time>2013-05-08T11:56:09Z</time>
      </trkpt>
      <trkpt lat="44.68798" lon="3.81975">
        <ele>1038.2</ele>
        <time>2013-05-08T11:56:18Z</time>
      </trkpt>
      <trkpt lat="44.6879" lon="3.81977">
        <ele>1038.6</ele>
        <time>2013-05-08T11:56:25Z</time>
      </trkpt>
      <trkpt lat="44.68781" lon="3.81975">
        <ele>1038.9</ele>
        <time>2013-05-08T11:56:33Z</time>
      </trkpt>
      <trkpt lat="44.68772" lon="3.81974">
        <ele>1039.7</ele>
        <time>2013-05-08T11:56:41Z</time>
      </trkpt>
      <trkpt lat="44.68764" lon="3.81972">
        <ele>1039.8</ele>
        <time>2013-05-08T11:56:49Z</time>
      </trkpt>
      <trkpt lat="44.68756" lon="3.81971">
        <ele>1040.2</ele>
        <time>2013-05-08T11:56:55Z</time>
      </trkpt>
      <trkpt lat="44.68754" lon="3.8197">
        <ele>1040.3</ele>
        <time>2013-05-08T11:56:56Z</time>
      </trkpt>
      <trkpt lat="44.6874" lon="3.81966">
        <ele>1040.5</ele>
        <time>2013-05-08T11:57:07Z</time>
      </trkpt>
      <trkpt lat="44.68732" lon="3.81965">
        <ele>1041.4</ele>
        <time>2013-05-08T11:57:15Z</time>
      </trkpt>
      <trkpt lat="44.68724" lon="3.81961">
        <ele>1043</ele>
        <time>2013-05-08T11:57:24Z</time>
      </trkpt>
      <trkpt lat="44.68717" lon="3.81958">
        <ele>1044.2</ele>
        <time>2013-05-08T11:57:31Z</time>
      </trkpt>
      <trkpt lat="44.68709" lon="3.81956">
        <ele>1045.6</ele>
        <time>2013-05-08T11:57:40Z</time>
      </trkpt>
      <trkpt lat="44.68701" lon="3.81952">
        <ele>1047.3</ele>
        <time>2013-05-08T11:57:50Z</time>
      </trkpt>
      <trkpt lat="44.68693" lon="3.81949">
        <ele>1048.9</ele>
        <time>2013-05-08T11:58:00Z</time>
      </trkpt>
      <trkpt lat="44.68691" lon="3.81949">
        <ele>1048.9</ele>
        <time>2013-05-08T11:58:01Z</time>
      </trkpt>
      <trkpt lat="44.68676" lon="3.81948">
        <ele>1050.4</ele>
        <time>2013-05-08T11:58:16Z</time>
      </trkpt>
      <trkpt lat="44.68667" lon="3.81946">
        <ele>1051.6</ele>
        <time>2013-05-08T11:58:24Z</time>
      </trkpt>
      <trkpt lat="44.68659" lon="3.81945">
        <ele>1052.3</ele>
        <time>2013-05-08T11:58:31Z</time>
      </trkpt>
      <trkpt lat="44.68651" lon="3.81944">
        <ele>1053.4</ele>
        <time>2013-05-08T11:58:38Z</time>
      </trkpt>
      <trkpt lat="44.68644" lon="3.81938">
        <ele>1054.4</ele>
        <time>2013-05-08T11:58:45Z</time>
      </trkpt>
      <trkpt lat="44.68638" lon="3.8193">
        <ele>1055.7</ele>
        <time>2013-05-08T11:58:54Z</time>
      </trkpt>
      <trkpt lat="44.6863" lon="3.81923">
        <ele>1056.8</ele>
        <time>2013-05-08T11:59:02Z</time>
      </trkpt>
      <trkpt lat="44.68629" lon="3.81922">
        <ele>1056.9</ele>
        <time>2013-05-08T11:59:03Z</time>
      </trkpt>
      <trkpt lat="44.68618" lon="3.81906">
        <ele>1059.3</ele>
        <time>2013-05-08T11:59:20Z</time>
      </trkpt>
      <trkpt lat="44.68613" lon="3.81896">
        <ele>1060.1</ele>
        <time>2013-05-08T11:59:27Z</time>
      </trkpt>
      <trkpt lat="44.68607" lon="3.81887">
        <ele>1061</ele>
        <time>2013-05-08T11:59:36Z</time>
      </trkpt>
      <trkpt lat="44.68603" lon="3.81878">
        <ele>1062</ele>
        <time>2013-05-08T11:59:45Z</time>
      </trkpt>
      <trkpt lat="44.68601" lon="3.81866">
        <ele>1063.1</ele>
        <time>2013-05-08T11:59:52Z</time>
      </trkpt>
      <trkpt lat="44.68599" lon="3.81855">
        <ele>1063.8</ele>
        <time>2013-05-08T11:59:59Z</time>
      </trkpt>
      <trkpt lat="44.68594" lon="3.81844">
        <ele>1064.9</ele>
        <time>2013-05-08T12:00:09Z</time>
      </trkpt>
      <trkpt lat="44.68594" lon="3.81843">
        <ele>1064.9</ele>
        <time>2013-05-08T12:00:10Z</time>
      </trkpt>
      <trkpt lat="44.68587" lon="3.81823">
        <ele>1066.2</ele>
        <time>2013-05-08T12:00:28Z</time>
      </trkpt>
      <trkpt lat="44.6858" lon="3.81815">
        <ele>1067</ele>
        <time>2013-05-08T12:00:37Z</time>
      </trkpt>
      <trkpt lat="44.68575" lon="3.81807">
        <ele>1067.8</ele>
        <time>2013-05-08T12:00:46Z</time>
      </trkpt>
      <trkpt lat="44.68568" lon="3.81799">
        <ele>1068.9</ele>
        <time>2013-05-08T12:00:55Z</time>
      </trkpt>
      <trkpt lat="44.68561" lon="3.81793">
        <ele>1069.6</ele>
        <time>2013-05-08T12:01:04Z</time>
      </trkpt>
      <trkpt lat="44.68554" lon="3.81787">
        <ele>1069.9</ele>
        <time>2013-05-08T12:01:12Z</time>
      </trkpt>
      <trkpt lat="44.68553" lon="3.81786">
        <ele>1070</ele>
        <time>2013-05-08T12:01:13Z</time>
      </trkpt>
      <trkpt lat="44.6854" lon="3.81774">
        <ele>1071.6</ele>
        <time>2013-05-08T12:01:31Z</time>
      </trkpt>
      <trkpt lat="44.68538" lon="3.81763">
        <ele>1073.1</ele>
        <time>2013-05-08T12:02:38Z</time>
      </trkpt>
      <trkpt lat="44.6853" lon="3.81764">
        <ele>1072.4</ele>
        <time>2013-05-08T12:02:39Z</time>
      </trkpt>
      <trkpt lat="44.68522" lon="3.81762">
        <ele>1071.7</ele>
        <time>2013-05-08T12:04:05Z</time>
      </trkpt>
      <trkpt lat="44.6852" lon="3.81762">
        <ele>1071.7</ele>
        <time>2013-05-08T12:04:06Z</time>
      </trkpt>
      <trkpt lat="44.68505" lon="3.81762">
        <ele>1071.5</ele>
        <time>2013-05-08T12:04:29Z</time>
      </trkpt>
      <trkpt lat="44.68497" lon="3.81767">
        <ele>1071.5</ele>
        <time>2013-05-08T12:04:38Z</time>
      </trkpt>
      <trkpt lat="44.6849" lon="3.8177">
        <ele>1071.5</ele>
        <time>2013-05-08T12:04:47Z</time>
      </trkpt>
      <trkpt lat="44.68481" lon="3.81772">
        <ele>1071.6</ele>
        <time>2013-05-08T12:04:53Z</time>
      </trkpt>
      <trkpt lat="44.68474" lon="3.81773">
        <ele>1071.7</ele>
        <time>2013-05-08T12:04:57Z</time>
      </trkpt>
      <trkpt lat="44.68465" lon="3.81772">
        <ele>1072.2</ele>
        <time>2013-05-08T12:05:03Z</time>
      </trkpt>
      <trkpt lat="44.68461" lon="3.81771">
        <ele>1072.4</ele>
        <time>2013-05-08T12:05:15Z</time>
      </trkpt>
      <trkpt lat="44.68455" lon="3.81772">
        <ele>1073</ele>
        <time>2013-05-08T12:05:16Z</time>
      </trkpt>
      <trkpt lat="44.68446" lon="3.81775">
        <ele>1073.2</ele>
        <time>2013-05-08T12:05:25Z</time>
      </trkpt>
      <trkpt lat="44.68437" lon="3.81777">
        <ele>1073.3</ele>
        <time>2013-05-08T12:05:30Z</time>
      </trkpt>
      <trkpt lat="44.6843" lon="3.81776">
        <ele>1074</ele>
        <time>2013-05-08T12:05:35Z</time>
      </trkpt>
      <trkpt lat="44.68421" lon="3.81776">
        <ele>1074.7</ele>
        <time>2013-05-08T12:05:43Z</time>
      </trkpt>
      <trkpt lat="44.68413" lon="3.81775">
        <ele>1075.2</ele>
        <time>2013-05-08T12:05:50Z</time>
      </trkpt>
      <trkpt lat="44.68404" lon="3.81772">
        <ele>1075.7</ele>
        <time>2013-05-08T12:06:00Z</time>
      </trkpt>
      <trkpt lat="44.68396" lon="3.81774">
        <ele>1076.5</ele>
        <time>2013-05-08T12:06:11Z</time>
      </trkpt>
      <trkpt lat="44.68388" lon="3.81777">
        <ele>1076.9</ele>
        <time>2013-05-08T12:06:16Z</time>
      </trkpt>
      <trkpt lat="44.68387" lon="3.81777">
        <ele>1077</ele>
        <time>2013-05-08T12:06:17Z</time>
      </trkpt>
      <trkpt lat="44.68372" lon="3.8178">
        <ele>1077.9</ele>
        <time>2013-05-08T12:06:31Z</time>
      </trkpt>
      <trkpt lat="44.68363" lon="3.8178">
        <ele>1078.6</ele>
        <time>2013-05-08T12:06:36Z</time>
      </trkpt>
      <trkpt lat="44.68355" lon="3.81783">
        <ele>1079.3</ele>
        <time>2013-05-08T12:06:45Z</time>
      </trkpt>
      <trkpt lat="44.68347" lon="3.81787">
        <ele>1079.9</ele>
        <time>2013-05-08T12:06:51Z</time>
      </trkpt>
      <trkpt lat="44.68339" lon="3.81789">
        <ele>1080.6</ele>
        <time>2013-05-08T12:06:57Z</time>
      </trkpt>
      <trkpt lat="44.68333" lon="3.81796">
        <ele>1081.5</ele>
        <time>2013-05-08T12:07:09Z</time>
      </trkpt>
      <trkpt lat="44.68326" lon="3.81803">
        <ele>1082</ele>
        <time>2013-05-08T12:07:16Z</time>
      </trkpt>
      <trkpt lat="44.68319" lon="3.81807">
        <ele>1082.5</ele>
        <time>2013-05-08T12:07:24Z</time>
      </trkpt>
      <trkpt lat="44.68317" lon="3.81809">
        <ele>1082.6</ele>
        <time>2013-05-08T12:07:25Z</time>
      </trkpt>
      <trkpt lat="44.68303" lon="3.81816">
        <ele>1082.9</ele>
        <time>2013-05-08T12:07:41Z</time>
      </trkpt>
      <trkpt lat="44.68296" lon="3.81821">
        <ele>1082.6</ele>
        <time>2013-05-08T12:07:47Z</time>
      </trkpt>
      <trkpt lat="44.68287" lon="3.81825">
        <ele>1082.7</ele>
        <time>2013-05-08T12:07:55Z</time>
      </trkpt>
      <trkpt lat="44.68279" lon="3.8183">
        <ele>1082.7</ele>
        <time>2013-05-08T12:08:03Z</time>
      </trkpt>
      <trkpt lat="44.68271" lon="3.81833">
        <ele>1082.6</ele>
        <time>2013-05-08T12:08:12Z</time>
      </trkpt>
      <trkpt lat="44.68263" lon="3.81839">
        <ele>1083</ele>
        <time>2013-05-08T12:08:17Z</time>
      </trkpt>
      <trkpt lat="44.68255" lon="3.81843">
        <ele>1083.2</ele>
        <time>2013-05-08T12:08:25Z</time>
      </trkpt>
      <trkpt lat="44.68254" lon="3.81844">
        <ele>1083.2</ele>
        <time>2013-05-08T12:08:26Z</time>
      </trkpt>
      <trkpt lat="44.68239" lon="3.81849">
        <ele>1083.7</ele>
        <time>2013-05-08T12:08:40Z</time>
      </trkpt>
      <trkpt lat="44.6823" lon="3.8185">
        <ele>1083.6</ele>
        <time>2013-05-08T12:08:46Z</time>
      </trkpt>
      <trkpt lat="44.68222" lon="3.81849">
        <ele>1083.1</ele>
        <time>2013-05-08T12:08:50Z</time>
      </trkpt>
      <trkpt lat="44.68214" lon="3.81845">
        <ele>1083.6</ele>
        <time>2013-05-08T12:08:55Z</time>
      </trkpt>
      <trkpt lat="44.68206" lon="3.81844">
        <ele>1083.8</ele>
        <time>2013-05-08T12:09:00Z</time>
      </trkpt>
      <trkpt lat="44.68198" lon="3.81841">
        <ele>1084.8</ele>
        <time>2013-05-08T12:09:06Z</time>
      </trkpt>
      <trkpt lat="44.68189" lon="3.81841">
        <ele>1086</ele>
        <time>2013-05-08T12:09:18Z</time>
      </trkpt>
      <trkpt lat="44.68182" lon="3.81838">
        <ele>1085.7</ele>
        <time>2013-05-08T12:09:29Z</time>
      </trkpt>
      <trkpt lat="44.6818" lon="3.81837">
        <ele>1085.9</ele>
        <time>2013-05-08T12:09:30Z</time>
      </trkpt>
      <trkpt lat="44.68165" lon="3.81829">
        <ele>1087.3</ele>
        <time>2013-05-08T12:09:44Z</time>
      </trkpt>
      <trkpt lat="44.68158" lon="3.81824">
        <ele>1087.8</ele>
        <time>2013-05-08T12:09:54Z</time>
      </trkpt>
      <trkpt lat="44.6815" lon="3.81822">
        <ele>1088.3</ele>
        <time>2013-05-08T12:10:01Z</time>
      </trkpt>
      <trkpt lat="44.68142" lon="3.81817">
        <ele>1088.4</ele>
        <time>2013-05-08T12:10:12Z</time>
      </trkpt>
      <trkpt lat="44.68135" lon="3.81811">
        <ele>1088.4</ele>
        <time>2013-05-08T12:10:19Z</time>
      </trkpt>
      <trkpt lat="44.68127" lon="3.81806">
        <ele>1088.3</ele>
        <time>2013-05-08T12:10:26Z</time>
      </trkpt>
      <trkpt lat="44.6812" lon="3.81799">
        <ele>1088.4</ele>
        <time>2013-05-08T12:10:39Z</time>
      </trkpt>
      <trkpt lat="44.68119" lon="3.81798">
        <ele>1088.5</ele>
        <time>2013-05-08T12:10:40Z</time>
      </trkpt>
      <trkpt lat="44.68109" lon="3.81781">
        <ele>1088.7</ele>
        <time>2013-05-08T12:10:55Z</time>
      </trkpt>
      <trkpt lat="44.68101" lon="3.81776">
        <ele>1089.1</ele>
        <time>2013-05-08T12:11:02Z</time>
      </trkpt>
      <trkpt lat="44.68094" lon="3.81768">
        <ele>1089.7</ele>
        <time>2013-05-08T12:11:08Z</time>
      </trkpt>
      <trkpt lat="44.68089" lon="3.81759">
        <ele>1090.2</ele>
        <time>2013-05-08T12:11:17Z</time>
      </trkpt>
      <trkpt lat="44.68082" lon="3.8175">
        <ele>1090.3</ele>
        <time>2013-05-08T12:11:25Z</time>
      </trkpt>
      <trkpt lat="44.68076" lon="3.81742">
        <ele>1091</ele>
        <time>2013-05-08T12:11:31Z</time>
      </trkpt>
      <trkpt lat="44.68071" lon="3.81735">
        <ele>1091.4</ele>
        <time>2013-05-08T12:11:34Z</time>
      </trkpt>
      <trkpt lat="44.68068" lon="3.81725">
        <ele>1092.1</ele>
        <time>2013-05-08T12:11:41Z</time>
      </trkpt>
      <trkpt lat="44.68068" lon="3.81722">
        <ele>1092.1</ele>
        <time>2013-05-08T12:11:42Z</time>
      </trkpt>
      <trkpt lat="44.68065" lon="3.81703">
        <ele>1092.1</ele>
        <time>2013-05-08T12:11:54Z</time>
      </trkpt>
      <trkpt lat="44.68062" lon="3.81691">
        <ele>1092</ele>
        <time>2013-05-08T12:12:02Z</time>
      </trkpt>
      <trkpt lat="44.6806" lon="3.8168">
        <ele>1091.7</ele>
        <time>2013-05-08T12:12:10Z</time>
      </trkpt>
      <trkpt lat="44.68057" lon="3.81668">
        <ele>1091.9</ele>
        <time>2013-05-08T12:12:19Z</time>
      </trkpt>
      <trkpt lat="44.68055" lon="3.81656">
        <ele>1091.6</ele>
        <time>2013-05-08T12:12:31Z</time>
      </trkpt>
      <trkpt lat="44.68054" lon="3.81644">
        <ele>1091.6</ele>
        <time>2013-05-08T12:13:13Z</time>
      </trkpt>
      <trkpt lat="44.68057" lon="3.81636">
        <ele>1090.1</ele>
        <time>2013-05-08T12:13:14Z</time>
      </trkpt>
      <trkpt lat="44.68053" lon="3.81625">
        <ele>1091.8</ele>
        <time>2013-05-08T12:16:22Z</time>
      </trkpt>
      <trkpt lat="44.68052" lon="3.81624">
        <ele>1092</ele>
        <time>2013-05-08T12:16:23Z</time>
      </trkpt>
      <trkpt lat="44.68041" lon="3.81607">
        <ele>1093.3</ele>
        <time>2013-05-08T12:16:39Z</time>
      </trkpt>
      <trkpt lat="44.6804" lon="3.81596">
        <ele>1093.3</ele>
        <time>2013-05-08T12:16:45Z</time>
      </trkpt>
      <trkpt lat="44.68037" lon="3.81584">
        <ele>1093.1</ele>
        <time>2013-05-08T12:16:54Z</time>
      </trkpt>
      <trkpt lat="44.68035" lon="3.81573">
        <ele>1092.9</ele>
        <time>2013-05-08T12:17:01Z</time>
      </trkpt>
      <trkpt lat="44.68029" lon="3.81564">
        <ele>1092.8</ele>
        <time>2013-05-08T12:17:09Z</time>
      </trkpt>
      <trkpt lat="44.68027" lon="3.81553">
        <ele>1093</ele>
        <time>2013-05-08T12:17:14Z</time>
      </trkpt>
      <trkpt lat="44.68021" lon="3.81547">
        <ele>1092.8</ele>
        <time>2013-05-08T12:17:18Z</time>
      </trkpt>
      <trkpt lat="44.68017" lon="3.81536">
        <ele>1092.8</ele>
        <time>2013-05-08T12:17:26Z</time>
      </trkpt>
      <trkpt lat="44.68018" lon="3.81534">
        <ele>1092.9</ele>
        <time>2013-05-08T12:17:27Z</time>
      </trkpt>
      <trkpt lat="44.6802" lon="3.81514">
        <ele>1093.6</ele>
        <time>2013-05-08T12:17:37Z</time>
      </trkpt>
      <trkpt lat="44.68016" lon="3.81506">
        <ele>1094</ele>
        <time>2013-05-08T12:17:54Z</time>
      </trkpt>
      <trkpt lat="44.68009" lon="3.81498">
        <ele>1094</ele>
        <time>2013-05-08T12:18:01Z</time>
      </trkpt>
      <trkpt lat="44.68009" lon="3.81486">
        <ele>1093.9</ele>
        <time>2013-05-08T12:18:08Z</time>
      </trkpt>
      <trkpt lat="44.6801" lon="3.81475">
        <ele>1094</ele>
        <time>2013-05-08T12:18:16Z</time>
      </trkpt>
      <trkpt lat="44.68009" lon="3.81463">
        <ele>1093.4</ele>
        <time>2013-05-08T12:18:27Z</time>
      </trkpt>
      <trkpt lat="44.68008" lon="3.81461">
        <ele>1093.3</ele>
        <time>2013-05-08T12:18:28Z</time>
      </trkpt>
      <trkpt lat="44.68004" lon="3.81442">
        <ele>1092.4</ele>
        <time>2013-05-08T12:18:46Z</time>
      </trkpt>
      <trkpt lat="44.68004" lon="3.8143">
        <ele>1091.8</ele>
        <time>2013-05-08T12:18:55Z</time>
      </trkpt>
      <trkpt lat="44.68004" lon="3.81419">
        <ele>1090.8</ele>
        <time>2013-05-08T12:19:04Z</time>
      </trkpt>
      <trkpt lat="44.68005" lon="3.81408">
        <ele>1090.9</ele>
        <time>2013-05-08T12:19:09Z</time>
      </trkpt>
      <trkpt lat="44.68006" lon="3.81397">
        <ele>1090.8</ele>
        <time>2013-05-08T12:19:15Z</time>
      </trkpt>
      <trkpt lat="44.68013" lon="3.81391">
        <ele>1090.4</ele>
        <time>2013-05-08T12:19:23Z</time>
      </trkpt>
      <trkpt lat="44.68017" lon="3.81381">
        <ele>1089.1</ele>
        <time>2013-05-08T12:19:30Z</time>
      </trkpt>
      <trkpt lat="44.68017" lon="3.81379">
        <ele>1089.1</ele>
        <time>2013-05-08T12:19:31Z</time>
      </trkpt>
      <trkpt lat="44.68016" lon="3.81356">
        <ele>1088.9</ele>
        <time>2013-05-08T12:19:42Z</time>
      </trkpt>
      <trkpt lat="44.68014" lon="3.81344">
        <ele>1088</ele>
        <time>2013-05-08T12:19:49Z</time>
      </trkpt>
      <trkpt lat="44.68011" lon="3.81333">
        <ele>1087.6</ele>
        <time>2013-05-08T12:19:56Z</time>
      </trkpt>
      <trkpt lat="44.68008" lon="3.81323">
        <ele>1087.5</ele>
        <time>2013-05-08T12:20:02Z</time>
      </trkpt>
      <trkpt lat="44.68005" lon="3.81311">
        <ele>1087.8</ele>
        <time>2013-05-08T12:20:10Z</time>
      </trkpt>
      <trkpt lat="44.68" lon="3.81301">
        <ele>1088.2</ele>
        <time>2013-05-08T12:20:17Z</time>
      </trkpt>
      <trkpt lat="44.67997" lon="3.8129">
        <ele>1088.7</ele>
        <time>2013-05-08T12:20:25Z</time>
      </trkpt>
      <trkpt lat="44.67994" lon="3.81279">
        <ele>1089.8</ele>
        <time>2013-05-08T12:20:34Z</time>
      </trkpt>
      <trkpt lat="44.67993" lon="3.81277">
        <ele>1089.9</ele>
        <time>2013-05-08T12:20:35Z</time>
      </trkpt>
      <trkpt lat="44.6799" lon="3.81256">
        <ele>1091.8</ele>
        <time>2013-05-08T12:20:48Z</time>
      </trkpt>
      <trkpt lat="44.67988" lon="3.81245">
        <ele>1092.1</ele>
        <time>2013-05-08T12:20:56Z</time>
      </trkpt>
      <trkpt lat="44.67988" lon="3.81234">
        <ele>1092.8</ele>
        <time>2013-05-08T12:21:02Z</time>
      </trkpt>
      <trkpt lat="44.67987" lon="3.81223">
        <ele>1092.9</ele>
        <time>2013-05-08T12:21:07Z</time>
      </trkpt>
      <trkpt lat="44.67985" lon="3.81214">
        <ele>1093.1</ele>
        <time>2013-05-08T12:21:13Z</time>
      </trkpt>
      <trkpt lat="44.67982" lon="3.81202">
        <ele>1093.1</ele>
        <time>2013-05-08T12:21:20Z</time>
      </trkpt>
      <trkpt lat="44.6798" lon="3.81191">
        <ele>1093</ele>
        <time>2013-05-08T12:21:28Z</time>
      </trkpt>
      <trkpt lat="44.67974" lon="3.81181">
        <ele>1093.5</ele>
        <time>2013-05-08T12:21:35Z</time>
      </trkpt>
      <trkpt lat="44.67974" lon="3.8118">
        <ele>1093.7</ele>
        <time>2013-05-08T12:21:36Z</time>
      </trkpt>
      <trkpt lat="44.67971" lon="3.81159">
        <ele>1094.6</ele>
        <time>2013-05-08T12:21:50Z</time>
      </trkpt>
      <trkpt lat="44.6797" lon="3.81147">
        <ele>1094.9</ele>
        <time>2013-05-08T12:21:55Z</time>
      </trkpt>
      <trkpt lat="44.67967" lon="3.81136">
        <ele>1095.1</ele>
        <time>2013-05-08T12:22:02Z</time>
      </trkpt>
      <trkpt lat="44.67964" lon="3.81125">
        <ele>1095.4</ele>
        <time>2013-05-08T12:22:09Z</time>
      </trkpt>
      <trkpt lat="44.6796" lon="3.81114">
        <ele>1095.8</ele>
        <time>2013-05-08T12:22:16Z</time>
      </trkpt>
      <trkpt lat="44.67953" lon="3.81108">
        <ele>1095.8</ele>
        <time>2013-05-08T12:22:25Z</time>
      </trkpt>
      <trkpt lat="44.67947" lon="3.81099">
        <ele>1096.9</ele>
        <time>2013-05-08T12:22:33Z</time>
      </trkpt>
      <trkpt lat="44.67941" lon="3.81091">
        <ele>1097.4</ele>
        <time>2013-05-08T12:22:39Z</time>
      </trkpt>
      <trkpt lat="44.6794" lon="3.81089">
        <ele>1097.6</ele>
        <time>2013-05-08T12:22:40Z</time>
      </trkpt>
      <trkpt lat="44.67936" lon="3.8107">
        <ele>1099</ele>
        <time>2013-05-08T12:22:52Z</time>
      </trkpt>
      <trkpt lat="44.67934" lon="3.81058">
        <ele>1099.1</ele>
        <time>2013-05-08T12:23:12Z</time>
      </trkpt>
      <trkpt lat="44.67928" lon="3.81049">
        <ele>1098.8</ele>
        <time>2013-05-08T12:23:20Z</time>
      </trkpt>
      <trkpt lat="44.67927" lon="3.81039">
        <ele>1098.8</ele>
        <time>2013-05-08T12:23:24Z</time>
      </trkpt>
      <trkpt lat="44.67923" lon="3.81028">
        <ele>1098.3</ele>
        <time>2013-05-08T12:23:29Z</time>
      </trkpt>
      <trkpt lat="44.67923" lon="3.81016">
        <ele>1097.4</ele>
        <time>2013-05-08T12:23:41Z</time>
      </trkpt>
      <trkpt lat="44.67923" lon="3.81016">
        <ele>1097.2</ele>
        <time>2013-05-08T12:23:42Z</time>
      </trkpt>
      <trkpt lat="44.67934" lon="3.80997">
        <ele>1095.4</ele>
        <time>2013-05-08T12:25:07Z</time>
      </trkpt>
      <trkpt lat="44.67934" lon="3.80994">
        <ele>1095.3</ele>
        <time>2013-05-08T12:25:08Z</time>
      </trkpt>
      <trkpt lat="44.67946" lon="3.80981">
        <ele>1094.6</ele>
        <time>2013-05-08T12:25:23Z</time>
      </trkpt>
      <trkpt lat="44.67953" lon="3.80976">
        <ele>1094.4</ele>
        <time>2013-05-08T12:25:29Z</time>
      </trkpt>
      <trkpt lat="44.67959" lon="3.80967">
        <ele>1094</ele>
        <time>2013-05-08T12:25:36Z</time>
      </trkpt>
      <trkpt lat="44.67964" lon="3.80957">
        <ele>1093.9</ele>
        <time>2013-05-08T12:25:45Z</time>
      </trkpt>
      <trkpt lat="44.67968" lon="3.80946">
        <ele>1093.8</ele>
        <time>2013-05-08T12:25:52Z</time>
      </trkpt>
      <trkpt lat="44.67973" lon="3.80937">
        <ele>1093.5</ele>
        <time>2013-05-08T12:25:57Z</time>
      </trkpt>
      <trkpt lat="44.67976" lon="3.80926">
        <ele>1093.4</ele>
        <time>2013-05-08T12:26:05Z</time>
      </trkpt>
      <trkpt lat="44.67969" lon="3.80919">
        <ele>1093.6</ele>
        <time>2013-05-08T12:26:15Z</time>
      </trkpt>
      <trkpt lat="44.67968" lon="3.80919">
        <ele>1093.6</ele>
        <time>2013-05-08T12:26:16Z</time>
      </trkpt>
      <trkpt lat="44.67962" lon="3.80911">
        <ele>1092.7</ele>
        <time>2013-05-08T12:27:17Z</time>
      </trkpt>
      <trkpt lat="44.67951" lon="3.80896">
        <ele>1092.7</ele>
        <time>2013-05-08T12:27:30Z</time>
      </trkpt>
      <trkpt lat="44.67943" lon="3.80889">
        <ele>1092.7</ele>
        <time>2013-05-08T12:27:38Z</time>
      </trkpt>
      <trkpt lat="44.67937" lon="3.80881">
        <ele>1092.8</ele>
        <time>2013-05-08T12:27:46Z</time>
      </trkpt>
      <trkpt lat="44.6793" lon="3.80874">
        <ele>1092.8</ele>
        <time>2013-05-08T12:27:53Z</time>
      </trkpt>
      <trkpt lat="44.67923" lon="3.80867">
        <ele>1092.8</ele>
        <time>2013-05-08T12:27:59Z</time>
      </trkpt>
      <trkpt lat="44.67916" lon="3.8086">
        <ele>1093</ele>
        <time>2013-05-08T12:28:06Z</time>
      </trkpt>
      <trkpt lat="44.67911" lon="3.80851">
        <ele>1093.2</ele>
        <time>2013-05-08T12:28:14Z</time>
      </trkpt>
      <trkpt lat="44.67904" lon="3.80844">
        <ele>1093.4</ele>
        <time>2013-05-08T12:28:22Z</time>
      </trkpt>
      <trkpt lat="44.67903" lon="3.80844">
        <ele>1093.4</ele>
        <time>2013-05-08T12:28:23Z</time>
      </trkpt>
      <trkpt lat="44.67889" lon="3.80833">
        <ele>1093.9</ele>
        <time>2013-05-08T12:28:38Z</time>
      </trkpt>
      <trkpt lat="44.67881" lon="3.80828">
        <ele>1094.1</ele>
        <time>2013-05-08T12:28:45Z</time>
      </trkpt>
      <trkpt lat="44.67874" lon="3.80822">
        <ele>1094.2</ele>
        <time>2013-05-08T12:28:53Z</time>
      </trkpt>
      <trkpt lat="44.67866" lon="3.80815">
        <ele>1094.5</ele>
        <time>2013-05-08T12:29:00Z</time>
      </trkpt>
      <trkpt lat="44.67861" lon="3.80806">
        <ele>1094.5</ele>
        <time>2013-05-08T12:29:06Z</time>
      </trkpt>
      <trkpt lat="44.67855" lon="3.80797">
        <ele>1094.6</ele>
        <time>2013-05-08T12:29:13Z</time>
      </trkpt>
      <trkpt lat="44.6785" lon="3.80788">
        <ele>1095.1</ele>
        <time>2013-05-08T12:29:20Z</time>
      </trkpt>
      <trkpt lat="44.67846" lon="3.80779">
        <ele>1095.6</ele>
        <time>2013-05-08T12:29:28Z</time>
      </trkpt>
      <trkpt lat="44.67845" lon="3.80777">
        <ele>1095.6</ele>
        <time>2013-05-08T12:29:29Z</time>
      </trkpt>
      <trkpt lat="44.67837" lon="3.80758">
        <ele>1096.7</ele>
        <time>2013-05-08T12:29:43Z</time>
      </trkpt>
      <trkpt lat="44.67833" lon="3.80747">
        <ele>1097.5</ele>
        <time>2013-05-08T12:29:51Z</time>
      </trkpt>
      <trkpt lat="44.67829" lon="3.80736">
        <ele>1098</ele>
        <time>2013-05-08T12:30:00Z</time>
      </trkpt>
      <trkpt lat="44.67825" lon="3.80726">
        <ele>1098.8</ele>
        <time>2013-05-08T12:30:08Z</time>
      </trkpt>
      <trkpt lat="44.67822" lon="3.80715">
        <ele>1099.7</ele>
        <time>2013-05-08T12:30:18Z</time>
      </trkpt>
      <trkpt lat="44.6782" lon="3.80702">
        <ele>1101</ele>
        <time>2013-05-08T12:30:27Z</time>
      </trkpt>
      <trkpt lat="44.67818" lon="3.80691">
        <ele>1101.9</ele>
        <time>2013-05-08T12:30:35Z</time>
      </trkpt>
      <trkpt lat="44.67818" lon="3.8069">
        <ele>1102</ele>
        <time>2013-05-08T12:30:36Z</time>
      </trkpt>
      <trkpt lat="44.67815" lon="3.80668">
        <ele>1103.5</ele>
        <time>2013-05-08T12:30:52Z</time>
      </trkpt>
      <trkpt lat="44.67815" lon="3.80656">
        <ele>1104.3</ele>
        <time>2013-05-08T12:31:00Z</time>
      </trkpt>
      <trkpt lat="44.67815" lon="3.80644">
        <ele>1105</ele>
        <time>2013-05-08T12:31:08Z</time>
      </trkpt>
      <trkpt lat="44.67814" lon="3.80632">
        <ele>1106</ele>
        <time>2013-05-08T12:31:16Z</time>
      </trkpt>
      <trkpt lat="44.67812" lon="3.80621">
        <ele>1106.6</ele>
        <time>2013-05-08T12:31:23Z</time>
      </trkpt>
      <trkpt lat="44.67808" lon="3.8061">
        <ele>1107.2</ele>
        <time>2013-05-08T12:31:31Z</time>
      </trkpt>
      <trkpt lat="44.67806" lon="3.80598">
        <ele>1107.7</ele>
        <time>2013-05-08T12:31:37Z</time>
      </trkpt>
      <trkpt lat="44.67806" lon="3.80597">
        <ele>1107.8</ele>
        <time>2013-05-08T12:31:38Z</time>
      </trkpt>
      <trkpt lat="44.678" lon="3.80577">
        <ele>1109.2</ele>
        <time>2013-05-08T12:31:51Z</time>
      </trkpt>
      <trkpt lat="44.67798" lon="3.80566">
        <ele>1110.3</ele>
        <time>2013-05-08T12:32:00Z</time>
      </trkpt>
      <trkpt lat="44.67794" lon="3.80556">
        <ele>1110.9</ele>
        <time>2013-05-08T12:32:07Z</time>
      </trkpt>
      <trkpt lat="44.67789" lon="3.80548">
        <ele>1111.5</ele>
        <time>2013-05-08T12:32:13Z</time>
      </trkpt>
      <trkpt lat="44.67783" lon="3.80538">
        <ele>1112.3</ele>
        <time>2013-05-08T12:32:23Z</time>
      </trkpt>
      <trkpt lat="44.67779" lon="3.80526">
        <ele>1113.1</ele>
        <time>2013-05-08T12:32:33Z</time>
      </trkpt>
      <trkpt lat="44.67774" lon="3.80516">
        <ele>1113.6</ele>
        <time>2013-05-08T12:32:43Z</time>
      </trkpt>
      <trkpt lat="44.67774" lon="3.80515">
        <ele>1113.6</ele>
        <time>2013-05-08T12:32:44Z</time>
      </trkpt>
      <trkpt lat="44.67763" lon="3.80499">
        <ele>1114.1</ele>
        <time>2013-05-08T12:32:58Z</time>
      </trkpt>
      <trkpt lat="44.67756" lon="3.80491">
        <ele>1113.6</ele>
        <time>2013-05-08T12:33:07Z</time>
      </trkpt>
      <trkpt lat="44.67747" lon="3.80489">
        <ele>1113.3</ele>
        <time>2013-05-08T12:33:21Z</time>
      </trkpt>
      <trkpt lat="44.67742" lon="3.80479">
        <ele>1112.3</ele>
        <time>2013-05-08T12:35:40Z</time>
      </trkpt>
      <trkpt lat="44.67742" lon="3.80478">
        <ele>1112.2</ele>
        <time>2013-05-08T12:35:41Z</time>
      </trkpt>
      <trkpt lat="44.67734" lon="3.80462">
        <ele>1111.8</ele>
        <time>2013-05-08T12:35:53Z</time>
      </trkpt>
      <trkpt lat="44.67726" lon="3.80455">
        <ele>1111.7</ele>
        <time>2013-05-08T12:35:59Z</time>
      </trkpt>
      <trkpt lat="44.67719" lon="3.8045">
        <ele>1111.7</ele>
        <time>2013-05-08T12:36:05Z</time>
      </trkpt>
      <trkpt lat="44.67712" lon="3.80447">
        <ele>1111.6</ele>
        <time>2013-05-08T12:36:10Z</time>
      </trkpt>
      <trkpt lat="44.67703" lon="3.80442">
        <ele>1111.2</ele>
        <time>2013-05-08T12:36:16Z</time>
      </trkpt>
      <trkpt lat="44.67696" lon="3.80437">
        <ele>1110.5</ele>
        <time>2013-05-08T12:36:21Z</time>
      </trkpt>
      <trkpt lat="44.67689" lon="3.8043">
        <ele>1110.4</ele>
        <time>2013-05-08T12:36:27Z</time>
      </trkpt>
      <trkpt lat="44.6768" lon="3.80428">
        <ele>1110.2</ele>
        <time>2013-05-08T12:36:32Z</time>
      </trkpt>
      <trkpt lat="44.67673" lon="3.80423">
        <ele>1109.9</ele>
        <time>2013-05-08T12:36:38Z</time>
      </trkpt>
      <trkpt lat="44.67671" lon="3.80411">
        <ele>1109.8</ele>
        <time>2013-05-08T12:36:45Z</time>
      </trkpt>
      <trkpt lat="44.67671" lon="3.8041">
        <ele>1109.9</ele>
        <time>2013-05-08T12:36:46Z</time>
      </trkpt>
      <trkpt lat="44.67665" lon="3.80391">
        <ele>1111.1</ele>
        <time>2013-05-08T12:36:57Z</time>
      </trkpt>
      <trkpt lat="44.67658" lon="3.80384">
        <ele>1111.4</ele>
        <time>2013-05-08T12:37:05Z</time>
      </trkpt>
      <trkpt lat="44.67652" lon="3.80376">
        <ele>1112</ele>
        <time>2013-05-08T12:37:13Z</time>
      </trkpt>
      <trkpt lat="44.67647" lon="3.80366">
        <ele>1113.3</ele>
        <time>2013-05-08T12:37:24Z</time>
      </trkpt>
      <trkpt lat="44.67641" lon="3.80359">
        <ele>1113.8</ele>
        <time>2013-05-08T12:37:30Z</time>
      </trkpt>
      <trkpt lat="44.67635" lon="3.80351">
        <ele>1114.3</ele>
        <time>2013-05-08T12:37:37Z</time>
      </trkpt>
      <trkpt lat="44.67629" lon="3.80342">
        <ele>1115</ele>
        <time>2013-05-08T12:37:43Z</time>
      </trkpt>
      <trkpt lat="44.67624" lon="3.80334">
        <ele>1115.5</ele>
        <time>2013-05-08T12:37:49Z</time>
      </trkpt>
      <trkpt lat="44.67623" lon="3.80333">
        <ele>1115.6</ele>
        <time>2013-05-08T12:37:50Z</time>
      </trkpt>
      <trkpt lat="44.67614" lon="3.80315">
        <ele>1116.7</ele>
        <time>2013-05-08T12:38:02Z</time>
      </trkpt>
      <trkpt lat="44.67611" lon="3.80305">
        <ele>1117.2</ele>
        <time>2013-05-08T12:38:10Z</time>
      </trkpt>
      <trkpt lat="44.67605" lon="3.80296">
        <ele>1118.1</ele>
        <time>2013-05-08T12:38:16Z</time>
      </trkpt>
      <trkpt lat="44.676" lon="3.80286">
        <ele>1119.1</ele>
        <time>2013-05-08T12:38:23Z</time>
      </trkpt>
      <trkpt lat="44.67596" lon="3.8028">
        <ele>1119.4</ele>
        <time>2013-05-08T12:38:26Z</time>
      </trkpt>
      <trkpt lat="44.6759" lon="3.80273">
        <ele>1119.5</ele>
        <time>2013-05-08T12:38:30Z</time>
      </trkpt>
      <trkpt lat="44.67587" lon="3.80262">
        <ele>1120.1</ele>
        <time>2013-05-08T12:38:38Z</time>
      </trkpt>
      <trkpt lat="44.67584" lon="3.80252">
        <ele>1121</ele>
        <time>2013-05-08T12:38:45Z</time>
      </trkpt>
      <trkpt lat="44.67579" lon="3.80242">
        <ele>1122.1</ele>
        <time>2013-05-08T12:38:52Z</time>
      </trkpt>
      <trkpt lat="44.67578" lon="3.80241">
        <ele>1122.2</ele>
        <time>2013-05-08T12:38:53Z</time>
      </trkpt>
      <trkpt lat="44.67571" lon="3.8022">
        <ele>1123.4</ele>
        <time>2013-05-08T12:39:11Z</time>
      </trkpt>
      <trkpt lat="44.67571" lon="3.80208">
        <ele>1124.4</ele>
        <time>2013-05-08T12:39:22Z</time>
      </trkpt>
      <trkpt lat="44.67572" lon="3.80195">
        <ele>1126.3</ele>
        <time>2013-05-08T12:39:34Z</time>
      </trkpt>
      <trkpt lat="44.67578" lon="3.80187">
        <ele>1127.4</ele>
        <time>2013-05-08T12:39:44Z</time>
      </trkpt>
      <trkpt lat="44.67585" lon="3.8018">
        <ele>1128.5</ele>
        <time>2013-05-08T12:39:55Z</time>
      </trkpt>
      <trkpt lat="44.67585" lon="3.80178">
        <ele>1128.6</ele>
        <time>2013-05-08T12:39:56Z</time>
      </trkpt>
      <trkpt lat="44.67588" lon="3.80164">
        <ele>1129.2</ele>
        <time>2013-05-08T12:40:57Z</time>
      </trkpt>
      <trkpt lat="44.67578" lon="3.8019">
        <ele>1129</ele>
        <time>2013-05-08T12:41:39Z</time>
      </trkpt>
      <trkpt lat="44.67571" lon="3.80197">
        <ele>1128.6</ele>
        <time>2013-05-08T12:41:48Z</time>
      </trkpt>
      <trkpt lat="44.67571" lon="3.80207">
        <ele>1123</ele>
        <time>2013-05-08T12:57:04Z</time>
      </trkpt>
      <trkpt lat="44.67566" lon="3.8021">
        <ele>1118.9</ele>
        <time>2013-05-08T12:57:05Z</time>
      </trkpt>
      <trkpt lat="44.67556" lon="3.80199">
        <ele>1118.4</ele>
        <time>2013-05-08T12:57:29Z</time>
      </trkpt>
      <trkpt lat="44.67552" lon="3.80187">
        <ele>1118.6</ele>
        <time>2013-05-08T12:57:45Z</time>
      </trkpt>
      <trkpt lat="44.67548" lon="3.80178">
        <ele>1118</ele>
        <time>2013-05-08T12:57:51Z</time>
      </trkpt>
      <trkpt lat="44.67542" lon="3.80169">
        <ele>1117.9</ele>
        <time>2013-05-08T12:58:01Z</time>
      </trkpt>
      <trkpt lat="44.67538" lon="3.80159">
        <ele>1117.8</ele>
        <time>2013-05-08T12:58:11Z</time>
      </trkpt>
      <trkpt lat="44.67537" lon="3.80158">
        <ele>1118.2</ele>
        <time>2013-05-08T12:58:12Z</time>
      </trkpt>
      <trkpt lat="44.67523" lon="3.80147">
        <ele>1119.1</ele>
        <time>2013-05-08T12:58:28Z</time>
      </trkpt>
      <trkpt lat="44.67517" lon="3.80139">
        <ele>1119.3</ele>
        <time>2013-05-08T12:58:37Z</time>
      </trkpt>
      <trkpt lat="44.67509" lon="3.80133">
        <ele>1119.6</ele>
        <time>2013-05-08T12:58:42Z</time>
      </trkpt>
      <trkpt lat="44.67503" lon="3.80125">
        <ele>1120.2</ele>
        <time>2013-05-08T12:58:49Z</time>
      </trkpt>
      <trkpt lat="44.67496" lon="3.80118">
        <ele>1120.5</ele>
        <time>2013-05-08T12:58:57Z</time>
      </trkpt>
      <trkpt lat="44.67489" lon="3.80112">
        <ele>1121.1</ele>
        <time>2013-05-08T12:59:06Z</time>
      </trkpt>
      <trkpt lat="44.67484" lon="3.80102">
        <ele>1121.2</ele>
        <time>2013-05-08T12:59:14Z</time>
      </trkpt>
      <trkpt lat="44.67483" lon="3.801">
        <ele>1121.1</ele>
        <time>2013-05-08T12:59:15Z</time>
      </trkpt>
      <trkpt lat="44.67477" lon="3.80081">
        <ele>1121.8</ele>
        <time>2013-05-08T12:59:30Z</time>
      </trkpt>
      <trkpt lat="44.67475" lon="3.8007">
        <ele>1122.2</ele>
        <time>2013-05-08T12:59:37Z</time>
      </trkpt>
      <trkpt lat="44.67472" lon="3.80058">
        <ele>1122.8</ele>
        <time>2013-05-08T12:59:48Z</time>
      </trkpt>
      <trkpt lat="44.67469" lon="3.80048">
        <ele>1123.5</ele>
        <time>2013-05-08T12:59:54Z</time>
      </trkpt>
      <trkpt lat="44.67465" lon="3.80038">
        <ele>1124.1</ele>
        <time>2013-05-08T13:00:03Z</time>
      </trkpt>
      <trkpt lat="44.67461" lon="3.80027">
        <ele>1124.3</ele>
        <time>2013-05-08T13:00:12Z</time>
      </trkpt>
      <trkpt lat="44.67455" lon="3.80019">
        <ele>1124.9</ele>
        <time>2013-05-08T13:00:20Z</time>
      </trkpt>
      <trkpt lat="44.67454" lon="3.80018">
        <ele>1125</ele>
        <time>2013-05-08T13:00:21Z</time>
      </trkpt>
      <trkpt lat="44.67445" lon="3.80002">
        <ele>1125.5</ele>
        <time>2013-05-08T13:00:35Z</time>
      </trkpt>
      <trkpt lat="44.67439" lon="3.79994">
        <ele>1125.2</ele>
        <time>2013-05-08T13:00:41Z</time>
      </trkpt>
      <trkpt lat="44.67433" lon="3.79985">
        <ele>1125.6</ele>
        <time>2013-05-08T13:00:49Z</time>
      </trkpt>
      <trkpt lat="44.67427" lon="3.79976">
        <ele>1125.4</ele>
        <time>2013-05-08T13:00:56Z</time>
      </trkpt>
      <trkpt lat="44.67422" lon="3.79966">
        <ele>1125.6</ele>
        <time>2013-05-08T13:01:03Z</time>
      </trkpt>
      <trkpt lat="44.67416" lon="3.79958">
        <ele>1125.6</ele>
        <time>2013-05-08T13:01:10Z</time>
      </trkpt>
      <trkpt lat="44.67409" lon="3.7995">
        <ele>1126.2</ele>
        <time>2013-05-08T13:01:17Z</time>
      </trkpt>
      <trkpt lat="44.67401" lon="3.79944">
        <ele>1126.7</ele>
        <time>2013-05-08T13:01:23Z</time>
      </trkpt>
      <trkpt lat="44.67401" lon="3.79943">
        <ele>1126.9</ele>
        <time>2013-05-08T13:01:24Z</time>
      </trkpt>
      <trkpt lat="44.67385" lon="3.79935">
        <ele>1127.2</ele>
        <time>2013-05-08T13:01:41Z</time>
      </trkpt>
      <trkpt lat="44.6738" lon="3.79933">
        <ele>1127.3</ele>
        <time>2013-05-08T13:02:07Z</time>
      </trkpt>
      <trkpt lat="44.67372" lon="3.7993">
        <ele>1127.7</ele>
        <time>2013-05-08T13:02:14Z</time>
      </trkpt>
      <trkpt lat="44.67363" lon="3.79927">
        <ele>1128.2</ele>
        <time>2013-05-08T13:02:24Z</time>
      </trkpt>
      <trkpt lat="44.67362" lon="3.79926">
        <ele>1128.3</ele>
        <time>2013-05-08T13:02:25Z</time>
      </trkpt>
      <trkpt lat="44.67346" lon="3.79925">
        <ele>1128.1</ele>
        <time>2013-05-08T13:02:41Z</time>
      </trkpt>
      <trkpt lat="44.67338" lon="3.79922">
        <ele>1127.5</ele>
        <time>2013-05-08T13:03:19Z</time>
      </trkpt>
      <trkpt lat="44.6733" lon="3.79918">
        <ele>1127.6</ele>
        <time>2013-05-08T13:03:27Z</time>
      </trkpt>
      <trkpt lat="44.67329" lon="3.79918">
        <ele>1127.6</ele>
        <time>2013-05-08T13:03:28Z</time>
      </trkpt>
      <trkpt lat="44.67315" lon="3.79911">
        <ele>1127.3</ele>
        <time>2013-05-08T13:03:43Z</time>
      </trkpt>
      <trkpt lat="44.67307" lon="3.79906">
        <ele>1127.2</ele>
        <time>2013-05-08T13:03:51Z</time>
      </trkpt>
      <trkpt lat="44.673" lon="3.79901">
        <ele>1127</ele>
        <time>2013-05-08T13:04:00Z</time>
      </trkpt>
      <trkpt lat="44.67293" lon="3.79895">
        <ele>1127.1</ele>
        <time>2013-05-08T13:04:08Z</time>
      </trkpt>
      <trkpt lat="44.67285" lon="3.79891">
        <ele>1127.2</ele>
        <time>2013-05-08T13:04:16Z</time>
      </trkpt>
      <trkpt lat="44.67277" lon="3.79891">
        <ele>1126.7</ele>
        <time>2013-05-08T13:04:26Z</time>
      </trkpt>
      <trkpt lat="44.67269" lon="3.7989">
        <ele>1126.5</ele>
        <time>2013-05-08T13:04:33Z</time>
      </trkpt>
      <trkpt lat="44.67267" lon="3.7989">
        <ele>1126.5</ele>
        <time>2013-05-08T13:04:34Z</time>
      </trkpt>
      <trkpt lat="44.67253" lon="3.79884">
        <ele>1126.2</ele>
        <time>2013-05-08T13:04:45Z</time>
      </trkpt>
      <trkpt lat="44.67247" lon="3.79877">
        <ele>1126</ele>
        <time>2013-05-08T13:04:50Z</time>
      </trkpt>
      <trkpt lat="44.6724" lon="3.7987">
        <ele>1126</ele>
        <time>2013-05-08T13:04:56Z</time>
      </trkpt>
      <trkpt lat="44.67231" lon="3.79868">
        <ele>1125.8</ele>
        <time>2013-05-08T13:05:05Z</time>
      </trkpt>
      <trkpt lat="44.67223" lon="3.79865">
        <ele>1125.3</ele>
        <time>2013-05-08T13:05:14Z</time>
      </trkpt>
      <trkpt lat="44.67214" lon="3.79865">
        <ele>1125.1</ele>
        <time>2013-05-08T13:05:23Z</time>
      </trkpt>
      <trkpt lat="44.67208" lon="3.79857">
        <ele>1125.1</ele>
        <time>2013-05-08T13:05:32Z</time>
      </trkpt>
      <trkpt lat="44.672" lon="3.79851">
        <ele>1124.9</ele>
        <time>2013-05-08T13:05:53Z</time>
      </trkpt>
      <trkpt lat="44.67199" lon="3.79852">
        <ele>1124.9</ele>
        <time>2013-05-08T13:05:54Z</time>
      </trkpt>
      <trkpt lat="44.67185" lon="3.79844">
        <ele>1124.7</ele>
        <time>2013-05-08T13:06:13Z</time>
      </trkpt>
      <trkpt lat="44.67178" lon="3.79837">
        <ele>1124.7</ele>
        <time>2013-05-08T13:06:18Z</time>
      </trkpt>
      <trkpt lat="44.6717" lon="3.79834">
        <ele>1124.4</ele>
        <time>2013-05-08T13:06:25Z</time>
      </trkpt>
      <trkpt lat="44.67163" lon="3.7983">
        <ele>1123.9</ele>
        <time>2013-05-08T13:06:33Z</time>
      </trkpt>
      <trkpt lat="44.67156" lon="3.79823">
        <ele>1123.9</ele>
        <time>2013-05-08T13:06:41Z</time>
      </trkpt>
      <trkpt lat="44.67149" lon="3.79817">
        <ele>1123.5</ele>
        <time>2013-05-08T13:06:48Z</time>
      </trkpt>
      <trkpt lat="44.6714" lon="3.79813">
        <ele>1123.3</ele>
        <time>2013-05-08T13:06:54Z</time>
      </trkpt>
      <trkpt lat="44.67139" lon="3.79813">
        <ele>1123.2</ele>
        <time>2013-05-08T13:06:55Z</time>
      </trkpt>
      <trkpt lat="44.67125" lon="3.79801">
        <ele>1122.3</ele>
        <time>2013-05-08T13:07:11Z</time>
      </trkpt>
      <trkpt lat="44.67118" lon="3.79794">
        <ele>1122.2</ele>
        <time>2013-05-08T13:07:20Z</time>
      </trkpt>
      <trkpt lat="44.6711" lon="3.79788">
        <ele>1122</ele>
        <time>2013-05-08T13:07:29Z</time>
      </trkpt>
      <trkpt lat="44.67103" lon="3.79782">
        <ele>1121.9</ele>
        <time>2013-05-08T13:07:37Z</time>
      </trkpt>
      <trkpt lat="44.67095" lon="3.79778">
        <ele>1121.6</ele>
        <time>2013-05-08T13:07:51Z</time>
      </trkpt>
      <trkpt lat="44.67093" lon="3.79774">
        <ele>1122.5</ele>
        <time>2013-05-08T13:08:59Z</time>
      </trkpt>
      <trkpt lat="44.67093" lon="3.79765">
        <ele>1122.6</ele>
        <time>2013-05-08T13:09:00Z</time>
      </trkpt>
      <trkpt lat="44.6709" lon="3.79755">
        <ele>1122</ele>
        <time>2013-05-08T13:09:17Z</time>
      </trkpt>
      <trkpt lat="44.67084" lon="3.79748">
        <ele>1121</ele>
        <time>2013-05-08T13:09:29Z</time>
      </trkpt>
      <trkpt lat="44.67078" lon="3.7974">
        <ele>1120.8</ele>
        <time>2013-05-08T13:09:36Z</time>
      </trkpt>
      <trkpt lat="44.67072" lon="3.79734">
        <ele>1121</ele>
        <time>2013-05-08T13:09:43Z</time>
      </trkpt>
      <trkpt lat="44.67064" lon="3.79729">
        <ele>1120.5</ele>
        <time>2013-05-08T13:09:51Z</time>
      </trkpt>
      <trkpt lat="44.67062" lon="3.79721">
        <ele>1121.1</ele>
        <time>2013-05-08T13:10:07Z</time>
      </trkpt>
      <trkpt lat="44.6706" lon="3.79717">
        <ele>1121.4</ele>
        <time>2013-05-08T13:10:08Z</time>
      </trkpt>
      <trkpt lat="44.67047" lon="3.7971">
        <ele>1121.7</ele>
        <time>2013-05-08T13:10:26Z</time>
      </trkpt>
      <trkpt lat="44.67038" lon="3.79708">
        <ele>1121.7</ele>
        <time>2013-05-08T13:10:34Z</time>
      </trkpt>
      <trkpt lat="44.6703" lon="3.79711">
        <ele>1121.5</ele>
        <time>2013-05-08T13:10:46Z</time>
      </trkpt>
      <trkpt lat="44.67022" lon="3.79709">
        <ele>1122.7</ele>
        <time>2013-05-08T13:11:27Z</time>
      </trkpt>
      <trkpt lat="44.67021" lon="3.79707">
        <ele>1122.8</ele>
        <time>2013-05-08T13:11:28Z</time>
      </trkpt>
      <trkpt lat="44.67008" lon="3.79695">
        <ele>1122.9</ele>
        <time>2013-05-08T13:11:42Z</time>
      </trkpt>
      <trkpt lat="44.67002" lon="3.79687">
        <ele>1123.2</ele>
        <time>2013-05-08T13:11:51Z</time>
      </trkpt>
      <trkpt lat="44.66995" lon="3.79679">
        <ele>1123.7</ele>
        <time>2013-05-08T13:12:19Z</time>
      </trkpt>
      <trkpt lat="44.66989" lon="3.79671">
        <ele>1124.2</ele>
        <time>2013-05-08T13:12:29Z</time>
      </trkpt>
      <trkpt lat="44.66988" lon="3.7967">
        <ele>1124.2</ele>
        <time>2013-05-08T13:12:30Z</time>
      </trkpt>
      <trkpt lat="44.66977" lon="3.79655">
        <ele>1123.5</ele>
        <time>2013-05-08T13:12:44Z</time>
      </trkpt>
      <trkpt lat="44.6697" lon="3.79647">
        <ele>1122.9</ele>
        <time>2013-05-08T13:12:51Z</time>
      </trkpt>
      <trkpt lat="44.66964" lon="3.79639">
        <ele>1122.7</ele>
        <time>2013-05-08T13:12:58Z</time>
      </trkpt>
      <trkpt lat="44.66957" lon="3.79631">
        <ele>1122.8</ele>
        <time>2013-05-08T13:13:06Z</time>
      </trkpt>
      <trkpt lat="44.6695" lon="3.79624">
        <ele>1122.7</ele>
        <time>2013-05-08T13:13:13Z</time>
      </trkpt>
      <trkpt lat="44.66944" lon="3.79617">
        <ele>1122.4</ele>
        <time>2013-05-08T13:13:20Z</time>
      </trkpt>
      <trkpt lat="44.66937" lon="3.79609">
        <ele>1122.4</ele>
        <time>2013-05-08T13:13:31Z</time>
      </trkpt>
      <trkpt lat="44.66936" lon="3.79608">
        <ele>1122.4</ele>
        <time>2013-05-08T13:13:32Z</time>
      </trkpt>
      <trkpt lat="44.66926" lon="3.79591">
        <ele>1122</ele>
        <time>2013-05-08T13:13:46Z</time>
      </trkpt>
      <trkpt lat="44.66921" lon="3.79582">
        <ele>1122.3</ele>
        <time>2013-05-08T13:13:54Z</time>
      </trkpt>
      <trkpt lat="44.66915" lon="3.79575">
        <ele>1122.5</ele>
        <time>2013-05-08T13:14:01Z</time>
      </trkpt>
      <trkpt lat="44.6691" lon="3.79565">
        <ele>1122.5</ele>
        <time>2013-05-08T13:14:08Z</time>
      </trkpt>
      <trkpt lat="44.66904" lon="3.79556">
        <ele>1123</ele>
        <time>2013-05-08T13:14:16Z</time>
      </trkpt>
      <trkpt lat="44.66898" lon="3.79547">
        <ele>1123.5</ele>
        <time>2013-05-08T13:14:23Z</time>
      </trkpt>
      <trkpt lat="44.66894" lon="3.79536">
        <ele>1123.4</ele>
        <time>2013-05-08T13:14:31Z</time>
      </trkpt>
      <trkpt lat="44.66888" lon="3.79528">
        <ele>1123.7</ele>
        <time>2013-05-08T13:14:37Z</time>
      </trkpt>
      <trkpt lat="44.66888" lon="3.79526">
        <ele>1123.7</ele>
        <time>2013-05-08T13:14:38Z</time>
      </trkpt>
      <trkpt lat="44.66878" lon="3.7951">
        <ele>1124.3</ele>
        <time>2013-05-08T13:14:51Z</time>
      </trkpt>
      <trkpt lat="44.66872" lon="3.79501">
        <ele>1125.3</ele>
        <time>2013-05-08T13:14:58Z</time>
      </trkpt>
      <trkpt lat="44.66865" lon="3.79493">
        <ele>1125.8</ele>
        <time>2013-05-08T13:15:05Z</time>
      </trkpt>
      <trkpt lat="44.6686" lon="3.79483">
        <ele>1126.9</ele>
        <time>2013-05-08T13:15:14Z</time>
      </trkpt>
      <trkpt lat="44.66855" lon="3.79474">
        <ele>1127.5</ele>
        <time>2013-05-08T13:15:21Z</time>
      </trkpt>
      <trkpt lat="44.6685" lon="3.79466">
        <ele>1127.7</ele>
        <time>2013-05-08T13:15:28Z</time>
      </trkpt>
      <trkpt lat="44.66846" lon="3.79456">
        <ele>1128.1</ele>
        <time>2013-05-08T13:15:35Z</time>
      </trkpt>
      <trkpt lat="44.66841" lon="3.79448">
        <ele>1128.4</ele>
        <time>2013-05-08T13:15:42Z</time>
      </trkpt>
      <trkpt lat="44.6684" lon="3.79447">
        <ele>1128.6</ele>
        <time>2013-05-08T13:15:43Z</time>
      </trkpt>
      <trkpt lat="44.66829" lon="3.79432">
        <ele>1129.8</ele>
        <time>2013-05-08T13:15:55Z</time>
      </trkpt>
      <trkpt lat="44.66823" lon="3.79424">
        <ele>1130.8</ele>
        <time>2013-05-08T13:16:02Z</time>
      </trkpt>
      <trkpt lat="44.66817" lon="3.79414">
        <ele>1131.5</ele>
        <time>2013-05-08T13:16:11Z</time>
      </trkpt>
      <trkpt lat="44.66813" lon="3.79404">
        <ele>1133.6</ele>
        <time>2013-05-08T13:16:46Z</time>
      </trkpt>
      <trkpt lat="44.66808" lon="3.79404">
        <ele>1134</ele>
        <time>2013-05-08T13:16:47Z</time>
      </trkpt>
      <trkpt lat="44.66799" lon="3.7939">
        <ele>1133.6</ele>
        <time>2013-05-08T13:17:01Z</time>
      </trkpt>
      <trkpt lat="44.66792" lon="3.79384">
        <ele>1134.1</ele>
        <time>2013-05-08T13:17:09Z</time>
      </trkpt>
      <trkpt lat="44.66785" lon="3.79377">
        <ele>1134.5</ele>
        <time>2013-05-08T13:17:17Z</time>
      </trkpt>
      <trkpt lat="44.66778" lon="3.79372">
        <ele>1134.8</ele>
        <time>2013-05-08T13:17:25Z</time>
      </trkpt>
      <trkpt lat="44.6677" lon="3.79367">
        <ele>1134.9</ele>
        <time>2013-05-08T13:17:33Z</time>
      </trkpt>
      <trkpt lat="44.66763" lon="3.7936">
        <ele>1135.3</ele>
        <time>2013-05-08T13:17:43Z</time>
      </trkpt>
      <trkpt lat="44.66755" lon="3.79354">
        <ele>1136</ele>
        <time>2013-05-08T13:17:54Z</time>
      </trkpt>
      <trkpt lat="44.66754" lon="3.79353">
        <ele>1136.2</ele>
        <time>2013-05-08T13:17:55Z</time>
      </trkpt>
      <trkpt lat="44.66742" lon="3.7934">
        <ele>1137.5</ele>
        <time>2013-05-08T13:18:16Z</time>
      </trkpt>
      <trkpt lat="44.66734" lon="3.79334">
        <ele>1138.7</ele>
        <time>2013-05-08T13:18:25Z</time>
      </trkpt>
      <trkpt lat="44.66727" lon="3.7933">
        <ele>1139.6</ele>
        <time>2013-05-08T13:18:33Z</time>
      </trkpt>
      <trkpt lat="44.6672" lon="3.79325">
        <ele>1140.5</ele>
        <time>2013-05-08T13:18:42Z</time>
      </trkpt>
      <trkpt lat="44.66713" lon="3.79319">
        <ele>1141.3</ele>
        <time>2013-05-08T13:18:49Z</time>
      </trkpt>
      <trkpt lat="44.66705" lon="3.79313">
        <ele>1142</ele>
        <time>2013-05-08T13:18:57Z</time>
      </trkpt>
      <trkpt lat="44.66705" lon="3.79312">
        <ele>1142.1</ele>
        <time>2013-05-08T13:18:58Z</time>
      </trkpt>
      <trkpt lat="44.66691" lon="3.793">
        <ele>1144.1</ele>
        <time>2013-05-08T13:19:15Z</time>
      </trkpt>
      <trkpt lat="44.66685" lon="3.79292">
        <ele>1144.9</ele>
        <time>2013-05-08T13:19:24Z</time>
      </trkpt>
      <trkpt lat="44.66678" lon="3.79284">
        <ele>1146</ele>
        <time>2013-05-08T13:19:33Z</time>
      </trkpt>
      <trkpt lat="44.66672" lon="3.79275">
        <ele>1147</ele>
        <time>2013-05-08T13:19:41Z</time>
      </trkpt>
      <trkpt lat="44.66664" lon="3.7927">
        <ele>1147.7</ele>
        <time>2013-05-08T13:19:48Z</time>
      </trkpt>
      <trkpt lat="44.66658" lon="3.79262">
        <ele>1148.7</ele>
        <time>2013-05-08T13:19:57Z</time>
      </trkpt>
      <trkpt lat="44.66652" lon="3.79254">
        <ele>1149.7</ele>
        <time>2013-05-08T13:20:06Z</time>
      </trkpt>
      <trkpt lat="44.66652" lon="3.79253">
        <ele>1149.8</ele>
        <time>2013-05-08T13:20:07Z</time>
      </trkpt>
      <trkpt lat="44.66645" lon="3.79233">
        <ele>1152.8</ele>
        <time>2013-05-08T13:20:27Z</time>
      </trkpt>
      <trkpt lat="44.66638" lon="3.79226">
        <ele>1153.9</ele>
        <time>2013-05-08T13:20:36Z</time>
      </trkpt>
      <trkpt lat="44.66633" lon="3.79217">
        <ele>1155.2</ele>
        <time>2013-05-08T13:20:44Z</time>
      </trkpt>
      <trkpt lat="44.66627" lon="3.79209">
        <ele>1156.3</ele>
        <time>2013-05-08T13:20:51Z</time>
      </trkpt>
      <trkpt lat="44.6662" lon="3.79203">
        <ele>1157.3</ele>
        <time>2013-05-08T13:20:58Z</time>
      </trkpt>
      <trkpt lat="44.66613" lon="3.79197">
        <ele>1158.2</ele>
        <time>2013-05-08T13:21:07Z</time>
      </trkpt>
      <trkpt lat="44.66612" lon="3.79196">
        <ele>1158.3</ele>
        <time>2013-05-08T13:21:08Z</time>
      </trkpt>
      <trkpt lat="44.66606" lon="3.79177">
        <ele>1160.8</ele>
        <time>2013-05-08T13:21:26Z</time>
      </trkpt>
      <trkpt lat="44.66602" lon="3.79166">
        <ele>1161.9</ele>
        <time>2013-05-08T13:21:34Z</time>
      </trkpt>
      <trkpt lat="44.66596" lon="3.79157">
        <ele>1162.5</ele>
        <time>2013-05-08T13:21:42Z</time>
      </trkpt>
      <trkpt lat="44.66591" lon="3.79146">
        <ele>1163.5</ele>
        <time>2013-05-08T13:21:50Z</time>
      </trkpt>
      <trkpt lat="44.66587" lon="3.79136">
        <ele>1164.3</ele>
        <time>2013-05-08T13:21:58Z</time>
      </trkpt>
      <trkpt lat="44.66585" lon="3.79124">
        <ele>1165.1</ele>
        <time>2013-05-08T13:22:05Z</time>
      </trkpt>
      <trkpt lat="44.66581" lon="3.79113">
        <ele>1165.7</ele>
        <time>2013-05-08T13:22:13Z</time>
      </trkpt>
      <trkpt lat="44.66581" lon="3.79112">
        <ele>1165.7</ele>
        <time>2013-05-08T13:22:14Z</time>
      </trkpt>
      <trkpt lat="44.66572" lon="3.79092">
        <ele>1167.6</ele>
        <time>2013-05-08T13:22:31Z</time>
      </trkpt>
      <trkpt lat="44.66568" lon="3.79082">
        <ele>1168.4</ele>
        <time>2013-05-08T13:22:40Z</time>
      </trkpt>
      <trkpt lat="44.66561" lon="3.79074">
        <ele>1169</ele>
        <time>2013-05-08T13:22:47Z</time>
      </trkpt>
      <trkpt lat="44.66555" lon="3.79068">
        <ele>1169.6</ele>
        <time>2013-05-08T13:22:53Z</time>
      </trkpt>
      <trkpt lat="44.66548" lon="3.79062">
        <ele>1169.9</ele>
        <time>2013-05-08T13:22:59Z</time>
      </trkpt>
      <trkpt lat="44.66542" lon="3.79055">
        <ele>1170.1</ele>
        <time>2013-05-08T13:23:05Z</time>
      </trkpt>
      <trkpt lat="44.66535" lon="3.79047">
        <ele>1170.2</ele>
        <time>2013-05-08T13:23:13Z</time>
      </trkpt>
      <trkpt lat="44.66529" lon="3.79038">
        <ele>1170.8</ele>
        <time>2013-05-08T13:23:21Z</time>
      </trkpt>
      <trkpt lat="44.66529" lon="3.79036">
        <ele>1170.9</ele>
        <time>2013-05-08T13:23:22Z</time>
      </trkpt>
      <trkpt lat="44.66519" lon="3.79018">
        <ele>1171.6</ele>
        <time>2013-05-08T13:23:36Z</time>
      </trkpt>
      <trkpt lat="44.66513" lon="3.7901">
        <ele>1172.1</ele>
        <time>2013-05-08T13:23:44Z</time>
      </trkpt>
      <trkpt lat="44.66509" lon="3.79001">
        <ele>1172.6</ele>
        <time>2013-05-08T13:23:52Z</time>
      </trkpt>
      <trkpt lat="44.66505" lon="3.78991">
        <ele>1173</ele>
        <time>2013-05-08T13:23:59Z</time>
      </trkpt>
      <trkpt lat="44.66499" lon="3.78981">
        <ele>1173.2</ele>
        <time>2013-05-08T13:24:06Z</time>
      </trkpt>
      <trkpt lat="44.66493" lon="3.78972">
        <ele>1173.7</ele>
        <time>2013-05-08T13:24:14Z</time>
      </trkpt>
      <trkpt lat="44.66489" lon="3.78961">
        <ele>1173.9</ele>
        <time>2013-05-08T13:24:22Z</time>
      </trkpt>
      <trkpt lat="44.66488" lon="3.7896">
        <ele>1173.9</ele>
        <time>2013-05-08T13:24:23Z</time>
      </trkpt>
      <trkpt lat="44.66479" lon="3.78943">
        <ele>1174</ele>
        <time>2013-05-08T13:24:37Z</time>
      </trkpt>
      <trkpt lat="44.66473" lon="3.78934">
        <ele>1174.4</ele>
        <time>2013-05-08T13:24:45Z</time>
      </trkpt>
      <trkpt lat="44.66467" lon="3.78926">
        <ele>1174.7</ele>
        <time>2013-05-08T13:24:53Z</time>
      </trkpt>
      <trkpt lat="44.6646" lon="3.78918">
        <ele>1174.8</ele>
        <time>2013-05-08T13:25:01Z</time>
      </trkpt>
      <trkpt lat="44.66452" lon="3.78912">
        <ele>1174.8</ele>
        <time>2013-05-08T13:25:08Z</time>
      </trkpt>
      <trkpt lat="44.66445" lon="3.78906">
        <ele>1175.3</ele>
        <time>2013-05-08T13:25:16Z</time>
      </trkpt>
      <trkpt lat="44.66438" lon="3.78898">
        <ele>1175.8</ele>
        <time>2013-05-08T13:25:45Z</time>
      </trkpt>
      <trkpt lat="44.66437" lon="3.78897">
        <ele>1175.8</ele>
        <time>2013-05-08T13:25:46Z</time>
      </trkpt>
      <trkpt lat="44.66425" lon="3.78884">
        <ele>1175.5</ele>
        <time>2013-05-08T13:25:58Z</time>
      </trkpt>
      <trkpt lat="44.66418" lon="3.78877">
        <ele>1175.6</ele>
        <time>2013-05-08T13:26:07Z</time>
      </trkpt>
      <trkpt lat="44.66415" lon="3.78866">
        <ele>1175.3</ele>
        <time>2013-05-08T13:26:22Z</time>
      </trkpt>
      <trkpt lat="44.66408" lon="3.7886">
        <ele>1175</ele>
        <time>2013-05-08T13:26:56Z</time>
      </trkpt>
      <trkpt lat="44.66407" lon="3.7886">
        <ele>1175</ele>
        <time>2013-05-08T13:26:57Z</time>
      </trkpt>
      <trkpt lat="44.66393" lon="3.78851">
        <ele>1174.7</ele>
        <time>2013-05-08T13:27:13Z</time>
      </trkpt>
      <trkpt lat="44.66385" lon="3.78845">
        <ele>1174.4</ele>
        <time>2013-05-08T13:27:28Z</time>
      </trkpt>
      <trkpt lat="44.66377" lon="3.7884">
        <ele>1174.2</ele>
        <time>2013-05-08T13:27:39Z</time>
      </trkpt>
      <trkpt lat="44.66371" lon="3.78833">
        <ele>1174.4</ele>
        <time>2013-05-08T13:27:52Z</time>
      </trkpt>
      <trkpt lat="44.66362" lon="3.7883">
        <ele>1174.2</ele>
        <time>2013-05-08T13:28:00Z</time>
      </trkpt>
      <trkpt lat="44.66361" lon="3.78829">
        <ele>1174.2</ele>
        <time>2013-05-08T13:28:01Z</time>
      </trkpt>
      <trkpt lat="44.66349" lon="3.78817">
        <ele>1174.2</ele>
        <time>2013-05-08T13:28:16Z</time>
      </trkpt>
      <trkpt lat="44.66344" lon="3.78807">
        <ele>1174.4</ele>
        <time>2013-05-08T13:28:50Z</time>
      </trkpt>
      <trkpt lat="44.6634" lon="3.78797">
        <ele>1174.5</ele>
        <time>2013-05-08T13:28:59Z</time>
      </trkpt>
      <trkpt lat="44.66335" lon="3.78788">
        <ele>1174.4</ele>
        <time>2013-05-08T13:29:06Z</time>
      </trkpt>
      <trkpt lat="44.66335" lon="3.78786">
        <ele>1174.4</ele>
        <time>2013-05-08T13:29:07Z</time>
      </trkpt>
      <trkpt lat="44.66326" lon="3.78768">
        <ele>1174.2</ele>
        <time>2013-05-08T13:29:22Z</time>
      </trkpt>
      <trkpt lat="44.66321" lon="3.78758">
        <ele>1174.1</ele>
        <time>2013-05-08T13:29:31Z</time>
      </trkpt>
      <trkpt lat="44.66317" lon="3.78748">
        <ele>1174</ele>
        <time>2013-05-08T13:29:39Z</time>
      </trkpt>
      <trkpt lat="44.66313" lon="3.78736">
        <ele>1173.9</ele>
        <time>2013-05-08T13:29:47Z</time>
      </trkpt>
      <trkpt lat="44.6631" lon="3.78726">
        <ele>1174.2</ele>
        <time>2013-05-08T13:29:54Z</time>
      </trkpt>
      <trkpt lat="44.66306" lon="3.78716">
        <ele>1174.3</ele>
        <time>2013-05-08T13:30:01Z</time>
      </trkpt>
      <trkpt lat="44.66302" lon="3.78706">
        <ele>1174.3</ele>
        <time>2013-05-08T13:30:07Z</time>
      </trkpt>
      <trkpt lat="44.66301" lon="3.78705">
        <ele>1174.4</ele>
        <time>2013-05-08T13:30:08Z</time>
      </trkpt>
      <trkpt lat="44.66292" lon="3.78686">
        <ele>1174.5</ele>
        <time>2013-05-08T13:30:24Z</time>
      </trkpt>
      <trkpt lat="44.66296" lon="3.78677">
        <ele>1174.6</ele>
        <time>2013-05-08T13:30:56Z</time>
      </trkpt>
      <trkpt lat="44.6629" lon="3.78669">
        <ele>1174.2</ele>
        <time>2013-05-08T13:31:26Z</time>
      </trkpt>
      <trkpt lat="44.66289" lon="3.78668">
        <ele>1174.2</ele>
        <time>2013-05-08T13:31:27Z</time>
      </trkpt>
      <trkpt lat="44.66279" lon="3.78652">
        <ele>1173.5</ele>
        <time>2013-05-08T13:31:41Z</time>
      </trkpt>
      <trkpt lat="44.66273" lon="3.78644">
        <ele>1173.6</ele>
        <time>2013-05-08T13:31:52Z</time>
      </trkpt>
      <trkpt lat="44.66269" lon="3.78633">
        <ele>1173.6</ele>
        <time>2013-05-08T13:32:07Z</time>
      </trkpt>
      <trkpt lat="44.66262" lon="3.78626">
        <ele>1173.5</ele>
        <time>2013-05-08T13:32:12Z</time>
      </trkpt>
      <trkpt lat="44.66258" lon="3.78617">
        <ele>1173.4</ele>
        <time>2013-05-08T13:32:19Z</time>
      </trkpt>
      <trkpt lat="44.66252" lon="3.78607">
        <ele>1173.2</ele>
        <time>2013-05-08T13:32:27Z</time>
      </trkpt>
      <trkpt lat="44.66251" lon="3.78606">
        <ele>1173.2</ele>
        <time>2013-05-08T13:32:28Z</time>
      </trkpt>
      <trkpt lat="44.6624" lon="3.78592">
        <ele>1172.7</ele>
        <time>2013-05-08T13:32:43Z</time>
      </trkpt>
      <trkpt lat="44.66235" lon="3.78582">
        <ele>1172.5</ele>
        <time>2013-05-08T13:33:33Z</time>
      </trkpt>
      <trkpt lat="44.66234" lon="3.7858">
        <ele>1172.5</ele>
        <time>2013-05-08T13:33:34Z</time>
      </trkpt>
      <trkpt lat="44.66227" lon="3.7856">
        <ele>1172</ele>
        <time>2013-05-08T13:33:49Z</time>
      </trkpt>
      <trkpt lat="44.66224" lon="3.7855">
        <ele>1171.8</ele>
        <time>2013-05-08T13:33:57Z</time>
      </trkpt>
      <trkpt lat="44.66219" lon="3.78541">
        <ele>1172</ele>
        <time>2013-05-08T13:34:04Z</time>
      </trkpt>
      <trkpt lat="44.66214" lon="3.78532">
        <ele>1172.1</ele>
        <time>2013-05-08T13:34:10Z</time>
      </trkpt>
      <trkpt lat="44.66208" lon="3.78523">
        <ele>1172.1</ele>
        <time>2013-05-08T13:34:17Z</time>
      </trkpt>
      <trkpt lat="44.66204" lon="3.78513">
        <ele>1172.2</ele>
        <time>2013-05-08T13:34:24Z</time>
      </trkpt>
      <trkpt lat="44.66199" lon="3.78504">
        <ele>1172.2</ele>
        <time>2013-05-08T13:34:31Z</time>
      </trkpt>
      <trkpt lat="44.66193" lon="3.78494">
        <ele>1172.1</ele>
        <time>2013-05-08T13:34:40Z</time>
      </trkpt>
      <trkpt lat="44.66192" lon="3.78493">
        <ele>1172</ele>
        <time>2013-05-08T13:34:41Z</time>
      </trkpt>
      <trkpt lat="44.66183" lon="3.78475">
        <ele>1171.9</ele>
        <time>2013-05-08T13:34:54Z</time>
      </trkpt>
      <trkpt lat="44.66177" lon="3.78467">
        <ele>1171.7</ele>
        <time>2013-05-08T13:35:01Z</time>
      </trkpt>
      <trkpt lat="44.66171" lon="3.78458">
        <ele>1171.8</ele>
        <time>2013-05-08T13:35:08Z</time>
      </trkpt>
      <trkpt lat="44.66165" lon="3.7845">
        <ele>1171.8</ele>
        <time>2013-05-08T13:35:15Z</time>
      </trkpt>
      <trkpt lat="44.66159" lon="3.78443">
        <ele>1171.1</ele>
        <time>2013-05-08T13:35:22Z</time>
      </trkpt>
      <trkpt lat="44.66153" lon="3.78436">
        <ele>1170.4</ele>
        <time>2013-05-08T13:35:28Z</time>
      </trkpt>
      <trkpt lat="44.66146" lon="3.7843">
        <ele>1170.3</ele>
        <time>2013-05-08T13:35:35Z</time>
      </trkpt>
      <trkpt lat="44.66139" lon="3.78425">
        <ele>1170.1</ele>
        <time>2013-05-08T13:35:42Z</time>
      </trkpt>
      <trkpt lat="44.66137" lon="3.78424">
        <ele>1170.1</ele>
        <time>2013-05-08T13:35:43Z</time>
      </trkpt>
      <trkpt lat="44.66123" lon="3.78415">
        <ele>1170.6</ele>
        <time>2013-05-08T13:36:15Z</time>
      </trkpt>
      <trkpt lat="44.66115" lon="3.78411">
        <ele>1170.9</ele>
        <time>2013-05-08T13:36:21Z</time>
      </trkpt>
      <trkpt lat="44.66108" lon="3.78404">
        <ele>1170.8</ele>
        <time>2013-05-08T13:36:29Z</time>
      </trkpt>
      <trkpt lat="44.66101" lon="3.78397">
        <ele>1171.1</ele>
        <time>2013-05-08T13:36:39Z</time>
      </trkpt>
      <trkpt lat="44.66096" lon="3.78387">
        <ele>1171.5</ele>
        <time>2013-05-08T13:36:47Z</time>
      </trkpt>
      <trkpt lat="44.66096" lon="3.78386">
        <ele>1171.5</ele>
        <time>2013-05-08T13:36:48Z</time>
      </trkpt>
      <trkpt lat="44.66087" lon="3.78367">
        <ele>1171.8</ele>
        <time>2013-05-08T13:37:02Z</time>
      </trkpt>
      <trkpt lat="44.66082" lon="3.78357">
        <ele>1171.9</ele>
        <time>2013-05-08T13:37:10Z</time>
      </trkpt>
      <trkpt lat="44.66078" lon="3.78346">
        <ele>1171.9</ele>
        <time>2013-05-08T13:37:20Z</time>
      </trkpt>
      <trkpt lat="44.66075" lon="3.78338">
        <ele>1172.1</ele>
        <time>2013-05-08T13:39:22Z</time>
      </trkpt>
      <trkpt lat="44.66074" lon="3.78333">
        <ele>1171.9</ele>
        <time>2013-05-08T13:39:23Z</time>
      </trkpt>
      <trkpt lat="44.6607" lon="3.78315">
        <ele>1172.5</ele>
        <time>2013-05-08T13:39:43Z</time>
      </trkpt>
      <trkpt lat="44.6607" lon="3.78312">
        <ele>1172.7</ele>
        <time>2013-05-08T13:40:38Z</time>
      </trkpt>
      <trkpt lat="44.66073" lon="3.783">
        <ele>1172.8</ele>
        <time>2013-05-08T13:40:39Z</time>
      </trkpt>
      <trkpt lat="44.66073" lon="3.78289">
        <ele>1172.9</ele>
        <time>2013-05-08T13:41:45Z</time>
      </trkpt>
      <trkpt lat="44.66073" lon="3.78288">
        <ele>1172.9</ele>
        <time>2013-05-08T13:41:46Z</time>
      </trkpt>
      <trkpt lat="44.66075" lon="3.78267">
        <ele>1173.4</ele>
        <time>2013-05-08T13:42:00Z</time>
      </trkpt>
      <trkpt lat="44.66072" lon="3.78255">
        <ele>1173.9</ele>
        <time>2013-05-08T13:42:08Z</time>
      </trkpt>
      <trkpt lat="44.66068" lon="3.78244">
        <ele>1173.8</ele>
        <time>2013-05-08T13:42:17Z</time>
      </trkpt>
      <trkpt lat="44.66063" lon="3.78234">
        <ele>1173.7</ele>
        <time>2013-05-08T13:42:25Z</time>
      </trkpt>
      <trkpt lat="44.66059" lon="3.78225">
        <ele>1173.6</ele>
        <time>2013-05-08T13:42:32Z</time>
      </trkpt>
      <trkpt lat="44.66055" lon="3.78215">
        <ele>1173.5</ele>
        <time>2013-05-08T13:42:39Z</time>
      </trkpt>
      <trkpt lat="44.6605" lon="3.78205">
        <ele>1173.6</ele>
        <time>2013-05-08T13:42:46Z</time>
      </trkpt>
      <trkpt lat="44.6605" lon="3.78204">
        <ele>1173.6</ele>
        <time>2013-05-08T13:42:47Z</time>
      </trkpt>
      <trkpt lat="44.66043" lon="3.78184">
        <ele>1173.6</ele>
        <time>2013-05-08T13:43:00Z</time>
      </trkpt>
      <trkpt lat="44.66041" lon="3.78172">
        <ele>1173.7</ele>
        <time>2013-05-08T13:43:07Z</time>
      </trkpt>
      <trkpt lat="44.66037" lon="3.78161">
        <ele>1173.6</ele>
        <time>2013-05-08T13:43:15Z</time>
      </trkpt>
      <trkpt lat="44.66033" lon="3.78151">
        <ele>1173.6</ele>
        <time>2013-05-08T13:43:23Z</time>
      </trkpt>
      <trkpt lat="44.66029" lon="3.7814">
        <ele>1173.5</ele>
        <time>2013-05-08T13:43:31Z</time>
      </trkpt>
      <trkpt lat="44.66024" lon="3.7813">
        <ele>1173.4</ele>
        <time>2013-05-08T13:43:39Z</time>
      </trkpt>
      <trkpt lat="44.66019" lon="3.7812">
        <ele>1173.3</ele>
        <time>2013-05-08T13:43:46Z</time>
      </trkpt>
      <trkpt lat="44.66014" lon="3.7811">
        <ele>1173.4</ele>
        <time>2013-05-08T13:43:54Z</time>
      </trkpt>
      <trkpt lat="44.66014" lon="3.78108">
        <ele>1173.5</ele>
        <time>2013-05-08T13:43:55Z</time>
      </trkpt>
      <trkpt lat="44.66006" lon="3.7809">
        <ele>1173.7</ele>
        <time>2013-05-08T13:44:08Z</time>
      </trkpt>
      <trkpt lat="44.66001" lon="3.7808">
        <ele>1173.8</ele>
        <time>2013-05-08T13:44:16Z</time>
      </trkpt>
      <trkpt lat="44.65995" lon="3.7807">
        <ele>1174.1</ele>
        <time>2013-05-08T13:44:24Z</time>
      </trkpt>
      <trkpt lat="44.65988" lon="3.78062">
        <ele>1174.4</ele>
        <time>2013-05-08T13:44:32Z</time>
      </trkpt>
      <trkpt lat="44.65985" lon="3.78052">
        <ele>1174.8</ele>
        <time>2013-05-08T13:44:39Z</time>
      </trkpt>
      <trkpt lat="44.6598" lon="3.78044">
        <ele>1175.2</ele>
        <time>2013-05-08T13:44:45Z</time>
      </trkpt>
      <trkpt lat="44.65976" lon="3.78034">
        <ele>1175.4</ele>
        <time>2013-05-08T13:44:52Z</time>
      </trkpt>
      <trkpt lat="44.65973" lon="3.78023">
        <ele>1175.3</ele>
        <time>2013-05-08T13:44:59Z</time>
      </trkpt>
      <trkpt lat="44.65972" lon="3.78022">
        <ele>1175.3</ele>
        <time>2013-05-08T13:45:00Z</time>
      </trkpt>
      <trkpt lat="44.65968" lon="3.78002">
        <ele>1176.2</ele>
        <time>2013-05-08T13:45:13Z</time>
      </trkpt>
      <trkpt lat="44.65966" lon="3.7799">
        <ele>1176.8</ele>
        <time>2013-05-08T13:45:21Z</time>
      </trkpt>
      <trkpt lat="44.65965" lon="3.77977">
        <ele>1177.6</ele>
        <time>2013-05-08T13:45:30Z</time>
      </trkpt>
      <trkpt lat="44.65962" lon="3.77966">
        <ele>1178.4</ele>
        <time>2013-05-08T13:45:37Z</time>
      </trkpt>
      <trkpt lat="44.6596" lon="3.77954">
        <ele>1179</ele>
        <time>2013-05-08T13:45:45Z</time>
      </trkpt>
      <trkpt lat="44.65955" lon="3.77945">
        <ele>1178.8</ele>
        <time>2013-05-08T13:45:50Z</time>
      </trkpt>
      <trkpt lat="44.65952" lon="3.77934">
        <ele>1178.2</ele>
        <time>2013-05-08T13:45:57Z</time>
      </trkpt>
      <trkpt lat="44.65947" lon="3.77924">
        <ele>1177.1</ele>
        <time>2013-05-08T13:46:04Z</time>
      </trkpt>
      <trkpt lat="44.65946" lon="3.77924">
        <ele>1176.9</ele>
        <time>2013-05-08T13:46:05Z</time>
      </trkpt>
      <trkpt lat="44.65931" lon="3.77928">
        <ele>1176.1</ele>
        <time>2013-05-08T13:46:19Z</time>
      </trkpt>
      <trkpt lat="44.65924" lon="3.77934">
        <ele>1176</ele>
        <time>2013-05-08T13:46:25Z</time>
      </trkpt>
      <trkpt lat="44.65917" lon="3.7794">
        <ele>1176</ele>
        <time>2013-05-08T13:46:31Z</time>
      </trkpt>
      <trkpt lat="44.65909" lon="3.77945">
        <ele>1176</ele>
        <time>2013-05-08T13:46:38Z</time>
      </trkpt>
      <trkpt lat="44.65901" lon="3.77946">
        <ele>1175.4</ele>
        <time>2013-05-08T13:46:46Z</time>
      </trkpt>
      <trkpt lat="44.65893" lon="3.77949">
        <ele>1175.1</ele>
        <time>2013-05-08T13:46:55Z</time>
      </trkpt>
      <trkpt lat="44.65885" lon="3.77953">
        <ele>1175.7</ele>
        <time>2013-05-08T13:47:04Z</time>
      </trkpt>
      <trkpt lat="44.65876" lon="3.77957">
        <ele>1176.7</ele>
        <time>2013-05-08T13:47:13Z</time>
      </trkpt>
      <trkpt lat="44.65875" lon="3.77958">
        <ele>1177</ele>
        <time>2013-05-08T13:47:14Z</time>
      </trkpt>
      <trkpt lat="44.65862" lon="3.77968">
        <ele>1178.3</ele>
        <time>2013-05-08T13:47:27Z</time>
      </trkpt>
      <trkpt lat="44.65854" lon="3.77974">
        <ele>1178.5</ele>
        <time>2013-05-08T13:47:34Z</time>
      </trkpt>
      <trkpt lat="44.65846" lon="3.77978">
        <ele>1178.8</ele>
        <time>2013-05-08T13:47:40Z</time>
      </trkpt>
      <trkpt lat="44.65838" lon="3.77983">
        <ele>1179.7</ele>
        <time>2013-05-08T13:47:46Z</time>
      </trkpt>
      <trkpt lat="44.65832" lon="3.77991">
        <ele>1180.1</ele>
        <time>2013-05-08T13:47:55Z</time>
      </trkpt>
      <trkpt lat="44.65826" lon="3.77999">
        <ele>1180.6</ele>
        <time>2013-05-08T13:48:04Z</time>
      </trkpt>
      <trkpt lat="44.65823" lon="3.78009">
        <ele>1180.4</ele>
        <time>2013-05-08T13:50:33Z</time>
      </trkpt>
      <trkpt lat="44.65819" lon="3.78016">
        <ele>1180.3</ele>
        <time>2013-05-08T13:50:34Z</time>
      </trkpt>
      <trkpt lat="44.65811" lon="3.78024">
        <ele>1180.6</ele>
        <time>2013-05-08T13:50:42Z</time>
      </trkpt>
      <trkpt lat="44.65804" lon="3.7803">
        <ele>1180.5</ele>
        <time>2013-05-08T13:50:50Z</time>
      </trkpt>
      <trkpt lat="44.65799" lon="3.78039">
        <ele>1180.7</ele>
        <time>2013-05-08T13:50:59Z</time>
      </trkpt>
      <trkpt lat="44.65792" lon="3.78045">
        <ele>1180.7</ele>
        <time>2013-05-08T13:51:13Z</time>
      </trkpt>
      <trkpt lat="44.65786" lon="3.78055">
        <ele>1181.2</ele>
        <time>2013-05-08T13:51:52Z</time>
      </trkpt>
      <trkpt lat="44.65786" lon="3.78056">
        <ele>1181.2</ele>
        <time>2013-05-08T13:51:53Z</time>
      </trkpt>
      <trkpt lat="44.65774" lon="3.78072">
        <ele>1181.6</ele>
        <time>2013-05-08T13:52:03Z</time>
      </trkpt>
      <trkpt lat="44.65767" lon="3.78079">
        <ele>1181.7</ele>
        <time>2013-05-08T13:52:11Z</time>
      </trkpt>
      <trkpt lat="44.65759" lon="3.78085">
        <ele>1181.6</ele>
        <time>2013-05-08T13:52:19Z</time>
      </trkpt>
      <trkpt lat="44.65754" lon="3.78092">
        <ele>1181.9</ele>
        <time>2013-05-08T13:52:26Z</time>
      </trkpt>
      <trkpt lat="44.65749" lon="3.781">
        <ele>1181.9</ele>
        <time>2013-05-08T13:52:32Z</time>
      </trkpt>
      <trkpt lat="44.65742" lon="3.78107">
        <ele>1181.5</ele>
        <time>2013-05-08T13:52:39Z</time>
      </trkpt>
      <trkpt lat="44.65735" lon="3.78114">
        <ele>1181.4</ele>
        <time>2013-05-08T13:52:48Z</time>
      </trkpt>
      <trkpt lat="44.65731" lon="3.78123">
        <ele>1181.4</ele>
        <time>2013-05-08T13:52:57Z</time>
      </trkpt>
      <trkpt lat="44.6573" lon="3.78125">
        <ele>1181.4</ele>
        <time>2013-05-08T13:52:58Z</time>
      </trkpt>
      <trkpt lat="44.65718" lon="3.78139">
        <ele>1181.8</ele>
        <time>2013-05-08T13:53:09Z</time>
      </trkpt>
      <trkpt lat="44.65711" lon="3.78148">
        <ele>1182.2</ele>
        <time>2013-05-08T13:53:19Z</time>
      </trkpt>
      <trkpt lat="44.65705" lon="3.78156">
        <ele>1182.4</ele>
        <time>2013-05-08T13:53:25Z</time>
      </trkpt>
      <trkpt lat="44.65699" lon="3.78164">
        <ele>1182.3</ele>
        <time>2013-05-08T13:53:31Z</time>
      </trkpt>
      <trkpt lat="44.65695" lon="3.78173">
        <ele>1182.4</ele>
        <time>2013-05-08T13:53:36Z</time>
      </trkpt>
      <trkpt lat="44.65692" lon="3.78184">
        <ele>1182.6</ele>
        <time>2013-05-08T13:53:43Z</time>
      </trkpt>
      <trkpt lat="44.65687" lon="3.78195">
        <ele>1182.7</ele>
        <time>2013-05-08T13:53:51Z</time>
      </trkpt>
      <trkpt lat="44.65683" lon="3.78205">
        <ele>1182.8</ele>
        <time>2013-05-08T13:53:59Z</time>
      </trkpt>
      <trkpt lat="44.65682" lon="3.78207">
        <ele>1182.9</ele>
        <time>2013-05-08T13:54:00Z</time>
      </trkpt>
      <trkpt lat="44.65672" lon="3.78223">
        <ele>1183.7</ele>
        <time>2013-05-08T13:54:15Z</time>
      </trkpt>
      <trkpt lat="44.65665" lon="3.7823">
        <ele>1184.1</ele>
        <time>2013-05-08T13:54:22Z</time>
      </trkpt>
      <trkpt lat="44.6566" lon="3.7824">
        <ele>1184.6</ele>
        <time>2013-05-08T13:54:29Z</time>
      </trkpt>
      <trkpt lat="44.65655" lon="3.78247">
        <ele>1184.6</ele>
        <time>2013-05-08T13:54:35Z</time>
      </trkpt>
      <trkpt lat="44.6565" lon="3.78257">
        <ele>1184.9</ele>
        <time>2013-05-08T13:54:42Z</time>
      </trkpt>
      <trkpt lat="44.65644" lon="3.78263">
        <ele>1185.3</ele>
        <time>2013-05-08T13:54:47Z</time>
      </trkpt>
      <trkpt lat="44.65639" lon="3.78274">
        <ele>1185.6</ele>
        <time>2013-05-08T13:54:54Z</time>
      </trkpt>
      <trkpt lat="44.65635" lon="3.78284">
        <ele>1185.8</ele>
        <time>2013-05-08T13:55:02Z</time>
      </trkpt>
      <trkpt lat="44.65635" lon="3.78285">
        <ele>1185.8</ele>
        <time>2013-05-08T13:55:03Z</time>
      </trkpt>
      <trkpt lat="44.65628" lon="3.78304">
        <ele>1186.9</ele>
        <time>2013-05-08T13:55:19Z</time>
      </trkpt>
      <trkpt lat="44.65625" lon="3.78315">
        <ele>1187.3</ele>
        <time>2013-05-08T13:55:24Z</time>
      </trkpt>
      <trkpt lat="44.65622" lon="3.78326">
        <ele>1187.1</ele>
        <time>2013-05-08T13:55:30Z</time>
      </trkpt>
      <trkpt lat="44.65618" lon="3.78337">
        <ele>1187.3</ele>
        <time>2013-05-08T13:55:37Z</time>
      </trkpt>
      <trkpt lat="44.65617" lon="3.78349">
        <ele>1188.1</ele>
        <time>2013-05-08T13:55:45Z</time>
      </trkpt>
      <trkpt lat="44.65612" lon="3.78357">
        <ele>1188.2</ele>
        <time>2013-05-08T13:55:52Z</time>
      </trkpt>
      <trkpt lat="44.65609" lon="3.78367">
        <ele>1188.5</ele>
        <time>2013-05-08T13:55:57Z</time>
      </trkpt>
      <trkpt lat="44.65605" lon="3.78378">
        <ele>1188.9</ele>
        <time>2013-05-08T13:56:03Z</time>
      </trkpt>
      <trkpt lat="44.65604" lon="3.7838">
        <ele>1189</ele>
        <time>2013-05-08T13:56:04Z</time>
      </trkpt>
      <trkpt lat="44.65602" lon="3.78401">
        <ele>1190.1</ele>
        <time>2013-05-08T13:56:21Z</time>
      </trkpt>
      <trkpt lat="44.65604" lon="3.78413">
        <ele>1190.4</ele>
        <time>2013-05-08T13:56:28Z</time>
      </trkpt>
      <trkpt lat="44.65601" lon="3.78425">
        <ele>1190.8</ele>
        <time>2013-05-08T13:56:38Z</time>
      </trkpt>
      <trkpt lat="44.656" lon="3.78437">
        <ele>1190.9</ele>
        <time>2013-05-08T13:56:50Z</time>
      </trkpt>
      <trkpt lat="44.656" lon="3.78449">
        <ele>1191</ele>
        <time>2013-05-08T13:56:57Z</time>
      </trkpt>
      <trkpt lat="44.65602" lon="3.78459">
        <ele>1191</ele>
        <time>2013-05-08T13:57:00Z</time>
      </trkpt>
      <trkpt lat="44.65598" lon="3.7847">
        <ele>1191.1</ele>
        <time>2013-05-08T13:57:05Z</time>
      </trkpt>
      <trkpt lat="44.65597" lon="3.78472">
        <ele>1191.1</ele>
        <time>2013-05-08T13:57:06Z</time>
      </trkpt>
      <trkpt lat="44.65598" lon="3.78494">
        <ele>1191.7</ele>
        <time>2013-05-08T13:57:24Z</time>
      </trkpt>
      <trkpt lat="44.656" lon="3.78505">
        <ele>1191.9</ele>
        <time>2013-05-08T13:57:31Z</time>
      </trkpt>
      <trkpt lat="44.65599" lon="3.78517">
        <ele>1192.1</ele>
        <time>2013-05-08T13:57:36Z</time>
      </trkpt>
      <trkpt lat="44.656" lon="3.78529">
        <ele>1192.1</ele>
        <time>2013-05-08T13:57:44Z</time>
      </trkpt>
      <trkpt lat="44.656" lon="3.78541">
        <ele>1192.8</ele>
        <time>2013-05-08T13:58:04Z</time>
      </trkpt>
      <trkpt lat="44.65597" lon="3.78553">
        <ele>1192.8</ele>
        <time>2013-05-08T13:58:13Z</time>
      </trkpt>
      <trkpt lat="44.65597" lon="3.78554">
        <ele>1192.8</ele>
        <time>2013-05-08T13:58:14Z</time>
      </trkpt>
      <trkpt lat="44.65597" lon="3.78575">
        <ele>1192.4</ele>
        <time>2013-05-08T13:58:29Z</time>
      </trkpt>
      <trkpt lat="44.65595" lon="3.78587">
        <ele>1192</ele>
        <time>2013-05-08T13:58:38Z</time>
      </trkpt>
      <trkpt lat="44.65595" lon="3.78599">
        <ele>1191.8</ele>
        <time>2013-05-08T13:58:54Z</time>
      </trkpt>
      <trkpt lat="44.65594" lon="3.78606">
        <ele>1191.8</ele>
        <time>2013-05-08T13:59:34Z</time>
      </trkpt>
      <trkpt lat="44.65598" lon="3.78618">
        <ele>1191.6</ele>
        <time>2013-05-08T13:59:35Z</time>
      </trkpt>
      <trkpt lat="44.65597" lon="3.7863">
        <ele>1191.9</ele>
        <time>2013-05-08T13:59:51Z</time>
      </trkpt>
      <trkpt lat="44.65597" lon="3.78642">
        <ele>1191.5</ele>
        <time>2013-05-08T14:00:05Z</time>
      </trkpt>
      <trkpt lat="44.65594" lon="3.78653">
        <ele>1191.6</ele>
        <time>2013-05-08T14:00:13Z</time>
      </trkpt>
      <trkpt lat="44.65594" lon="3.78665">
        <ele>1191.6</ele>
        <time>2013-05-08T14:00:21Z</time>
      </trkpt>
      <trkpt lat="44.65591" lon="3.78677">
        <ele>1191.4</ele>
        <time>2013-05-08T14:00:30Z</time>
      </trkpt>
      <trkpt lat="44.65592" lon="3.78689">
        <ele>1191.1</ele>
        <time>2013-05-08T14:00:38Z</time>
      </trkpt>
      <trkpt lat="44.65592" lon="3.7869">
        <ele>1191.1</ele>
        <time>2013-05-08T14:00:39Z</time>
      </trkpt>
      <trkpt lat="44.65585" lon="3.78709">
        <ele>1190.4</ele>
        <time>2013-05-08T14:00:55Z</time>
      </trkpt>
      <trkpt lat="44.65579" lon="3.78718">
        <ele>1190.8</ele>
        <time>2013-05-08T14:01:07Z</time>
      </trkpt>
      <trkpt lat="44.6558" lon="3.78729">
        <ele>1190.9</ele>
        <time>2013-05-08T14:01:12Z</time>
      </trkpt>
      <trkpt lat="44.65576" lon="3.7874">
        <ele>1190.6</ele>
        <time>2013-05-08T14:01:19Z</time>
      </trkpt>
      <trkpt lat="44.65571" lon="3.7875">
        <ele>1190.2</ele>
        <time>2013-05-08T14:01:28Z</time>
      </trkpt>
      <trkpt lat="44.65565" lon="3.78759">
        <ele>1190.3</ele>
        <time>2013-05-08T14:01:36Z</time>
      </trkpt>
      <trkpt lat="44.65564" lon="3.78771">
        <ele>1190.1</ele>
        <time>2013-05-08T14:01:43Z</time>
      </trkpt>
      <trkpt lat="44.65563" lon="3.78772">
        <ele>1190.1</ele>
        <time>2013-05-08T14:01:44Z</time>
      </trkpt>
      <trkpt lat="44.65557" lon="3.78791">
        <ele>1189.9</ele>
        <time>2013-05-08T14:01:54Z</time>
      </trkpt>
      <trkpt lat="44.65556" lon="3.78803">
        <ele>1189.8</ele>
        <time>2013-05-08T14:01:58Z</time>
      </trkpt>
      <trkpt lat="44.65555" lon="3.78814">
        <ele>1189.7</ele>
        <time>2013-05-08T14:02:04Z</time>
      </trkpt>
      <trkpt lat="44.65554" lon="3.78826">
        <ele>1189.4</ele>
        <time>2013-05-08T14:02:10Z</time>
      </trkpt>
      <trkpt lat="44.65551" lon="3.78838">
        <ele>1189.3</ele>
        <time>2013-05-08T14:02:19Z</time>
      </trkpt>
      <trkpt lat="44.65553" lon="3.78849">
        <ele>1188.8</ele>
        <time>2013-05-08T14:02:27Z</time>
      </trkpt>
      <trkpt lat="44.65553" lon="3.78861">
        <ele>1188.7</ele>
        <time>2013-05-08T14:02:34Z</time>
      </trkpt>
      <trkpt lat="44.65554" lon="3.78873">
        <ele>1188.6</ele>
        <time>2013-05-08T14:02:39Z</time>
      </trkpt>
      <trkpt lat="44.65551" lon="3.78883">
        <ele>1188.3</ele>
        <time>2013-05-08T14:02:42Z</time>
      </trkpt>
      <trkpt lat="44.65549" lon="3.78894">
        <ele>1188.3</ele>
        <time>2013-05-08T14:02:48Z</time>
      </trkpt>
      <trkpt lat="44.65548" lon="3.78896">
        <ele>1188.2</ele>
        <time>2013-05-08T14:02:49Z</time>
      </trkpt>
      <trkpt lat="44.65544" lon="3.78917">
        <ele>1187.5</ele>
        <time>2013-05-08T14:03:04Z</time>
      </trkpt>
      <trkpt lat="44.65541" lon="3.78928">
        <ele>1187.5</ele>
        <time>2013-05-08T14:03:13Z</time>
      </trkpt>
      <trkpt lat="44.65537" lon="3.78939">
        <ele>1187.1</ele>
        <time>2013-05-08T14:03:22Z</time>
      </trkpt>
      <trkpt lat="44.65536" lon="3.78951">
        <ele>1187</ele>
        <time>2013-05-08T14:03:30Z</time>
      </trkpt>
      <trkpt lat="44.65535" lon="3.78962">
        <ele>1186.9</ele>
        <time>2013-05-08T14:03:38Z</time>
      </trkpt>
      <trkpt lat="44.65533" lon="3.78975">
        <ele>1186.5</ele>
        <time>2013-05-08T14:03:46Z</time>
      </trkpt>
      <trkpt lat="44.65531" lon="3.78987">
        <ele>1186.5</ele>
        <time>2013-05-08T14:03:53Z</time>
      </trkpt>
      <trkpt lat="44.65532" lon="3.78988">
        <ele>1186.4</ele>
        <time>2013-05-08T14:03:54Z</time>
      </trkpt>
      <trkpt lat="44.65529" lon="3.7901">
        <ele>1185.6</ele>
        <time>2013-05-08T14:04:10Z</time>
      </trkpt>
      <trkpt lat="44.65529" lon="3.79021">
        <ele>1185.3</ele>
        <time>2013-05-08T14:04:17Z</time>
      </trkpt>
      <trkpt lat="44.65526" lon="3.79032">
        <ele>1185.2</ele>
        <time>2013-05-08T14:04:24Z</time>
      </trkpt>
      <trkpt lat="44.65524" lon="3.79043">
        <ele>1184.9</ele>
        <time>2013-05-08T14:04:32Z</time>
      </trkpt>
      <trkpt lat="44.65521" lon="3.79055">
        <ele>1185</ele>
        <time>2013-05-08T14:04:40Z</time>
      </trkpt>
      <trkpt lat="44.6552" lon="3.79067">
        <ele>1184.8</ele>
        <time>2013-05-08T14:04:47Z</time>
      </trkpt>
      <trkpt lat="44.65519" lon="3.79079">
        <ele>1185</ele>
        <time>2013-05-08T14:04:52Z</time>
      </trkpt>
      <trkpt lat="44.65519" lon="3.7909">
        <ele>1184.9</ele>
        <time>2013-05-08T14:04:59Z</time>
      </trkpt>
      <trkpt lat="44.6552" lon="3.79093">
        <ele>1184.9</ele>
        <time>2013-05-08T14:05:00Z</time>
      </trkpt>
      <trkpt lat="44.65523" lon="3.79112">
        <ele>1184.9</ele>
        <time>2013-05-08T14:05:11Z</time>
      </trkpt>
      <trkpt lat="44.65521" lon="3.79124">
        <ele>1184.7</ele>
        <time>2013-05-08T14:05:19Z</time>
      </trkpt>
      <trkpt lat="44.65521" lon="3.79135">
        <ele>1184.8</ele>
        <time>2013-05-08T14:05:26Z</time>
      </trkpt>
      <trkpt lat="44.65521" lon="3.79145">
        <ele>1184.8</ele>
        <time>2013-05-08T14:05:31Z</time>
      </trkpt>
      <trkpt lat="44.6552" lon="3.79157">
        <ele>1184.5</ele>
        <time>2013-05-08T14:05:35Z</time>
      </trkpt>
      <trkpt lat="44.65518" lon="3.79168">
        <ele>1184.3</ele>
        <time>2013-05-08T14:05:42Z</time>
      </trkpt>
      <trkpt lat="44.65517" lon="3.7918">
        <ele>1184</ele>
        <time>2013-05-08T14:05:51Z</time>
      </trkpt>
      <trkpt lat="44.65514" lon="3.79191">
        <ele>1183.6</ele>
        <time>2013-05-08T14:06:00Z</time>
      </trkpt>
      <trkpt lat="44.65514" lon="3.79192">
        <ele>1183.6</ele>
        <time>2013-05-08T14:06:01Z</time>
      </trkpt>
      <trkpt lat="44.65513" lon="3.79214">
        <ele>1183.2</ele>
        <time>2013-05-08T14:06:15Z</time>
      </trkpt>
      <trkpt lat="44.65512" lon="3.79225">
        <ele>1182.3</ele>
        <time>2013-05-08T14:06:26Z</time>
      </trkpt>
      <trkpt lat="44.65516" lon="3.79236">
        <ele>1181.9</ele>
        <time>2013-05-08T14:06:29Z</time>
      </trkpt>
      <trkpt lat="44.65519" lon="3.79246">
        <ele>1181.7</ele>
        <time>2013-05-08T14:06:32Z</time>
      </trkpt>
      <trkpt lat="44.65518" lon="3.79258">
        <ele>1181.5</ele>
        <time>2013-05-08T14:06:41Z</time>
      </trkpt>
      <trkpt lat="44.65515" lon="3.79268">
        <ele>1181.5</ele>
        <time>2013-05-08T14:06:49Z</time>
      </trkpt>
      <trkpt lat="44.65514" lon="3.7928">
        <ele>1181.2</ele>
        <time>2013-05-08T14:06:55Z</time>
      </trkpt>
      <trkpt lat="44.65513" lon="3.79292">
        <ele>1180.9</ele>
        <time>2013-05-08T14:07:02Z</time>
      </trkpt>
      <trkpt lat="44.65512" lon="3.79293">
        <ele>1180.9</ele>
        <time>2013-05-08T14:07:03Z</time>
      </trkpt>
      <trkpt lat="44.65513" lon="3.79316">
        <ele>1181</ele>
        <time>2013-05-08T14:07:17Z</time>
      </trkpt>
      <trkpt lat="44.65511" lon="3.79325">
        <ele>1180.5</ele>
        <time>2013-05-08T14:07:22Z</time>
      </trkpt>
      <trkpt lat="44.65514" lon="3.79336">
        <ele>1180.5</ele>
        <time>2013-05-08T14:07:26Z</time>
      </trkpt>
      <trkpt lat="44.65511" lon="3.79348">
        <ele>1180.1</ele>
        <time>2013-05-08T14:07:33Z</time>
      </trkpt>
      <trkpt lat="44.65509" lon="3.79359">
        <ele>1180.2</ele>
        <time>2013-05-08T14:07:41Z</time>
      </trkpt>
      <trkpt lat="44.65507" lon="3.7937">
        <ele>1180.6</ele>
        <time>2013-05-08T14:07:49Z</time>
      </trkpt>
      <trkpt lat="44.65504" lon="3.79381">
        <ele>1179.6</ele>
        <time>2013-05-08T14:07:58Z</time>
      </trkpt>
      <trkpt lat="44.65499" lon="3.79391">
        <ele>1178.2</ele>
        <time>2013-05-08T14:08:04Z</time>
      </trkpt>
      <trkpt lat="44.65499" lon="3.79392">
        <ele>1178.2</ele>
        <time>2013-05-08T14:08:05Z</time>
      </trkpt>
      <trkpt lat="44.65496" lon="3.79413">
        <ele>1177.4</ele>
        <time>2013-05-08T14:08:16Z</time>
      </trkpt>
      <trkpt lat="44.65494" lon="3.79425">
        <ele>1177.1</ele>
        <time>2013-05-08T14:08:24Z</time>
      </trkpt>
      <trkpt lat="44.65495" lon="3.79437">
        <ele>1176.1</ele>
        <time>2013-05-08T14:08:32Z</time>
      </trkpt>
      <trkpt lat="44.65497" lon="3.79449">
        <ele>1175.3</ele>
        <time>2013-05-08T14:08:41Z</time>
      </trkpt>
      <trkpt lat="44.655" lon="3.79459">
        <ele>1175.5</ele>
        <time>2013-05-08T14:08:48Z</time>
      </trkpt>
      <trkpt lat="44.65502" lon="3.79471">
        <ele>1175</ele>
        <time>2013-05-08T14:08:58Z</time>
      </trkpt>
      <trkpt lat="44.65501" lon="3.79481">
        <ele>1174.3</ele>
        <time>2013-05-08T14:09:04Z</time>
      </trkpt>
      <trkpt lat="44.655" lon="3.79493">
        <ele>1173.5</ele>
        <time>2013-05-08T14:09:12Z</time>
      </trkpt>
      <trkpt lat="44.65499" lon="3.79494">
        <ele>1173.5</ele>
        <time>2013-05-08T14:09:13Z</time>
      </trkpt>
      <trkpt lat="44.65493" lon="3.79514">
        <ele>1169.7</ele>
        <time>2013-05-08T14:09:30Z</time>
      </trkpt>
      <trkpt lat="44.65488" lon="3.79524">
        <ele>1169.1</ele>
        <time>2013-05-08T14:09:40Z</time>
      </trkpt>
      <trkpt lat="44.65481" lon="3.79533">
        <ele>1168.8</ele>
        <time>2013-05-08T14:09:52Z</time>
      </trkpt>
      <trkpt lat="44.6549" lon="3.79537">
        <ele>1163.4</ele>
        <time>2013-05-08T14:10:46Z</time>
      </trkpt>
      <trkpt lat="44.6549" lon="3.79537">
        <ele>1163.2</ele>
        <time>2013-05-08T14:10:47Z</time>
      </trkpt>
      <trkpt lat="44.65502" lon="3.79555">
        <ele>1161.1</ele>
        <time>2013-05-08T14:11:05Z</time>
      </trkpt>
      <trkpt lat="44.65507" lon="3.79564">
        <ele>1159.8</ele>
        <time>2013-05-08T14:11:13Z</time>
      </trkpt>
      <trkpt lat="44.65512" lon="3.79572">
        <ele>1159.1</ele>
        <time>2013-05-08T14:11:19Z</time>
      </trkpt>
      <trkpt lat="44.65516" lon="3.79581">
        <ele>1158.4</ele>
        <time>2013-05-08T14:11:24Z</time>
      </trkpt>
      <trkpt lat="44.65521" lon="3.7959">
        <ele>1157.8</ele>
        <time>2013-05-08T14:11:30Z</time>
      </trkpt>
      <trkpt lat="44.65528" lon="3.79598">
        <ele>1156.9</ele>
        <time>2013-05-08T14:11:37Z</time>
      </trkpt>
      <trkpt lat="44.65534" lon="3.79607">
        <ele>1156.3</ele>
        <time>2013-05-08T14:11:45Z</time>
      </trkpt>
      <trkpt lat="44.6554" lon="3.79615">
        <ele>1155.7</ele>
        <time>2013-05-08T14:11:52Z</time>
      </trkpt>
      <trkpt lat="44.6554" lon="3.79616">
        <ele>1155.6</ele>
        <time>2013-05-08T14:11:53Z</time>
      </trkpt>
      <trkpt lat="44.65551" lon="3.79632">
        <ele>1155.2</ele>
        <time>2013-05-08T14:12:07Z</time>
      </trkpt>
      <trkpt lat="44.65554" lon="3.79642">
        <ele>1154.5</ele>
        <time>2013-05-08T14:12:12Z</time>
      </trkpt>
      <trkpt lat="44.65559" lon="3.79652">
        <ele>1153.8</ele>
        <time>2013-05-08T14:12:18Z</time>
      </trkpt>
      <trkpt lat="44.65563" lon="3.79663">
        <ele>1153.2</ele>
        <time>2013-05-08T14:12:25Z</time>
      </trkpt>
      <trkpt lat="44.65568" lon="3.79673">
        <ele>1153.1</ele>
        <time>2013-05-08T14:12:34Z</time>
      </trkpt>
      <trkpt lat="44.65571" lon="3.79683">
        <ele>1152.8</ele>
        <time>2013-05-08T14:12:41Z</time>
      </trkpt>
      <trkpt lat="44.65576" lon="3.79693">
        <ele>1152.5</ele>
        <time>2013-05-08T14:12:47Z</time>
      </trkpt>
      <trkpt lat="44.6558" lon="3.79702">
        <ele>1152.1</ele>
        <time>2013-05-08T14:12:53Z</time>
      </trkpt>
      <trkpt lat="44.6558" lon="3.79704">
        <ele>1152.2</ele>
        <time>2013-05-08T14:12:54Z</time>
      </trkpt>
      <trkpt lat="44.65588" lon="3.79723">
        <ele>1151.1</ele>
        <time>2013-05-08T14:13:05Z</time>
      </trkpt>
      <trkpt lat="44.65591" lon="3.79735">
        <ele>1150.4</ele>
        <time>2013-05-08T14:13:11Z</time>
      </trkpt>
      <trkpt lat="44.65596" lon="3.79743">
        <ele>1150</ele>
        <time>2013-05-08T14:13:17Z</time>
      </trkpt>
      <trkpt lat="44.65601" lon="3.79751">
        <ele>1149.6</ele>
        <time>2013-05-08T14:13:23Z</time>
      </trkpt>
      <trkpt lat="44.65606" lon="3.79761">
        <ele>1149.4</ele>
        <time>2013-05-08T14:13:29Z</time>
      </trkpt>
      <trkpt lat="44.65611" lon="3.79769">
        <ele>1149.4</ele>
        <time>2013-05-08T14:13:35Z</time>
      </trkpt>
      <trkpt lat="44.65616" lon="3.79779">
        <ele>1149.4</ele>
        <time>2013-05-08T14:13:41Z</time>
      </trkpt>
      <trkpt lat="44.6562" lon="3.79789">
        <ele>1149.3</ele>
        <time>2013-05-08T14:13:47Z</time>
      </trkpt>
      <trkpt lat="44.65625" lon="3.79798">
        <ele>1149.2</ele>
        <time>2013-05-08T14:13:53Z</time>
      </trkpt>
      <trkpt lat="44.65629" lon="3.79809">
        <ele>1149.3</ele>
        <time>2013-05-08T14:14:00Z</time>
      </trkpt>
      <trkpt lat="44.65629" lon="3.7981">
        <ele>1149.2</ele>
        <time>2013-05-08T14:14:01Z</time>
      </trkpt>
      <trkpt lat="44.65633" lon="3.79831">
        <ele>1148.4</ele>
        <time>2013-05-08T14:14:22Z</time>
      </trkpt>
      <trkpt lat="44.65624" lon="3.79833">
        <ele>1148.4</ele>
        <time>2013-05-08T14:14:31Z</time>
      </trkpt>
      <trkpt lat="44.65616" lon="3.79834">
        <ele>1148.3</ele>
        <time>2013-05-08T14:14:41Z</time>
      </trkpt>
      <trkpt lat="44.65608" lon="3.79833">
        <ele>1148.4</ele>
        <time>2013-05-08T14:14:48Z</time>
      </trkpt>
      <trkpt lat="44.656" lon="3.79833">
        <ele>1148.5</ele>
        <time>2013-05-08T14:14:56Z</time>
      </trkpt>
      <trkpt lat="44.65591" lon="3.79831">
        <ele>1148.6</ele>
        <time>2013-05-08T14:15:04Z</time>
      </trkpt>
      <trkpt lat="44.6559" lon="3.7983">
        <ele>1148.6</ele>
        <time>2013-05-08T14:15:05Z</time>
      </trkpt>
      <trkpt lat="44.65575" lon="3.79829">
        <ele>1148.9</ele>
        <time>2013-05-08T14:15:19Z</time>
      </trkpt>
      <trkpt lat="44.65567" lon="3.79828">
        <ele>1149</ele>
        <time>2013-05-08T14:15:24Z</time>
      </trkpt>
      <trkpt lat="44.65559" lon="3.79824">
        <ele>1149.3</ele>
        <time>2013-05-08T14:15:31Z</time>
      </trkpt>
      <trkpt lat="44.6555" lon="3.79824">
        <ele>1149.3</ele>
        <time>2013-05-08T14:15:40Z</time>
      </trkpt>
      <trkpt lat="44.65542" lon="3.79823">
        <ele>1149.5</ele>
        <time>2013-05-08T14:15:47Z</time>
      </trkpt>
      <trkpt lat="44.65533" lon="3.79821">
        <ele>1149.6</ele>
        <time>2013-05-08T14:15:55Z</time>
      </trkpt>
      <trkpt lat="44.65525" lon="3.79817">
        <ele>1149.9</ele>
        <time>2013-05-08T14:16:02Z</time>
      </trkpt>
      <trkpt lat="44.65517" lon="3.79814">
        <ele>1150.1</ele>
        <time>2013-05-08T14:16:11Z</time>
      </trkpt>
      <trkpt lat="44.65517" lon="3.79814">
        <ele>1150.1</ele>
        <time>2013-05-08T14:16:12Z</time>
      </trkpt>
      <trkpt lat="44.655" lon="3.79811">
        <ele>1148.8</ele>
        <time>2013-05-08T14:16:41Z</time>
      </trkpt>
      <trkpt lat="44.65491" lon="3.7981">
        <ele>1149.1</ele>
        <time>2013-05-08T14:16:51Z</time>
      </trkpt>
      <trkpt lat="44.65483" lon="3.79811">
        <ele>1149.1</ele>
        <time>2013-05-08T14:16:58Z</time>
      </trkpt>
      <trkpt lat="44.65475" lon="3.79814">
        <ele>1149.2</ele>
        <time>2013-05-08T14:17:04Z</time>
      </trkpt>
      <trkpt lat="44.65467" lon="3.79816">
        <ele>1149.3</ele>
        <time>2013-05-08T14:17:09Z</time>
      </trkpt>
      <trkpt lat="44.65459" lon="3.79818">
        <ele>1149.4</ele>
        <time>2013-05-08T14:17:14Z</time>
      </trkpt>
      <trkpt lat="44.65458" lon="3.79818">
        <ele>1149.4</ele>
        <time>2013-05-08T14:17:15Z</time>
      </trkpt>
      <trkpt lat="44.65443" lon="3.79824">
        <ele>1149.2</ele>
        <time>2013-05-08T14:17:25Z</time>
      </trkpt>
      <trkpt lat="44.65437" lon="3.79828">
        <ele>1149</ele>
        <time>2013-05-08T14:17:28Z</time>
      </trkpt>
      <trkpt lat="44.65429" lon="3.79834">
        <ele>1148.9</ele>
        <time>2013-05-08T14:17:35Z</time>
      </trkpt>
      <trkpt lat="44.65421" lon="3.79838">
        <ele>1149</ele>
        <time>2013-05-08T14:17:43Z</time>
      </trkpt>
      <trkpt lat="44.65414" lon="3.79844">
        <ele>1148.6</ele>
        <time>2013-05-08T14:17:52Z</time>
      </trkpt>
      <trkpt lat="44.65406" lon="3.79851">
        <ele>1148</ele>
        <time>2013-05-08T14:18:01Z</time>
      </trkpt>
      <trkpt lat="44.654" lon="3.79859">
        <ele>1147.6</ele>
        <time>2013-05-08T14:18:08Z</time>
      </trkpt>
      <trkpt lat="44.65393" lon="3.79867">
        <ele>1146.7</ele>
        <time>2013-05-08T14:18:19Z</time>
      </trkpt>
      <trkpt lat="44.65393" lon="3.79868">
        <ele>1146.6</ele>
        <time>2013-05-08T14:18:20Z</time>
      </trkpt>
      <trkpt lat="44.65381" lon="3.79881">
        <ele>1146.3</ele>
        <time>2013-05-08T14:18:31Z</time>
      </trkpt>
      <trkpt lat="44.65375" lon="3.79887">
        <ele>1146</ele>
        <time>2013-05-08T14:18:35Z</time>
      </trkpt>
      <trkpt lat="44.65368" lon="3.79893">
        <ele>1145.2</ele>
        <time>2013-05-08T14:18:42Z</time>
      </trkpt>
      <trkpt lat="44.6536" lon="3.79898">
        <ele>1144.9</ele>
        <time>2013-05-08T14:18:48Z</time>
      </trkpt>
      <trkpt lat="44.65353" lon="3.79902">
        <ele>1144.5</ele>
        <time>2013-05-08T14:18:54Z</time>
      </trkpt>
      <trkpt lat="44.65345" lon="3.79907">
        <ele>1143.7</ele>
        <time>2013-05-08T14:19:03Z</time>
      </trkpt>
      <trkpt lat="44.65338" lon="3.79912">
        <ele>1142.7</ele>
        <time>2013-05-08T14:19:09Z</time>
      </trkpt>
      <trkpt lat="44.6533" lon="3.79916">
        <ele>1141.2</ele>
        <time>2013-05-08T14:19:17Z</time>
      </trkpt>
      <trkpt lat="44.65322" lon="3.79921">
        <ele>1139.3</ele>
        <time>2013-05-08T14:19:27Z</time>
      </trkpt>
      <trkpt lat="44.65322" lon="3.79921">
        <ele>1138.9</ele>
        <time>2013-05-08T14:19:28Z</time>
      </trkpt>
      <trkpt lat="44.6531" lon="3.79937">
        <ele>1135.8</ele>
        <time>2013-05-08T14:19:51Z</time>
      </trkpt>
      <trkpt lat="44.65305" lon="3.79945">
        <ele>1134.7</ele>
        <time>2013-05-08T14:19:58Z</time>
      </trkpt>
      <trkpt lat="44.65301" lon="3.79955">
        <ele>1133.2</ele>
        <time>2013-05-08T14:20:05Z</time>
      </trkpt>
      <trkpt lat="44.653" lon="3.79967">
        <ele>1131.9</ele>
        <time>2013-05-08T14:20:13Z</time>
      </trkpt>
      <trkpt lat="44.65295" lon="3.79977">
        <ele>1130.9</ele>
        <time>2013-05-08T14:20:23Z</time>
      </trkpt>
      <trkpt lat="44.65291" lon="3.79988">
        <ele>1128.9</ele>
        <time>2013-05-08T14:20:36Z</time>
      </trkpt>
      <trkpt lat="44.65291" lon="3.7999">
        <ele>1128.8</ele>
        <time>2013-05-08T14:20:37Z</time>
      </trkpt>
      <trkpt lat="44.65281" lon="3.80005">
        <ele>1128.6</ele>
        <time>2013-05-08T14:20:46Z</time>
      </trkpt>
      <trkpt lat="44.65276" lon="3.80013">
        <ele>1129</ele>
        <time>2013-05-08T14:20:53Z</time>
      </trkpt>
      <trkpt lat="44.65269" lon="3.8002">
        <ele>1129.5</ele>
        <time>2013-05-08T14:21:00Z</time>
      </trkpt>
      <trkpt lat="44.65262" lon="3.80026">
        <ele>1130</ele>
        <time>2013-05-08T14:21:07Z</time>
      </trkpt>
      <trkpt lat="44.65257" lon="3.80036">
        <ele>1130.2</ele>
        <time>2013-05-08T14:21:12Z</time>
      </trkpt>
      <trkpt lat="44.65254" lon="3.80046">
        <ele>1130.2</ele>
        <time>2013-05-08T14:21:17Z</time>
      </trkpt>
      <trkpt lat="44.65248" lon="3.80055">
        <ele>1130.6</ele>
        <time>2013-05-08T14:21:22Z</time>
      </trkpt>
      <trkpt lat="44.65242" lon="3.80063">
        <ele>1131.2</ele>
        <time>2013-05-08T14:21:28Z</time>
      </trkpt>
      <trkpt lat="44.65237" lon="3.80072">
        <ele>1130.7</ele>
        <time>2013-05-08T14:21:35Z</time>
      </trkpt>
      <trkpt lat="44.65233" lon="3.80082">
        <ele>1129.8</ele>
        <time>2013-05-08T14:21:43Z</time>
      </trkpt>
      <trkpt lat="44.65234" lon="3.80084">
        <ele>1129.5</ele>
        <time>2013-05-08T14:21:44Z</time>
      </trkpt>
      <trkpt lat="44.65233" lon="3.80106">
        <ele>1121.2</ele>
        <time>2013-05-08T14:22:01Z</time>
      </trkpt>
      <trkpt lat="44.65234" lon="3.80118">
        <ele>1118.7</ele>
        <time>2013-05-08T14:22:08Z</time>
      </trkpt>
      <trkpt lat="44.65236" lon="3.80129">
        <ele>1116.3</ele>
        <time>2013-05-08T14:22:15Z</time>
      </trkpt>
      <trkpt lat="44.65234" lon="3.80141">
        <ele>1114.2</ele>
        <time>2013-05-08T14:22:22Z</time>
      </trkpt>
      <trkpt lat="44.65234" lon="3.80153">
        <ele>1112.3</ele>
        <time>2013-05-08T14:22:29Z</time>
      </trkpt>
      <trkpt lat="44.65233" lon="3.80164">
        <ele>1110.2</ele>
        <time>2013-05-08T14:22:36Z</time>
      </trkpt>
      <trkpt lat="44.65232" lon="3.80175">
        <ele>1108.8</ele>
        <time>2013-05-08T14:22:43Z</time>
      </trkpt>
      <trkpt lat="44.65228" lon="3.80186">
        <ele>1107.8</ele>
        <time>2013-05-08T14:22:50Z</time>
      </trkpt>
      <trkpt lat="44.65227" lon="3.80187">
        <ele>1107.6</ele>
        <time>2013-05-08T14:22:51Z</time>
      </trkpt>
      <trkpt lat="44.65218" lon="3.80206">
        <ele>1106.5</ele>
        <time>2013-05-08T14:23:02Z</time>
      </trkpt>
      <trkpt lat="44.65213" lon="3.80214">
        <ele>1105.6</ele>
        <time>2013-05-08T14:23:07Z</time>
      </trkpt>
      <trkpt lat="44.65206" lon="3.80221">
        <ele>1105</ele>
        <time>2013-05-08T14:23:14Z</time>
      </trkpt>
      <trkpt lat="44.65202" lon="3.80231">
        <ele>1104.7</ele>
        <time>2013-05-08T14:23:22Z</time>
      </trkpt>
      <trkpt lat="44.65194" lon="3.80234">
        <ele>1104.1</ele>
        <time>2013-05-08T14:23:29Z</time>
      </trkpt>
      <trkpt lat="44.65187" lon="3.80239">
        <ele>1103.5</ele>
        <time>2013-05-08T14:23:38Z</time>
      </trkpt>
      <trkpt lat="44.65179" lon="3.80244">
        <ele>1102.9</ele>
        <time>2013-05-08T14:23:58Z</time>
      </trkpt>
      <trkpt lat="44.65178" lon="3.80244">
        <ele>1102.9</ele>
        <time>2013-05-08T14:23:59Z</time>
      </trkpt>
      <trkpt lat="44.65164" lon="3.8025">
        <ele>1103</ele>
        <time>2013-05-08T14:24:08Z</time>
      </trkpt>
      <trkpt lat="44.65156" lon="3.80252">
        <ele>1103</ele>
        <time>2013-05-08T14:24:14Z</time>
      </trkpt>
      <trkpt lat="44.65148" lon="3.80257">
        <ele>1103</ele>
        <time>2013-05-08T14:24:21Z</time>
      </trkpt>
      <trkpt lat="44.6514" lon="3.80263">
        <ele>1103</ele>
        <time>2013-05-08T14:24:30Z</time>
      </trkpt>
      <trkpt lat="44.65133" lon="3.80267">
        <ele>1102.9</ele>
        <time>2013-05-08T14:24:36Z</time>
      </trkpt>
      <trkpt lat="44.65126" lon="3.80273">
        <ele>1103</ele>
        <time>2013-05-08T14:24:43Z</time>
      </trkpt>
      <trkpt lat="44.65118" lon="3.80276">
        <ele>1102.9</ele>
        <time>2013-05-08T14:24:51Z</time>
      </trkpt>
      <trkpt lat="44.6511" lon="3.8028">
        <ele>1102.8</ele>
        <time>2013-05-08T14:24:59Z</time>
      </trkpt>
      <trkpt lat="44.65109" lon="3.8028">
        <ele>1102.8</ele>
        <time>2013-05-08T14:25:00Z</time>
      </trkpt>
      <trkpt lat="44.65095" lon="3.80287">
        <ele>1102.4</ele>
        <time>2013-05-08T14:25:12Z</time>
      </trkpt>
      <trkpt lat="44.65087" lon="3.80291">
        <ele>1102.2</ele>
        <time>2013-05-08T14:25:19Z</time>
      </trkpt>
      <trkpt lat="44.65079" lon="3.80296">
        <ele>1102.1</ele>
        <time>2013-05-08T14:25:25Z</time>
      </trkpt>
      <trkpt lat="44.65071" lon="3.80299">
        <ele>1101.8</ele>
        <time>2013-05-08T14:25:32Z</time>
      </trkpt>
      <trkpt lat="44.65063" lon="3.80303">
        <ele>1101.7</ele>
        <time>2013-05-08T14:25:39Z</time>
      </trkpt>
      <trkpt lat="44.65056" lon="3.80305">
        <ele>1101.5</ele>
        <time>2013-05-08T14:25:44Z</time>
      </trkpt>
      <trkpt lat="44.65049" lon="3.80309">
        <ele>1101.3</ele>
        <time>2013-05-08T14:25:49Z</time>
      </trkpt>
      <trkpt lat="44.65042" lon="3.80311">
        <ele>1101.1</ele>
        <time>2013-05-08T14:25:54Z</time>
      </trkpt>
      <trkpt lat="44.65034" lon="3.80314">
        <ele>1100.8</ele>
        <time>2013-05-08T14:25:59Z</time>
      </trkpt>
      <trkpt lat="44.65026" lon="3.80314">
        <ele>1100.7</ele>
        <time>2013-05-08T14:26:09Z</time>
      </trkpt>
      <trkpt lat="44.65024" lon="3.80314">
        <ele>1100.7</ele>
        <time>2013-05-08T14:26:10Z</time>
      </trkpt>
      <trkpt lat="44.65009" lon="3.80319">
        <ele>1100.3</ele>
        <time>2013-05-08T14:26:23Z</time>
      </trkpt>
      <trkpt lat="44.65" lon="3.80321">
        <ele>1099.7</ele>
        <time>2013-05-08T14:26:29Z</time>
      </trkpt>
      <trkpt lat="44.64995" lon="3.80327">
        <ele>1098.5</ele>
        <time>2013-05-08T14:26:42Z</time>
      </trkpt>
      <trkpt lat="44.64987" lon="3.80333">
        <ele>1098.6</ele>
        <time>2013-05-08T14:26:47Z</time>
      </trkpt>
      <trkpt lat="44.64979" lon="3.80338">
        <ele>1098.5</ele>
        <time>2013-05-08T14:26:54Z</time>
      </trkpt>
      <trkpt lat="44.64972" lon="3.80335">
        <ele>1098.5</ele>
        <time>2013-05-08T14:27:01Z</time>
      </trkpt>
      <trkpt lat="44.64965" lon="3.80328">
        <ele>1098.3</ele>
        <time>2013-05-08T14:27:09Z</time>
      </trkpt>
      <trkpt lat="44.64958" lon="3.80325">
        <ele>1097.5</ele>
        <time>2013-05-08T14:27:15Z</time>
      </trkpt>
      <trkpt lat="44.64955" lon="3.80324">
        <ele>1097.4</ele>
        <time>2013-05-08T14:27:16Z</time>
      </trkpt>
      <trkpt lat="44.64942" lon="3.80324">
        <ele>1095.9</ele>
        <time>2013-05-08T14:27:29Z</time>
      </trkpt>
      <trkpt lat="44.64934" lon="3.80326">
        <ele>1093.7</ele>
        <time>2013-05-08T14:27:48Z</time>
      </trkpt>
      <trkpt lat="44.64926" lon="3.80325">
        <ele>1092.5</ele>
        <time>2013-05-08T14:27:56Z</time>
      </trkpt>
      <trkpt lat="44.64917" lon="3.80325">
        <ele>1092.1</ele>
        <time>2013-05-08T14:28:02Z</time>
      </trkpt>
      <trkpt lat="44.64909" lon="3.80327">
        <ele>1092.1</ele>
        <time>2013-05-08T14:28:08Z</time>
      </trkpt>
      <trkpt lat="44.649" lon="3.80329">
        <ele>1092</ele>
        <time>2013-05-08T14:28:14Z</time>
      </trkpt>
      <trkpt lat="44.64892" lon="3.8033">
        <ele>1091.5</ele>
        <time>2013-05-08T14:28:20Z</time>
      </trkpt>
      <trkpt lat="44.64891" lon="3.8033">
        <ele>1091.4</ele>
        <time>2013-05-08T14:28:21Z</time>
      </trkpt>
      <trkpt lat="44.64875" lon="3.80329">
        <ele>1087.9</ele>
        <time>2013-05-08T14:28:45Z</time>
      </trkpt>
      <trkpt lat="44.64867" lon="3.80328">
        <ele>1086.1</ele>
        <time>2013-05-08T14:28:54Z</time>
      </trkpt>
      <trkpt lat="44.6486" lon="3.80332">
        <ele>1085.3</ele>
        <time>2013-05-08T14:28:58Z</time>
      </trkpt>
      <trkpt lat="44.64853" lon="3.80333">
        <ele>1084.9</ele>
        <time>2013-05-08T14:29:01Z</time>
      </trkpt>
      <trkpt lat="44.64845" lon="3.80334">
        <ele>1084.3</ele>
        <time>2013-05-08T14:29:07Z</time>
      </trkpt>
      <trkpt lat="44.64836" lon="3.80336">
        <ele>1084.3</ele>
        <time>2013-05-08T14:29:17Z</time>
      </trkpt>
      <trkpt lat="44.6483" lon="3.8034">
        <ele>1083.6</ele>
        <time>2013-05-08T14:29:38Z</time>
      </trkpt>
      <trkpt lat="44.64825" lon="3.8034">
        <ele>1082.8</ele>
        <time>2013-05-08T14:29:39Z</time>
      </trkpt>
      <trkpt lat="44.64813" lon="3.80337">
        <ele>1082.5</ele>
        <time>2013-05-08T14:29:53Z</time>
      </trkpt>
      <trkpt lat="44.64805" lon="3.80338">
        <ele>1083.2</ele>
        <time>2013-05-08T14:30:00Z</time>
      </trkpt>
      <trkpt lat="44.64797" lon="3.80335">
        <ele>1083.4</ele>
        <time>2013-05-08T14:30:07Z</time>
      </trkpt>
      <trkpt lat="44.64789" lon="3.8033">
        <ele>1083</ele>
        <time>2013-05-08T14:30:14Z</time>
      </trkpt>
      <trkpt lat="44.64782" lon="3.80325">
        <ele>1082.8</ele>
        <time>2013-05-08T14:30:24Z</time>
      </trkpt>
      <trkpt lat="44.64773" lon="3.80327">
        <ele>1083.4</ele>
        <time>2013-05-08T14:30:49Z</time>
      </trkpt>
      <trkpt lat="44.64772" lon="3.80327">
        <ele>1084</ele>
        <time>2013-05-08T14:30:50Z</time>
      </trkpt>
      <trkpt lat="44.64759" lon="3.80317">
        <ele>1082.8</ele>
        <time>2013-05-08T14:34:16Z</time>
      </trkpt>
      <trkpt lat="44.64751" lon="3.80318">
        <ele>1082.8</ele>
        <time>2013-05-08T14:34:46Z</time>
      </trkpt>
      <trkpt lat="44.6475" lon="3.80307">
        <ele>1082.8</ele>
        <time>2013-05-08T14:34:55Z</time>
      </trkpt>
      <trkpt lat="44.64759" lon="3.80309">
        <ele>1082</ele>
        <time>2013-05-08T14:35:16Z</time>
      </trkpt>
      <trkpt lat="44.6476" lon="3.80309">
        <ele>1082</ele>
        <time>2013-05-08T14:35:17Z</time>
      </trkpt>
      <trkpt lat="44.64766" lon="3.80319">
        <ele>1081.2</ele>
        <time>2013-05-08T14:37:05Z</time>
      </trkpt>
      <trkpt lat="44.64771" lon="3.8032">
        <ele>1081.5</ele>
        <time>2013-05-08T14:37:07Z</time>
      </trkpt>
      <trkpt lat="44.64777" lon="3.8033">
        <ele>1081.4</ele>
        <time>2013-05-08T14:37:30Z</time>
      </trkpt>
      <trkpt lat="44.64781" lon="3.8034">
        <ele>1081.4</ele>
        <time>2013-05-08T14:37:32Z</time>
      </trkpt>
      <trkpt lat="44.64784" lon="3.8035">
        <ele>1081.4</ele>
        <time>2013-05-08T14:37:34Z</time>
      </trkpt>
      <trkpt lat="44.64787" lon="3.80361">
        <ele>1081.4</ele>
        <time>2013-05-08T14:37:37Z</time>
      </trkpt>
      <trkpt lat="44.6479" lon="3.80373">
        <ele>1081.5</ele>
        <time>2013-05-08T14:37:40Z</time>
      </trkpt>
      <trkpt lat="44.64793" lon="3.8038">
        <ele>1081.5</ele>
        <time>2013-05-08T14:37:42Z</time>
      </trkpt>
      <trkpt lat="44.64797" lon="3.8039">
        <ele>1081.5</ele>
        <time>2013-05-08T14:37:45Z</time>
      </trkpt>
      <trkpt lat="44.64803" lon="3.80396">
        <ele>1081.5</ele>
        <time>2013-05-08T14:37:48Z</time>
      </trkpt>
      <trkpt lat="44.64808" lon="3.80405">
        <ele>1081.6</ele>
        <time>2013-05-08T14:37:52Z</time>
      </trkpt>
      <trkpt lat="44.64813" lon="3.80416">
        <ele>1081.7</ele>
        <time>2013-05-08T14:37:58Z</time>
      </trkpt>
      <trkpt lat="44.64815" lon="3.80424">
        <ele>1081.8</ele>
        <time>2013-05-08T14:38:01Z</time>
      </trkpt>
      <trkpt lat="44.64811" lon="3.80432">
        <ele>1081.8</ele>
        <time>2013-05-08T14:38:06Z</time>
      </trkpt>
      <trkpt lat="44.64792" lon="3.80245">
        <ele>1080.3</ele>
        <time>2013-05-08T14:38:33Z</time>
      </trkpt>
      <trkpt lat="44.64792" lon="3.80245">
        <ele>1080.3</ele>
        <time>2013-05-08T14:38:38Z</time>
      </trkpt>
      <trkpt lat="44.64786" lon="3.80256">
        <ele>1079.7</ele>
        <time>2013-05-08T14:38:39Z</time>
      </trkpt>
      <trkpt lat="44.64782" lon="3.80266">
        <ele>1079.4</ele>
        <time>2013-05-08T14:38:45Z</time>
      </trkpt>
      <trkpt lat="44.64781" lon="3.80268">
        <ele>1079.4</ele>
        <time>2013-05-08T14:38:46Z</time>
      </trkpt>
      <trkpt lat="44.64738" lon="3.80382">
        <ele>1076.9</ele>
        <time>2013-05-08T14:39:19Z</time>
      </trkpt>
      <trkpt lat="44.64746" lon="3.80384">
        <ele>1077.2</ele>
        <time>2013-05-08T14:39:42Z</time>
      </trkpt>
      <trkpt lat="44.64748" lon="3.80385">
        <ele>1077.3</ele>
        <time>2013-05-08T14:39:43Z</time>
      </trkpt>
      <trkpt lat="44.64761" lon="3.80394">
        <ele>1077.7</ele>
        <time>2013-05-08T14:39:51Z</time>
      </trkpt>
      <trkpt lat="44.64768" lon="3.80399">
        <ele>1078</ele>
        <time>2013-05-08T14:39:56Z</time>
      </trkpt>
      <trkpt lat="44.64776" lon="3.80404">
        <ele>1078.6</ele>
        <time>2013-05-08T14:40:03Z</time>
      </trkpt>
      <trkpt lat="44.64783" lon="3.80404">
        <ele>1079.4</ele>
        <time>2013-05-08T14:40:12Z</time>
      </trkpt>
      <trkpt lat="44.64789" lon="3.80396">
        <ele>1079.8</ele>
        <time>2013-05-08T14:40:17Z</time>
      </trkpt>
      <trkpt lat="44.64791" lon="3.8039">
        <ele>1080</ele>
        <time>2013-05-08T14:40:20Z</time>
      </trkpt>
      <trkpt lat="44.64804" lon="3.8037">
        <ele>1080.9</ele>
        <time>2013-05-08T14:40:25Z</time>
      </trkpt>
      <trkpt lat="44.64808" lon="3.80359">
        <ele>1081.4</ele>
        <time>2013-05-08T14:40:29Z</time>
      </trkpt>
      <trkpt lat="44.64812" lon="3.80349">
        <ele>1081.4</ele>
        <time>2013-05-08T14:40:35Z</time>
      </trkpt>
      <trkpt lat="44.64804" lon="3.8035">
        <ele>1081.3</ele>
        <time>2013-05-08T14:40:43Z</time>
      </trkpt>
      <trkpt lat="44.64803" lon="3.80351">
        <ele>1081.2</ele>
        <time>2013-05-08T14:40:44Z</time>
      </trkpt>
      <trkpt lat="44.6479" lon="3.80358">
        <ele>1080.7</ele>
        <time>2013-05-08T14:40:57Z</time>
      </trkpt>
      <trkpt lat="44.64788" lon="3.80361">
        <ele>1080.5</ele>
        <time>2013-05-08T14:40:58Z</time>
      </trkpt>
      <trkpt lat="44.64782" lon="3.80366">
        <ele>1080.2</ele>
        <time>2013-05-08T14:41:00Z</time>
      </trkpt>
      <trkpt lat="44.64784" lon="3.80354">
        <ele>1080.6</ele>
        <time>2013-05-08T14:41:11Z</time>
      </trkpt>
      <trkpt lat="44.64786" lon="3.80346">
        <ele>1080.8</ele>
        <time>2013-05-08T14:41:14Z</time>
      </trkpt>
    </trkseg>
  </trk>
</gpx>